     2              OBSERVATION DATA    GPS                 RINEX VERSION / TYPE
teqc 1999Jul19 20000201 02:00:25UTC                         PGM / RUN BY / DATE
                                                            COMMENT
L2: 1 -> 1; 5 -> 5; 60 -> 9                                 COMMENT
L2: 1 -> 1; 5 -> 5; 60 -> 9                                 COMMENT
L2: 1 -> 1; 5 -> 5; 60 -> 9                                 COMMENT
L2: 1 -> 1; 5 -> 5; 60 -> 9                                 COMMENT
L2: 1 -> 1; 5 -> 5; 60 -> 9                                 COMMENT
Original Marker Name: 0002                                  COMMENT
Campaign Name: Imperial Valley Leveling                     COMMENT
4-Character Station Name: YUMA                              COMMENT
6-Character Antenna Code: TRMSST                            COMMENT
Vertical Measurement Point: BGP                             COMMENT
Vertical Offset to Rinex Ref. Point: 0.0597                 COMMENT
Radial Measurement Point: NGP                               COMMENT
Radial Offset to Rinex Ref. Point: 0.2334                   COMMENT
Antenna Height from Field Measurement: 1.4037 m             COMMENT
Additional Antenna Identification Info.:                    COMMENT
Model 14532.00                                              COMMENT
Original XYZ: -2196774.4046 -4887333.7922 3448422.4993      COMMENT
New XYZ position is based on association with SCEC monument COMMENT
E1C9S0R6+0011. Position of that monument is believed to be  COMMENT
valid to within 1 m horizontally; vertical accuracy         COMMENT
should be no worse than 3-times this value.                 COMMENT
                                                            COMMENT
Revised Rinex header created by UCSD GPS archive for        COMMENT
GSAC on 17-Jul-2000 (2000:199) 21:03:17 GMT                 COMMENT
For assistance contact dagnew@ucsd.edu                      COMMENT
or anderson@python.ucsd.edu                                 COMMENT
                                                            COMMENT
YUMA NCMM                                                   MARKER NAME
0002                                                        MARKER NUMBER
-Unknown- CALIF DEPT TRANSPORTATION                         OBSERVER / AGENCY
4799 TRIMBLE 4000 SSE NP 6.12; SP 2.12                      REC # / TYPE / VERS
338 TR 4000SST L1/L2 GEO                                    ANT # / TYPE
 -2196778.3070 -4887336.8177  3448425.2861                  APPROX POSITION XYZ
        1.3245        0.0000        0.0000                  ANTENNA: DELTA H/E/N
     1     1     0                                          WAVELENGTH FACT L1/2
     7    C1    L1    L2    P1    P2    S1    S2            # / TYPES OF OBSERV
     0                                                      INTERVAL
  1995     4    12    16     0   15.000000                  TIME OF FIRST OBS
  1995     4    12    22    29   45.000000                  TIME OF LAST OBS
                                                            END OF HEADER
 95  4 12 16  0 15.0000000  0  8G14G18G19G22G27G28G29G31
  24115487.6564     427688.92255    212106.14652                  24115491.8164
         7.7504          2.0004
  20524692.3054    -149211.09757    -95349.99756                  20524694.5314
        26.2504         23.5004
  21596885.6724    -230517.24857   -144415.80856                  21596888.1094
        23.2504         18.2504
  24177553.0554     824073.46755    507192.38755                  24177556.7344
        11.5004          4.5004
  24184416.8914    -483789.24855   -300085.85352                  24184422.6804
         7.7504          2.0004
                   -138638.14515   -108029.14715  23405047.367    23405050.152
         9.500           6.750
  20847721.9614     228551.24457    150138.34756                  20847724.3054
        25.2504         23.0004
  23230318.9614    -548116.69656   -343076.29155                  23230322.6524
        12.2504          5.2504
 95  4 12 16  0 30.0000000  0  8G14G18G19G22G27G28G29G31
  24126599.2034     486078.45445    257604.46243                  24126603.2704
         7.7504          3.2504
  20522925.4844    -158495.94347   -102584.93246                  20522927.7814
        26.2504         23.5004
  21593989.7114    -245736.09647   -156274.63346                  21593992.2424
        23.7504         17.7504
  24188075.3834     879367.80745    550278.87745                  24188078.5004
        11.5004          5.2504
  24178245.8134    -516219.40545   -325356.11442                  24178250.1604
         7.7504          2.0004
                   -147070.150 5   -114599.533 5  23403442.523    23403445.535
         9.500           6.750
  20850769.2034     244565.30247    162616.83246                  20850771.3244
        25.0004         23.0004
  23223403.4454    -584459.63146   -371395.43745                  23223407.0204
        12.2504          6.5004
 95  4 12 16  0 45.0000000  0  8G14G18G19G22G27G28G29G31
  24137716.5474     544505.07344    303131.70542                  24137720.8834
         7.2504          2.0004
  20521185.1484    -167641.21547   -109711.11346                  20521187.4804
        26.2504         25.0004
  21591107.7814    -260878.91647   -168074.21746                  21591110.4064
        23.7504         18.2504
  24198608.4454     934720.51545    593410.84145                  24198612.3014
        11.5004          6.0004
  24172084.4924    -548603.16045   -350590.16543                  24172087.9964
         8.2504          2.5004
                   -155346.439 5   -121048.587 5  23401867.930    23401870.867
         9.750           7.000
  20853842.8284     260717.67447    175203.09746                  20853845.0084
        24.5004         22.2504
  23216503.9614    -620715.20246   -399646.50145                  23216507.5704
        12.7504          6.0004
 95  4 12 16  1  0.0000000  0  8G14G18G19G22G27G28G29G31
  24148845.1484     602986.79444    348701.77842                  24148850.7624
         6.7504          2.0004
  20519475.1564    -176628.83547   -116714.44546                  20519477.5354
        26.0004         24.2504
  21588244.0314    -275927.35847   -179800.25946                  21588246.3404
        23.2504         17.0004
  24209155.9064     990148.26345    636601.26144                  24209160.5704
        11.5004          4.0004
  24165934.5164    -580920.66845   -375772.63841                  24165937.4104
         8.5004          1.2504
                   -163449.675 5   -127362.787 5  23400325.977    23400328.953
         9.750           6.750
  20856946.0864     277025.18547    187910.24846                  20856948.2304
        24.5004         21.5004
  23209624.6334    -656865.78346   -427815.77445                  23209628.3954
        12.5004          4.5004
 95  4 12 16  1 15.0000000  0  8G14G18G19G22G27G28G29G31
  24159986.3984     661532.63144    394321.94441                  24159992.9264
         6.7504          1.2504
  20517797.0084    -185445.81147   -123584.81246                  20517799.4804
        25.7504         23.0004
  21585400.3204    -290871.55047   -191445.07046                  21585402.6764
        22.7504         16.5004
  24219720.2034    1045662.48245    679859.09045                  24219724.5274
        11.2504          4.5004
  24159799.7034    -613156.39945   -400891.33743                  24159804.1334
         8.5004          2.5004
                   -171369.800 5   -133534.303 5  23398818.977    23398821.473
         9.750           6.750
  20860080.6334     293498.44447    200746.55046                  20860082.5314
        23.7504         22.2504
  23202767.6094    -692900.90646   -455895.08945                  23202770.8444
        12.5004          6.0004
 95  4 12 16  1 30.0000000  0  8G14G18G19G22G27G28G29G31
  24171140.8444     720146.32444    439994.88642                  24171145.8364
         7.2504          2.0004
  20516154.2664    -194080.23147   -130312.92346                  20516156.7034
        26.2504         24.2504
  21582577.9924    -305701.56447   -203000.91446                  21582580.6524
        22.2504         17.7504
  24230302.3444    1101274.38345    723193.02245                  24230306.0474
        11.2504          4.5004
  24153683.6644    -645297.80445   -425936.56942                  24153685.3874
         8.7504          2.0004
                   -179097.962 5   -139556.246 5  23397348.523    23397350.961
        10.000           6.750
  20863249.2274     310147.98247    213720.21446                  20863251.0084
        24.2504         20.2504
  23195933.9224    -728811.84546   -483877.60645                  23195937.5314
        12.2504          5.2504
 95  4 12 16  1 45.0000000  0  8G14G18G19G22G27G28G29G31
  24182310.6024     778839.24545    485729.57942                  24182316.5554
         7.7504          2.0004
  20514549.0634    -202515.38747   -136885.76446                  20514551.5944
        26.5004         23.5004
  21579780.5164    -320401.39947   -214455.31246                  21579783.5634
        22.5004         17.0004
  24240906.2274    1156996.68745    766612.97045                  24240908.9454
        11.7504          5.2504
  24147588.5784    -677327.35845   -450894.66642                  24147592.6684
         9.2504          2.0004
                   -186618.142 5   -145416.111 5  23395917.508    23395920.129
        10.250           7.000
  20866454.2974     326990.38847    226844.16846                  20866456.2774
        24.7504         21.5004
  23189126.6334    -764581.98246   -511750.42045                  23189130.6994
        12.5004          5.2504
 95  4 12 16  2  0.0000000  0  8G14G18G19G22G27G28G29G31
  24193494.7194     837612.25045    531526.71343                  24193498.9144
         7.7504          2.5004
  20512982.3284    -210749.77747   -143302.16146                  20512984.7544
        26.7504         22.2504
  21577008.2194    -334970.73147   -225808.02146                  21577011.1134
        22.0004         15.0004
  24251530.8444    1212827.91045    810117.81445                  24251533.6454
        11.5004          4.5004
  24141515.2814    -709242.77645   -475763.78442                  24141516.7464
         9.0004          2.0004
                   -193928.461 5   -151112.456 5  23394526.227    23394528.941
        10.000           6.750
  20869696.9534     344031.49347    240122.94846                  20869698.9574
        24.5004         20.2504
  23182347.8984    -800207.19246   -539510.32945                  23182352.2234
        12.2504          4.5004
 95  4 12 16  2 15.0000000  0  8G14G18G19G22G27G28G29G31
  24204694.5704     896469.90645    577389.77941                  24204700.4534
         7.5004          1.2504
  20511453.7424    -218781.77647   -149560.85746                  20511455.8984
        27.0004         23.0004
  21574260.2194    -349411.04747   -237060.21246                  21574263.1254
        22.2504         15.7504
  24262176.5704    1268771.27145    853710.02845                  24262181.0824
        11.7504          4.5004
  24135463.3204    -741041.84845   -500542.22443                  24135466.6954
         9.0004          3.2504
                   -201026.591 5   -156643.461 5  23393175.414    23393178.191
        10.000           6.750
  20872978.5634     361275.66647    253559.96746                  20872980.6134
        25.0004         22.2504
  23175596.9774    -835683.93446   -567154.50245                  23175601.7704
        12.2504          5.2504
 95  4 12 16  2 30.0000000  0  8G14G18G19G22G27G28G29G31
  24215911.7504     955418.34244    623323.59442                  24215916.8364
         6.7504          2.0004
  20509964.0554    -226610.24247   -155660.95346                  20509966.2114
        27.0004         22.2504
  21571537.5474    -363719.76247   -248209.84746                  21571540.3364
        22.2504         16.5004
  24272844.7584    1324834.09745    897395.29945                  24272849.5864
        11.5004          4.5004
  24129435.1024    -772722.28845   -525228.29243                  24129438.0084
         8.5004          2.5004
                   -207909.262 5   -162006.569 5  23391865.508    23391868.316
        10.000           6.500
  20876299.1564     378727.24347    267158.59446                  20876301.4064
        24.0004         20.2504
  23168875.2664    -871006.47446   -594678.56245                  23168879.3674
        12.2504          4.5004
 95  4 12 16  2 45.0000000  0  8G14G18G19G22G27G28G29G31
  24227145.7584    1014450.93644    669322.99942                  24227150.5274
         6.7504          2.0004
  20508511.0944    -234245.36447   -161610.39546                  20508513.1454
        26.7504         23.0004
  21568838.6254    -377903.52347   -259262.11846                  21568841.4734
        22.5004         17.7504
  24283534.8524    1381008.99945    941167.95745                  24283538.5314
        11.7504          4.5004
  24123427.4454    -804293.38345   -549829.15742                  24123431.3244
         8.2504          2.0004
                   -214584.186 5   -167207.802 5  23390595.344    23390598.137
         9.750           6.750
  20879658.3284     396378.76347    280913.02946                  20879660.7774
        24.2504         21.0004
  23162181.8914    -906180.19246   -622086.63245                  23162185.6994
        12.5004          5.2504
 95  4 12 16  3  0.0000000  0  8G14G18G19G22G27G28G29G31
  24238392.6644    1073556.90545    715379.48341                  24238399.6644
         7.5004          1.2504
  20507092.1094    -241703.37747   -167421.83146                  20507094.1484
        26.7504         23.0004
  21566161.2344    -391972.44847   -270224.90846                  21566163.9304
        22.7504         16.5004
  24294242.9534    1437281.76645    985016.85044                  24294246.7504
        11.2504          4.0004
  24117437.2034    -835769.17345   -574355.71043                  24117439.0784
         8.2504          2.5004
                   -221064.448 5   -172257.341 5  23389362.180    23389364.953
         9.500           6.500
  20883051.9614     414213.67747    294810.36146                  20883054.3524
        23.5004         21.5004
  23155514.7274    -941216.25746   -649387.43845                  23155517.1764
        12.2504          5.2504
 95  4 12 16  3 15.0000000  0  8G14G18G19G22G27G28G29G31
  24249653.5314    1132730.40245    761488.72342                  24249657.3404
         7.7504          2.0004
  20505704.9844    -248990.56247   -173100.15446                  20505707.1294
        26.2504         23.0004
  21563504.4224    -405934.65447   -281104.53146                  21563507.3164
        23.0004         17.0004
  24304967.9064    1493643.65245   1028935.17645                  24304971.2344
        11.0004          4.5004
  24111464.3284    -867156.72645   -598813.55143                  24111467.8204
         8.2504          2.5004
                   -227356.941 5   -177160.576 5  23388164.844    23388167.379
         9.750           6.750
  20886479.6564     432224.58047    308844.82946                  20886481.8834
        24.5004         19.7504
  23148872.7114    -976121.03446   -676585.94445                  23148876.3674
        12.2504          5.2504
 95  4 12 16  3 30.0000000  0  8G14G18G19G22G27G28G29G31
  24260924.0164    1191957.84645    807639.93441                  24260929.5704
         8.0004          1.2504
  20504348.3754    -256121.42447   -178656.66446                  20504350.5314
        26.2504         22.2504
  21560865.3524    -419803.33647   -291911.29046                  21560868.0944
        23.0004         17.7504
  24315708.3364    1550082.26045   1072913.28545                  24315712.0274
        11.5004          5.2504
  24105505.3204    -898471.89945   -623214.95243                  24105510.2424
         8.2504          2.5004
                   -233474.907 5   -181927.815 5  23387000.539    23387002.945
         9.750           6.500
  20889937.9534     450398.27247    323006.14146                  20889939.7344
        24.5004         21.0004
  23142252.6804   -1010907.14446   -703691.97145                  23142257.0274
        12.2504          5.2504
 95  4 12 16  3 45.0000000  0  8G14G18G19G22G27G28G29G31
  24272203.4534    1251234.41145    853829.41441                  24272209.3364
         7.5004          1.2504
  20503019.0314    -263105.10747   -184098.48946                  20503021.0004
        26.0004         21.5004
  21558242.7814    -433585.03547   -302650.27346                  21558245.1374
        23.2504         17.0004
  24326460.9924    1606588.21845   1116943.88644                  24326464.9654
        11.5004          4.0004
  24099558.2584    -929725.50845   -647568.39843                  24099562.5944
         8.5004          2.5004
                   -239424.163 5   -186563.587 5  23385868.625    23385870.715
         9.750           6.250
  20893426.6334     468729.37247    337290.10746                  20893428.0864
        24.7504         20.2504
  23135654.4924   -1045579.55346   -730709.43545                  23135657.7624
        12.2504          4.5004
 95  4 12 16  4  0.0000000  0  8G14G18G19G22G27G28G29G31
  24283491.2194    1310552.10444    900050.95341                  24283495.1914
         7.0004          1.2504
  20501715.2894    -269956.44947   -189437.19546                  20501717.0124
        26.0004         20.2504
  21555634.5784    -447291.94947   -313330.97246                  21555636.8754
        23.2504         16.5004
  24337224.0784    1663150.06045   1161018.03045                  24337227.9454
        11.0004          4.5004
  24093619.7734    -960934.65145   -671887.19843                  24093623.8524
         9.0004          2.5004
                   -245215.749 5   -191076.505 5  23384766.445    23384768.859
        10.000           6.250
  20896942.5314     487206.55847    351687.91846                  20896944.0204
        24.5004         19.7504
  23129076.5784   -1080149.99846   -757647.42945                  23129079.8954
        12.5004          6.0004
 95  4 12 16  4 15.0000000  0  8G14G18G19G22G27G28G29G31
  24294786.1484    1369906.04344    946300.77441                  24294791.1994
         6.7504          1.2504
  20500435.2974    -276683.16647   -194678.78646                  20500437.2194
        26.0004         20.2504
  21553038.6804    -460931.87347   -323959.46746                  21553040.9414
        23.2504         16.5004
  24347998.0084    1719763.49545   1205132.37644                  24348000.7974
        11.2504          4.0004
  24087687.5394    -992107.60545   -696177.79342                  24087690.0594
         9.0004          2.0004
                   -250856.225 5   -195471.673 5  23383693.383    23383695.453
        10.000           6.250
  20900485.0864     505823.07147    366194.28346                  20900486.5984
        24.2504         19.7504
  23122515.9774   -1114624.17846   -784510.39345                  23122518.6254
        12.2504          5.2504
 95  4 12 16  4 30.0000000  0  8G14G18G19G22G27G28G29G31
  24306086.8204    1429291.68344    992575.23541                  24306093.2304
         6.7504          1.2504
  20499178.6484    -283288.96747   -199826.16046                  20499180.5234
        26.2504         21.0004
  21550455.6804    -474506.64747   -334537.20346                  21550457.9414
        23.5004         16.5004
  24358779.9304    1776424.05445   1249283.44545                  24358782.1684
        11.0004          4.5004
  24081761.9224   -1023249.32045   -720444.06143                  24081765.4614
         9.2504          2.5004
                   -256349.611 5   -199752.237 5  23382647.984    23382650.520
        10.250           6.500
  20904052.8984     524573.15147    380804.73146                  20904054.7274
        24.2504         18.2504
  23115973.1804   -1149008.65146   -811303.46845                  23115977.1174
        12.7504          6.0004
 95  4 12 16  4 45.0000000  0  8G14G18G19G22G27G28G29G31
  24317393.0634    1488704.18944   1038870.65641                  24317398.0434
         6.7504          0.7504
  20497944.0554    -289775.69947   -204880.75246                  20497945.7774
        26.2504         21.0004
  21547884.7974    -488018.92847   -345066.24046                  21547886.9414
        23.5004         15.7504
  24369569.7504    1833124.38345   1293465.51744                  24369573.4654
        11.5004          4.0004
  24075841.0314   -1054362.80745   -744688.30743                  24075844.8754
         9.0004          2.5004
                   -261699.130 5   -203920.679 5  23381629.977    23381632.469
        10.250           6.500
  20907645.3134     543451.41347    395515.06146                  20907647.3404
        23.7504         19.0004
  23109446.3834   -1183307.69446   -838029.97945                  23109449.7114
        13.0004          4.5004
 95  4 12 16  5  0.0000000  0  8G14G18G19G22G27G28G29G31
  24328703.3594    1548139.56344   1085183.89041                  24328710.4304
         6.7504          1.2504
  20496732.4844    -296143.53247   -209842.69346                  20496734.3014
        26.5004         21.5004
  21545324.3444    -501472.27147   -355549.34946                  21545326.4414
        23.5004         16.5004
  24380366.2734    1889858.93345   1337674.23644                  24380368.4304
        11.0004          4.0004
  24069924.7344   -1085451.25845   -768913.03643                  24069928.7194
         9.0004          3.2504
                   -266908.498 5   -207979.918 5  23380638.781    23380641.133
        10.250           6.500
  20911261.6094     562455.28847    410323.27646                  20911263.7424
        24.0004         20.2504
  23102935.4064   -1217525.03746   -864692.83945                  23102938.3364
        13.0004          5.2504
 95  4 12 16  5 15.0000000  0  8G14G18G19G22G27G28G29G31
  24340017.0394    1607592.00844   1131510.46341                  24340022.6054
         6.5004          1.2504
  20495542.8204    -302393.84947   -214713.06946                  20495544.9884
        26.2504         19.0004
  21542773.6884    -514875.13147   -365993.13246                  21542775.8094
        22.7504         15.0004
  24391168.0554    1946621.83845   1381905.04943                  24391170.2934
        11.0004          3.2504
  24064012.7974   -1116521.17845   -793123.40042                  24064017.7424
         9.0004          2.0004
                   -271983.267 5   -211934.276 5  23379672.875    23379675.609
        10.000           6.000
  20914901.0084     581579.37647    425225.15746                  20914903.1524
        23.7504         17.0004
  23096438.1254   -1251665.32646   -891295.62545                  23096441.1954
        12.7504          4.5004
 95  4 12 16  5 30.0000000  0  8G14G18G19G22G27G28G29G31
  24351332.8834    1667059.02144   1177848.28242                  24351337.5234
         6.7504          2.0004
  20494376.1644    -308524.78547   -219490.41946                  20494378.5314
        26.0004         19.7504
  21540231.7344    -528232.52147   -376401.47446                  21540233.8914
        22.2504         15.0004
  24401974.6954    2003413.37445   1426158.17842                  24401976.9104
        10.2504          2.0004
  24058103.3834   -1147572.52945   -817319.19042                  24058107.8954
         8.5004          2.0004
                   -276923.638 5   -215783.904 5  23378732.594    23378735.164
         9.750           6.000
  20918563.0004     600823.59647    440220.64946                  20918564.9574
        23.7504         18.2504
  23089955.7584   -1285729.67246   -917839.24544                  23089958.6884
        12.7504          4.0004
 95  4 12 16  5 45.0000000  0  8G14G18G19G22G27G28G29G31
  24362651.9144    1726539.26444   1224196.49441                  24362656.2384
         7.0004          1.2504
  20493231.7424    -314539.05247   -224176.85946                  20493233.9104
        26.2504         20.2504
  21537698.0634    -541547.01347   -386776.39546                  21537700.4774
        22.0004         14.5004
  24412786.6414    2060229.36445   1470430.34144                  24412790.0744
        10.0004          4.0004
  24052196.8594   -1178610.02345   -841504.25543                  24052200.0944
         8.0004          2.5004
                   -281731.862 5   -219530.570 5  23377817.648    23377819.953
         9.500           6.000
  20922247.4304     620185.38547    455307.75646                  20922249.0944
        24.2504         19.0004
  23083487.1484   -1319720.74746   -944325.79545                  23083490.6884
        12.5004          5.2504
 95  4 12 16  6  0.0000000  0  8G14G18G19G22G27G28G29G31
  24373972.4304    1786031.89844   1270554.38541                  24373977.3284
         7.2504          1.2504
  20492110.5314    -320432.34947   -228769.03846                  20492112.6764
        26.7504         21.5004
  21535172.4304    -554820.24947   -397119.16846                  21535174.8794
        22.7504         16.5004
  24423602.6804    2117068.80045   1514720.83042                  24423607.0514
        10.0004          2.0004
  24046294.3674   -1209632.84745   -865677.88243                  24046297.8714
         9.0004          2.5004
                   -286406.648 5   -223173.254 5  23376928.031    23376930.129
         9.500           6.250
  20925954.6024     639665.37347    470486.96146                  20925956.0314
        24.5004         18.2504
  23077033.1094   -1353637.18646   -970754.15945                  23077036.5904
        13.0004          4.5004
 95  4 12 16  6 15.0010000  0  8G14G18G19G22G27G28G29G31
  24385296.1614    1845536.11644   1316921.23241                  24385299.5834
         7.0004          1.2504
  20491011.9974    -326204.67747   -233266.95246                  20491013.9424
        26.7504         21.0004
  21532653.8964    -568054.93847   -407431.90346                  21532656.4034
        22.5004         15.0004
  24434424.3414    2173934.76745   1559031.91043                  24434427.9504
        10.0004          2.5004
  24040393.2554   -1240643.53845   -889842.03943                  24040395.6104
         9.0004          3.2504
                   -290951.257 5   -226714.497 5  23376063.427    23376065.478
         9.500           6.000
  20929683.2634     659259.54747    485755.13846                  20929684.8104
        24.5004         19.7504
  23070592.4894   -1387483.62146   -997127.99945                  23070596.3454
        13.0004          5.2504
 95  4 12 16  6 30.0010000  0  8G14G18G19G22G27G28G29G31
  24396620.3024    1905045.24344   1363291.96242                  24396624.3454
         6.7504          2.0004
  20489937.6144    -331850.28647   -237666.11846                  20489939.8064
        26.5004         20.2504
  21530143.8644    -581245.58747   -417710.32346                  21530146.4664
        22.7504         17.0004
  24445249.6384    2230820.38645   1603358.37943                  24445253.1654
        10.2504          2.5004
  24034495.6774   -1271634.39445   -913990.73142                  24034498.8064
         9.0004          2.0004
                   -295363.912 5   -230152.929 5  23375223.622    23375225.599
         9.750           6.250
  20933433.0994     678966.18947    501110.95946                  20933434.9274
        24.5004         19.7504
  23064166.0524   -1421255.68146  -1023443.88145                  23064170.2824
        13.2504          5.2504
 95  4 12 16  6 45.0010000  0  8G14G18G19G22G27G28G29G31
  24407947.4974    1964566.13044   1409671.78243                  24407950.8024
         6.7504          2.5004
  20488888.2474    -337365.23247   -241963.47046                  20488890.2864
        26.2504         21.0004
  21527642.3884    -594389.99247   -427952.70546                  21527644.9544
        22.7504         15.7504
  24456078.7864    2287730.70845   1647704.05743                  24456081.6924
         9.7504          2.5004
  24028602.2314   -1302604.78345   -938123.49243                  24028606.0174
         9.2504          3.2504
                   -299641.843 5   -233486.374 5  23374409.817    23374411.817
        10.000           6.250
  20937205.2004     698788.15947    516556.64346                  20937206.9584
        24.5004         20.2504
  23057753.8804   -1454952.45446  -1049701.08145                  23057757.3724
        13.7504          6.0004
 95  4 12 16  7  0.0010000  0  8G14G18G19G22G27G28G29G31
  24419275.0754    2024097.99144   1456060.21243                  24419277.8884
         6.7504          2.5004
  20487863.5444    -342748.91847   -246158.54846                  20487865.7004
        26.2504         21.0004
  21525149.9034    -607488.24147   -438159.12146                  21525152.6464
        22.7504         17.0004
  24466913.5284    2344666.76345   1692069.78943                  24466916.9624
         9.7504          2.5004
  24022712.3334   -1333554.67945   -962240.29043                  24022714.7714
         9.2504          2.5004
                   -303784.417 5   -236714.341 5  23373621.396    23373623.677
        10.000           6.250
  20940999.1224     718726.64247    532093.12246                  20941001.1964
        24.5004         20.2504
  23051356.4424   -1488571.99446  -1075898.10245                  23051359.6774
        14.0004          6.5004
 95  4 12 16  7 15.0010000  0  8G14G18G19G22G27G28G29G31
  24430606.0444    2083638.35344   1502455.27841                  24430609.9464
         7.0004          1.2504
  20486863.1464    -348006.57747   -250255.41946                  20486865.3844
        26.5004         21.0004
  21522666.3334    -620540.35247   -448329.59046                  21522669.0054
        23.0004         17.0004
  24477753.7164    2401630.54145   1736457.13143                  24477755.7904
        10.0004          2.5004
  24016826.1304   -1364486.09245   -986342.64643                  24016830.7244
         9.0004          3.2504
                   -307792.746 5   -239837.705 5  23372858.646    23372860.896
        10.000           6.500
  20944815.3724     738780.16947    547719.24646                  20944817.2714
        24.5004         21.0004
  23044973.7084   -1522114.40646  -1102035.04545                  23044976.8254
        14.7504          6.5004
 95  4 12 16  7 30.0010000  0  8G14G18G19G22G27G28G29G31
  24441937.9664    2143188.04644   1548857.58741                  24441943.3454
         6.7504          1.2504
  20485885.6774    -353141.95447   -254257.00946                  20485887.6104
        26.7504         21.0004
  21520191.5214    -633545.44947   -458463.42146                  21520194.0634
        23.0004         16.5004
  24488598.6614    2458624.00445   1780867.61543                  24488600.1264
         9.7504          2.5004
  24010943.5914   -1395398.60245  -1010430.26743                  24010947.4584
         9.0004          2.5004
                   -311666.220 5   -242855.982 5  23372121.599    23372123.829
        10.000           6.750
  20948652.7784     758945.78147    563432.70746                  20948654.5364
        25.0004         21.0004
  23038605.2394   -1555581.23946  -1128113.06845                  23038609.1304
        14.7504          6.0004
 95  4 12 16  7 45.0010000  0  8G14G18G19G22G27G28G29G31
  24453272.0284    2202747.64144   1595267.58041                  24453276.6464
         6.7504          1.2504
  20484931.7314    -358157.27047   -258165.04846                  20484933.6184
        27.2504         21.0004
  21517726.6144    -646498.52947   -468556.72146                  21517728.8294
        23.0004         15.7504
  24499449.9034    2515646.94245   1825301.06443                  24499452.6464
         9.2504          2.5004
  24005064.3964   -1426292.12645  -1034503.16043                  24005066.6814
         8.5004          2.5004
                   -315403.776 5   -245768.362 5  23371410.169    23371412.856
         9.750           6.750
  20952511.7244     779223.66647    579233.65446                  20952513.4934
        24.7504         20.2504
  23032250.6534   -1588972.21046  -1154131.98745                  23032253.2674
        14.2504          6.0004
 95  4 12 16  8  0.0010000  0  8G14G18G19G22G27G28G29G31
  24464607.2474    2262318.07244   1641686.06742                  24464612.3924
         6.7504          2.0004
  20484000.1144    -363053.34347   -261980.17146                  20484001.7434
        27.7504         21.5004
  21515272.0444    -659395.57947   -478606.36546                  21515274.4234
        22.7504         15.7504
  24510306.4194    2572700.10645   1869758.03043                  24510309.5364
         9.0004          2.5004
  23999189.8254   -1457163.34845  -1058558.61943                  23999193.0244
         8.7504          2.5004
                   -319003.836 5   -248573.588 5  23370724.888    23370727.524
         9.500           6.750
  20956391.9194     799616.04047    595123.81446                  20956393.7714
        24.2504         20.2504
  23025912.0834   -1622282.98346  -1180088.42945                  23025915.7394
        14.7504          6.0004
 95  4 12 16  8 15.0010000  0  8G14G18G19G22G27G28G29G31
  24475944.7244    2321895.67844   1688110.15141                  24475950.0794
         6.7504          1.2504
  20483090.6464    -367832.24547   -265703.99046                  20483092.3334
        27.5004         22.2504
  21512829.0754    -672235.25747   -488611.30146                  21512831.3604
        22.7504         15.7504
  24521169.0134    2629786.05245   1914240.60843                  24521172.0484
         9.0004          2.5004
  23993319.7004   -1488010.21945  -1082595.15143                  23993323.6034
         8.2504          2.5004
                   -322466.815 5   -251272.010 5  23370065.927    23370068.657
         9.250           6.500
  20960294.2394     820122.98447    611103.24546                  20960296.1264
        24.2504         21.0004
  23019588.1534   -1655515.09446  -1205983.56245                  23019591.2824
        14.7504          6.5004
 95  4 12 16  8 30.0010000  0  8G14G18G19G22G27G28G29G31
  24487283.7864    2381481.85444   1734540.89741                  24487287.8764
         7.0004          1.2504
  20482203.1614    -372496.68147   -269338.61146                  20482204.8724
        27.7504         22.2504
  21510397.2554    -685014.27947   -498568.97046                  21510399.7744
        22.7504         15.7504
  24532039.3724    2686906.52545   1958750.02042                  24532041.5874
         8.7504          2.0004
  23987454.9814   -1518831.12545  -1106611.39243                  23987460.0914
         8.5004          3.2504
                   -325792.966 5   -253863.816 5  23369432.880    23369435.634
         9.250           6.750
  20964218.7084     840745.03147    627172.36946                  20964220.5014
        24.2504         20.2504
  23013279.0604   -1688669.36246  -1231818.03745                  23013282.0834
        14.5004          6.0004
 95  4 12 16  8 45.0010000  0  8G14G18G19G22G27G28G29G31
  24498623.981       27806.43014
         7.000
  20481336.7244    -377048.79247   -272885.70446                  20481338.6344
        27.5004         21.0004
  21507976.8334    -697733.55147   -508480.08146                  21507979.3294
        22.7504         16.5004
  24542914.9354    2744059.53445   2003284.84343                  24542916.4934
         8.2504          2.5004
  23981595.5134   -1549626.08545  -1130607.45743                  23981598.9814
         9.0004          3.2504
                   -328981.273 5   -256348.206 5  23368826.575    23368829.118
         9.750           6.750
  20968165.3334     861483.40447    643332.13846                  20968167.0444
        24.7504         20.2504
  23006985.2244   -1721742.91146  -1257589.62345                  23006988.9274
        14.7504          6.0004
 95  4 12 16  9  0.0010000  0  8G14G18G19G22G27G28G29G31
  24509965.489       87406.644 4
         6.750
  20480492.0364    -381488.38547   -276345.12446                  20480494.2864
        26.7504         21.0004
  21505567.1774    -710395.59147   -518346.59946                  21505569.7314
        22.0004         15.7504
  24553796.3414    2801245.74745   2047845.51142                  24553800.0444
         7.7504          2.0004
  23975740.7394   -1580393.48445  -1154582.03243                  23975743.8454
         8.7504          2.5004
                   -332030.868 5   -258724.503 5  23368246.325    23368248.630
         9.750           6.750
  20972134.3334     882340.80047    659584.64846                  20972136.1034
        24.5004         20.2504
  23000707.2164   -1754732.60746  -1283295.85645                  23000710.8254
        14.0004          6.5004
 95  4 12 16  9 15.0010000  0  8G14G18G19G22G27G28G29G31
  24521308.4354     147014.14544
         6.7504
  20479667.8024    -385818.14347   -279718.96246                  20479670.2044
        26.7504         21.0004
  21503168.6064    -723000.71447   -528168.76246                  21503171.2314
        22.2504         15.7504
  24564684.8804    2858465.20545   2092432.08442                  24564689.4854
         7.7504          2.0004
  23969890.6064   -1611135.05645  -1178536.49443                  23969894.4504
         8.7504          2.5004
                   -334943.310 5   -260993.937 5  23367691.958    23367694.427
        10.000           6.750
  20976125.7784     903315.57147    675928.61346                  20976127.3964
        25.0004         21.0004
  22994445.8884   -1787638.89346  -1308937.11045                  22994449.6034
        14.2504          6.0004
 95  4 12 16  9 30.0010000  0  8G14G18G19G22G27G28G29G31
  24532654.1224     206634.95544
         6.7504
  20478865.9974    -390032.11247   -283002.57246                  20478868.2004
        26.7504         20.2504
  21500781.1064    -735546.37447   -537944.59546                  21500783.7434
        22.0004         17.0004
  24575580.4424    2915720.40745   2137046.50042                  24575584.4504
         7.7504          2.0004
  23964046.2474   -1641846.99745  -1202467.84443                  23964051.0524
         8.5004          2.5004
                   -337714.406 5   -263153.219 5  23367164.802    23367167.192
        10.000           6.500
  20980139.7314     924410.47447    692366.19846                  20980141.5834
        24.5004         19.0004
  22988200.7004   -1820456.40546  -1334509.18645                  22988204.2284
        14.0004          6.5004
 95  4 12 16  9 45.0010000  0  8G14G18G19G22G27G28G29G31
  24544001.7394     266265.91144     24778.78851                  24544009.3964
         6.7504          1.2504
  20478087.3644    -394124.08347   -286191.11746                  20478089.5794
        27.5004         21.0004
  21498404.8414    -748034.94547   -547675.94646                  21498407.4784
        22.5004         16.5004
  24586481.8564    2973007.45345   2181685.72541                  24586485.4894
         8.0004          1.2504
  23958207.2164   -1672528.22045  -1226375.32043                  23958211.9384
         8.2504          3.2504
                   -340343.816 5   -265202.100 5  23366664.192    23366666.688
        10.250           6.750
  20984177.1854     945627.17447    708898.68446                  20984179.3644
        24.5004         21.0004
  22981972.3494   -1853184.51246  -1360011.59645                  22981975.6534
        13.2504          5.2504
 95  4 12 16 10  0.0010000  0  7G18G19G22G27G28G29G31
  20477332.3644    -398092.15147   -289283.11546                  20477334.3104
        27.7504         21.5004
  21496038.9664    -760467.92147   -557363.96246                  21496041.6964
        22.7504         16.5004
  24597388.8104    3030325.55345   2226349.17242                  24597393.4154
         7.7504          2.0004
  23952374.3494   -1703177.15245  -1250257.56442                  23952379.1654
         8.2504          2.0004
                   -342830.026 5   -267139.396 5  23366191.122    23366193.556
        10.000           6.500
  20988238.1144     966967.93547    725527.84146                  20988240.1064
        24.0004         19.0004
  22975762.4114   -1885819.02346  -1385441.06345                  22975765.3994
        13.7504          4.5004
 95  4 12 16 10 15.0010000  0  7G18G19G22G27G28G29G31
  20476601.8334    -401931.59048   -292274.88146                  20476603.5214
        28.2504         22.2504
  21493683.3644    -772846.63147   -567009.70446                  21493686.2004
        22.7504         17.0004
  24608303.5994    3087677.84345   2271039.24543                  24608309.2354
         8.5004          2.5004
  23946548.1854   -1733791.50745  -1274112.89343                  23946553.0484
         8.0004          2.5004
                   -345171.340 5   -268963.788 5  23365745.622    23365748.231
        10.000           6.750
  20992323.0834     988434.44347    742254.98246                  20992325.3564
        23.7504         20.2504
  22969570.7084   -1918357.80446  -1410795.93845                  22969573.2164
        14.0004          6.0004
 95  4 12 16 10 30.0010000  0  7G18G19G22G27G28G29G31
  20475896.2554    -405638.90048   -295163.69046                  20475897.8134
        28.7504         23.0004
  21491337.9664    -785171.71347   -576613.65946                  21491340.4504
        23.0004         17.0004
  24619223.5444    3145063.93645   2315755.68341                  24619230.2474
         8.7504          1.2504
  23940729.4354   -1764372.43945  -1297942.16943                  23940732.7744
         8.5004          3.2504
                   -347368.042 5   -270675.504 5  23365327.442    23365330.044
        10.000           6.750
  20996431.2314    1010024.51847    759078.40846                  20996433.6104
        23.7504         20.2504
  22963396.2944   -1950802.12746  -1436077.21945                  22963399.6924
        13.7504          6.5004
 95  4 12 16 10 45.0010000  0  7G18G19G22G27G28G29G31
  20475216.5364    -409211.17348   -297947.27646                  20475218.2714
        28.5004         23.0004
  21489002.3254    -797444.76447   -586177.06446                  21489004.9384
        23.0004         17.0004
  24630148.9744    3202479.43745   2360494.98642                  24630152.7714
         8.5004          2.0004
  23934916.5604   -1794922.13045  -1321747.11243                  23934919.4784
         8.7504          2.5004
                   -349419.684 5   -272274.185 5  23364937.005    23364939.532
         9.750           6.750
  21000563.0674    1031735.89447    775996.35846                  21000565.2944
        23.7504         20.2504
  22957240.7714   -1983151.38346  -1461284.40245                  22957244.7674
        13.7504          6.5004
 95  4 12 16 11  0.0010000  0  7G18G19G22G27G28G29G31
  20474562.0674    -412650.78048   -300627.48546                  20474563.9314
        28.5004         23.0004
  21486675.7084    -809672.01347   -595704.77746                  21486678.1344
        23.0004         17.7504
  24641080.0444    3259919.83545   2405253.72043                  24641083.4074
         9.0004          2.5004
  23929108.3104   -1825444.50745  -1345530.79244                  23929111.1694
         9.0004          4.0004
                   -351328.814 5   -273761.801 5  23364573.794    23364576.310
         9.750           6.750
  21004717.0214    1053565.40747    793006.36046                  21004719.2944
        23.7504         20.2504
  22951102.1144   -2015409.03746  -1486420.22545                  22951106.4274
        13.5004          6.0004
 95  4 12 16 11 15.0010000  0  7G18G19G22G27G28G29G31
  20473933.7634    -415952.47648   -303200.23546                  20473935.8374
        28.2504         22.2504
  21484358.8884    -821847.20347   -605191.93346                  21484361.5014
        23.0004         17.7504
  24652017.2244    3317393.32345   2450038.24743                  24652021.1264
         9.0004          2.5004
  23923306.0604   -1855934.63145  -1369289.27843                  23923308.3454
         9.0004          3.2504
                   -353089.611 5   -275133.842 5  23364238.677    23364241.267
         9.750           6.750
  21008894.3494    1075516.65947    810111.22546                  21008896.4464
        24.0004         19.7504
  22944981.8564   -2047570.77546  -1511481.30645                  22944985.5244
        13.7504          6.0004
 95  4 12 16 11 30.0010000  0  7G18G19G22G27G28G29G31
  20473330.9664    -419119.81248   -305668.28646                  20473332.9704
        28.0004         23.0004
  21482051.6064    -833972.35447   -614640.09746                  21482054.1384
        23.2504         18.2504
  24662959.6064    3374897.63345   2494846.79043                  24662964.1424
         9.0004          2.5004
  23917510.3804   -1886394.50445  -1393024.23543                  23917513.5324
         9.0004          2.5004
                   -354703.872 5   -276391.707 5  23363931.544    23363934.009
         9.750           6.750
  21013093.4894    1097583.14947    827305.87846                  21013095.5994
        24.2504         20.2504
  22938879.7004   -2079638.64746  -1536469.24745                  22938883.6614
        13.5004          6.5004
 95  4 12 16 11 45.0010000  0  7G18G19G22G27G28G29G31
  20472753.8564    -422151.61547   -308030.72746                  20472755.9664
        27.7504         21.0004
  21479753.4974    -846048.68547   -624050.21546                  21479755.8764
        23.5004         17.7504
  24673907.4274    3432430.67145   2539677.72344                  24673911.2824
         9.2504          4.0004
  23911719.1144   -1916823.20845  -1416734.88744                  23911722.0914
         9.0004          4.0004
                   -356170.619 5   -277534.618 5  23363652.450    23363654.954
        10.000           6.750
  21017314.7784    1119766.44747    844591.55646                  21017316.9464
        24.0004         20.2504
  22932795.0754   -2111612.78646  -1561384.15445                  22932798.6734
        13.5004          5.2504
 95  4 12 16 12  0.0010000  0  7G18G19G22G27G28G29G31
  20472203.3254    -425045.23647   -310285.49646                  20472205.3414
        27.7504         21.0004
  21477466.0674    -858069.18647   -633416.83346                  21477468.5284
        23.5004         17.0004
  24684862.2314    3489997.69845   2584535.11343                  24684864.9744
         9.0004          2.5004
  23905935.2714   -1947217.00445  -1440418.36843                  23905938.6574
         9.0004          3.2504
                   -357485.244 5   -278558.989 5  23363402.317    23363404.993
        10.000           7.000
  21021559.4274    1142071.94047    861972.45646                  21021561.5134
        24.2504         20.2504
  22926729.5754   -2143488.68146  -1586222.49245                  22926733.2204
        14.0004          6.0004
 95  4 12 16 12 15.0010000  0  7G18G19G22G27G28G29G31
  20471678.3884    -427803.75347   -312434.98746                  20471679.9934
        27.7504         19.7504
  21475189.7394    -870031.75847   -642738.30346                  21475192.0364
        23.2504         18.2504
  24695823.7164    3547597.73645   2629418.25142                  24695827.1614
         9.0004          2.0004
  23900158.4974   -1977575.41745  -1464074.24043                  23900162.8804
         8.5004          2.5004
                   -358648.463 5   -279465.386 5  23363181.013    23363183.567
        10.250           7.000
  21025827.3104    1164500.16647    879448.99546                  21025829.3494
        24.0004         20.2504
  22920682.3644   -2175267.80946  -1610985.42645                  22920685.8334
        14.0004          6.5004
 95  4 12 16 12 30.0010000  0  7G18G19G22G27G28G29G31
  20471179.3334    -430426.29747   -314478.53546                  20471181.0094
        27.7504         19.7504
  21472924.4584    -881935.52447   -652013.95946                  21472926.7904
        23.0004         17.0004
  24706790.3254    3605229.72245   2674326.29341                  24706793.5604
         8.7504          1.2504
  23894387.2554   -2007899.89845  -1487703.72943                  23894390.1384
         8.2504          2.5004
                   -359660.716 5   -280254.150 5  23362988.497    23362990.903
        10.250           7.000
  21030119.1064    1187052.21947    897022.01746                  21030121.1574
        24.2504         21.0004
  22914653.3884   -2206950.50146  -1635673.21645                  22914656.9624
        14.0004          6.5004
 95  4 12 16 12 45.0010000  0  7G18G19G22G27G28G29G31
  20470705.8724    -432914.41447   -316417.32446                  20470707.4664
        27.7504         21.0004
  21470670.4814    -893780.68547   -661243.94446                  21470672.7674
        22.5004         16.5004
  24717762.5284       7685.59355
         8.2504
  23888622.9274   -2038193.15245  -1511308.83543                  23888627.0284
         8.0004          2.5004
                   -360521.516 5   -280924.893 5  23362824.614    23362827.255
        10.250           6.750
  21034434.3104    1209729.85047    914692.88746                  21034436.2084
        24.2504         20.2504
  22908642.3414   -2238536.42446  -1660285.60445                  22908645.4814
        13.7504          6.5004
 95  4 12 16 13  0.0010000  0  6G18G19G27G28G29G31
  20470257.9584    -435268.98048   -318252.05246                  20470259.3994
        28.5004         20.2504
  21468427.0364    -905567.98247   -670428.83546                  21468429.4154
        22.2504         15.7504
  23882863.9664   -2068454.12545  -1534888.80343                  23882869.9194
         7.7504          3.2504
                   -361229.547 5   -281476.601 5  23362690.114    23362692.431
        10.250           6.750
  21038774.4974    1232536.94947    932464.64846                  21038776.2314
        24.2504         19.7504
  22902650.8804   -2270021.56146  -1684819.45545                  22902654.5834
        14.2504          7.2504
 95  4 12 16 13 15.0010000  0  6G18G19G27G28G29G31
  20469835.6774    -437488.16548   -319981.29146                  20469837.1424
        28.7504         19.0004
  21466195.1854    -917295.63347   -679567.25746                  21466197.7394
        22.0004         16.5004
  23877112.0524   -2098680.57745  -1558441.87543                  23877116.2944
         8.2504          3.2504
                   -361783.276 5   -281908.078 5  23362584.513    23362587.044
        10.000           6.750
  21043140.1464    1255478.48847    950341.16046                  21043141.9854
        24.2504         18.2504
  22896679.5284   -2301402.83546  -1709272.39045                  22896683.4784
        14.5004          6.0004
 95  4 12 16 13 30.0010000  0  6G18G19G27G28G29G31
  20469438.9584    -439572.47448   -321605.41946                  20469440.4934
        28.5004         20.2504
  21463975.4504    -928962.00847   -688657.93646                  21463978.0524
        22.0004         15.7504
  23871366.9814   -2128874.22045  -1581969.37643                  23871371.3534
         8.7504          3.2504
                   -362184.132 5   -282220.421 5  23362507.911    23362510.470
        10.000           6.500
  21047531.4194    1278555.42747    968323.18546                  21047533.7634
        23.7504         18.2504
  22890727.9894   -2332678.53446  -1733643.04345                  22890732.4544
        14.7504          7.2504
 95  4 12 16 13 45.0010000  0  6G18G19G27G28G29G31
  20469068.8414    -441517.83148   -323121.28246                  20469070.9384
        28.5004         21.0004
  21461767.6144    -940564.16947   -697698.56946                  21461770.0284
        21.7504         16.5004
  23865628.8174   -2159033.15445  -1605469.81643                  23865633.3644
         9.2504          3.2504
                   -362430.641 5   -282412.497 5  23362461.067    23362463.517
         9.750           6.500
  21051949.6464    1301773.97747    986415.55246                  21051952.0014
        23.7504         20.2504
  22884796.4974   -2363848.41946  -1757931.25745                  22884800.1184
        14.7504          6.5004
 95  4 12 16 14  0.0010000  0  6G18G19G27G28G29G31
  20468724.8644    -443323.58747   -324528.36246                  20468727.0444
        27.7504         21.5004
  21459572.1064    -952100.64247   -706688.02946                  21459574.7904
        21.7504         17.0004
  23859896.4034   -2189157.54245  -1628943.37443                  23859900.0954
         9.5004          2.5004
                   -362524.548 5   -282485.664 5  23362443.146    23362445.587
         9.750           6.500
  21056395.4664    1325136.23847   1004619.90846                  21056397.9624
        23.7504         19.7504
  22878884.8494   -2394913.79746  -1782138.03445                  22878888.3884
        15.0004          7.7504
 95  4 12 16 14 15.0010000  0  6G18G19G27G28G29G31
  20468408.5214    -444986.64347   -325824.25246                  20468410.8534
        27.5004         22.2504
  21457389.9814    -963567.72447   -715623.41446                  21457392.9584
        21.5004         16.5004
  23854171.1694   -2219242.84145  -1652386.43642                  23854175.0364
         9.5004          2.0004
                   -362463.752 5   -282438.280 5  23362454.708    23362457.165
         9.750           6.250
  21060868.9744    1348644.79047   1022938.24646                  21060871.2594
        24.2504         21.5004
  22872993.6924   -2425872.95446  -1806262.03445                  22872997.9934
        15.5004          7.7504
 95  4 12 16 14 30.0010000  0  6G18G19G27G28G29G31
  20468118.9744    -446507.92847   -327009.66446                  20468121.4354
        27.7504         21.0004
  21455221.0914    -974965.56647   -724504.84446                  21455223.9154
        21.7504         16.5004
  23848452.8414   -2249289.89545  -1675799.70743                  23848456.3684
         9.0004          3.2504
                   -362248.239 5   -282270.340 5  23362495.974    23362498.333
        10.000           6.750
  21065370.5284    1372299.11947   1041370.18146                  21065372.8964
        24.5004         21.5004
  22867123.3024   -2456723.44146  -1830301.35845                  22867126.8064
        15.7504          8.5004
 95  4 12 16 14 45.0010000  0  6G18G19G27G28G29G31
  20467856.3334    -447888.79048   -328085.66046                  20467858.2554
        28.2504         20.2504
  21453065.2784    -986296.02447   -733333.76046                  21453068.1034
        22.2504         17.0004
  23842741.9354   -2279300.61945  -1699184.67142                  23842746.3764
         8.7504          2.0004
                   -361879.222 5   -281982.783 5  23362566.146    23362568.646
        10.250           6.500
  21069899.0994    1396096.70847   1059913.74746                  21069901.1854
        25.0004         20.2504
  22861273.1774   -2487467.29946  -1854257.59245                  22861275.9424
        16.0004          7.2504
 95  4 12 16 15  0.0010000  0  6G18G19G27G28G29G31
  20467620.0994    -449130.97548   -329053.59146                  20467621.7044
        28.7504         21.0004
  21450922.2394    -997557.39947   -742108.85446                  21450924.4894
        22.5004         16.5004
  23837038.3494   -2309272.22945  -1722539.17144                  23837042.8024
         9.0004          4.0004
                   -361356.596 5   -281575.525 5  23362665.888    23362668.071
        10.500           6.750
  21074454.6224    1420035.62547   1078567.43846                  21074456.8964
        25.0004         22.2504
  22855442.4584   -2518104.68046  -1878130.86545                  22855445.9154
        15.5004          8.5004
 95  4 12 16 15 15.0010000  0  6G18G19G27G28G29G31
  20467411.5444    -450228.53848   -329908.83246                  20467413.0914
        29.0004         21.5004
  21448794.0674   -1008741.25047   -750823.53346                  21448796.4464
        22.7504         17.0004
  23831344.3254   -2339195.43045  -1745855.90143                  23831348.5564
         9.0004          2.5004
                   -360674.271 5   -281043.840 5  23362795.724    23362797.989
        10.750           6.750
  21079037.6144    1444120.48347   1097334.85146                  21079039.4314
        24.7504         20.2504
  22849634.1614   -2548629.88246  -1901916.73245                  22849637.3254
        15.7504          6.5004
 95  4 12 16 15 30.0010000  0  6G18G19G27G28G29G31
  20467228.6384    -451188.91648   -330657.17746                  20467230.0674
        29.0004         21.0004
  21446679.5284   -1019854.05647   -759482.85446                  21446681.7904
        23.0004         16.5004
  23825657.9744   -2369077.16745  -1769140.38043                  23825661.8064
         9.0004          2.5004
                   -359840.036 5   -280393.781 5  23362954.263    23362956.833
        10.750           6.750
  21083646.2864    1468339.90547   1116207.11746                  21083648.1734
        24.5004         20.2504
  22843844.4664   -2579052.40046  -1925622.57245                  22843847.9354
        15.7504          8.5004
 95  4 12 16 15 45.0010000  0  6G18G19G27G28G29G31
  20467072.7634    -452006.98248   -331294.63446                  20467074.5794
        28.2504         19.7504
  21444579.6144   -1030889.19147   -768081.65146                  21444582.0174
        23.0004         17.7504
  23819981.0674   -2398910.34245  -1792386.99144                  23819984.4314
         9.2504          4.0004
                   -358846.781 5   -279619.807 5  23363143.325    23363145.837
        10.500           6.750
  21088281.4504    1492697.24647   1135186.85846                  21088283.3724
        25.0004         19.0004
  22838076.2394   -2609366.70946  -1949244.10445                  22838079.9314
        15.7504          7.2504
 95  4 12 16 16  0.0010000  0  6G18G19G27G28G29G31
  20466943.8884    -452683.83748   -331822.05946                  20466945.7044
        28.2504         21.0004
  21442494.0834   -1041848.03647   -776621.00246                  21442496.6144
        23.2504         17.7504
  23814313.0054   -2428694.98345  -1815595.79543                  23814316.5914
         9.2504          3.2504
                   -357694.508 5   -278721.923 5  23363362.458    23363364.755
        10.250           6.750
  21092941.8724    1517189.37847   1154271.63146                  21092943.6064
        24.7504         20.2504
  22832327.6534   -2639575.04746  -1972783.04445                  22832331.1694
        15.7504          7.7504
 95  4 12 16 16 15.0010000  0  6G18G19G27G28G29G31
  20466840.9424    -453224.59748   -332243.43146                  20466842.7824
        28.0004         19.7504
  21440422.4424   -1052734.79347   -785104.18446                  21440425.0794
        23.0004         18.2504
  23808653.3494   -2458436.78145  -1838771.20544                  23808658.0604
         9.2504          4.0004
                   -356385.110 5   -277701.609 5  23363611.442    23363614.153
        10.250           6.500
  21097627.9584    1541812.68447   1173458.61646                  21097629.8214
        25.0004         19.7504
  22826599.3884   -2669676.23446  -1996238.50645                  22826602.9504
        16.0004          7.7504
 95  4 12 16 16 30.0010000  0  6G18G19G27G28G29G31
  20466763.7314    -453630.94747   -332560.06746                  20466765.7354
        27.7504         19.7504
  21438363.8024   -1063553.27147   -793534.16046                  21438366.2744
        22.2504         17.0004
  23803000.9194   -2488140.07845  -1861916.62143                  23803004.5634
         9.2504          3.2504
                   -354918.801 5   -276559.029 5  23363890.638    23363892.958
        10.000           6.250
  21102338.3024    1566566.33647   1192747.16846                  21102339.7204
        24.2504         20.2504
  22820892.1774   -2699670.05646  -2019610.30145                  22820895.6814
        15.0004          7.2504
 95  4 12 16 16 45.0010000  0  6G18G19G27G28G29G31
  20466712.1064    -453902.80648   -332771.89746                  20466714.1224
        28.0004         19.0004
  21436317.4424   -1074305.97647   -801912.88446                  21436320.0794
        22.2504         16.5004
  23797355.9424   -2517806.86445  -1885033.58043                  23797361.0634
         9.2504          3.2504
                   -353295.441 5   -275294.074 5  23364199.716    23364201.829
        10.250           6.250
  21107073.4664    1591450.45447   1212137.38846                  21107075.1884
        24.5004         19.0004
  22815204.0444   -2729557.09346  -2042898.88745                  22815207.6184
        14.7504          7.7504
 95  4 12 16 17  0.0010000  0  6G18G19G27G28G29G31
  20466687.2554    -454031.79047   -332872.40346                  20466689.2124
        27.5004         17.7504
  21434284.6694   -1084987.44347   -810236.09546                  21434287.2824
        21.7504         15.0004
  23791718.4424   -2547429.37045  -1908116.04843                  23791721.7824
         9.0004          2.5004
                   -351508.376 5   -273901.552 5  23364539.778    23364541.958
        10.250           6.000
  21111834.8804    1616471.47647   1231634.27746                  21111836.5324
        24.0004         17.7504
  22809538.7634   -2759331.79546  -2066099.92845                  22809542.5364
        15.0004          6.0004
 95  4 12 16 17 15.0010000  0  6G18G19G27G28G29G31
  20466689.6064    -454020.05348   -332863.26246                  20466691.5634
        28.2504         19.7504
  21432264.8724   -1095601.91947   -818507.11146                  21432267.5324
        22.0004         16.5004
  23786088.8024   -2577012.69245  -1931167.96845                  23786093.1144
         9.2504          4.5004
                   -349561.362 5   -272384.386 5  23364910.325    23364912.435
        10.750           6.250
  21116621.7394    1641627.49247   1251236.37346                  21116623.6384
        24.2504         19.0004
  22803893.6064   -2788995.27446  -2089214.32245                  22803897.3804
        14.7504          9.2504
 95  4 12 16 17 30.0010000  0  6G18G19G27G28G29G31
  20466718.8104    -453866.56548   -332743.65846                  20466720.7314
        28.0004         17.7504
  21430256.7474   -1106154.76347   -826730.10446                  21430259.3724
        21.7504         14.5004
  23780465.8804   -2606563.17545  -1954194.34141                  23780469.5134
         9.2504          1.2504
                   -347456.733 5   -270744.400 5  23365310.888    23365312.993
        10.750           6.000
  21121434.3254    1666916.70647   1270942.24146                  21121436.3644
        24.5004         18.2504
  22798269.3334   -2818550.02346  -2112243.97045                  22798273.2244
        14.5004          6.0004
 95  4 12 16 17 45.0010000  0  6G18G19G27G28G29G31
  20466775.5754    -453569.12748   -332511.89046                  20466777.5214
        28.2504         19.7504
  21428260.5524   -1116645.88247   -834904.99246                  21428263.1774
        22.2504         16.5004
  23774848.4584   -2636081.05745  -1977195.22943                  23774850.8964
         9.5004          2.5004
                   -345192.895 5   -268980.359 5  23365741.731    23365743.907
        11.000           6.250
  21126272.7474    1692342.38947   1290754.45346                  21126274.7044
        24.7504         21.0004
  22792666.3644   -2847992.24246  -2135185.94745                  22792670.3374
        15.0004          6.5004
 95  4 12 16 18  0.0010000  0  6G18G19G27G28G29G31
  20466859.3254    -453128.91048   -332168.86846                  20466861.3064
        28.5004         21.0004
  21426275.6224   -1127076.81547   -843032.99046                  21426277.9074
        22.0004         17.0004
  23769237.8174   -2665568.34245  -2000172.36643                  23769241.5094
         9.7504          2.5004
                   -342771.544 5   -267093.580 5  23366202.442    23366204.595
        10.750           6.250
  21131137.4664    1717905.33847   1310673.62746                  21131139.1884
        25.2504         21.0004
  22787085.0834   -2877324.07846  -2158041.91545                  22787087.8724
        15.0004          7.2504
 95  4 12 16 18 15.0010000  0  6G18G19G27G28G29G31
  20466971.4034    -452540.67148   -331710.49846                  20466973.1264
        28.5004         21.0004
  21424302.7084   -1137444.59147   -851111.77746                  21424305.0634
        22.2504         17.0004
  23763633.0834   -2695021.32845  -2023122.69244                  23763635.8134
        10.0004          4.0004
                   -340189.150 5   -265081.310 5  23366693.864    23366696.118
        10.500           6.500
  21136028.9894    1743609.41947   1330702.76946                  21136030.7714
        25.2504         21.0004
  22781525.7244   -2906538.28346  -2180806.21745                  22781528.7124
        14.7504          7.2504
 95  4 12 16 18 30.0010000  0  6G18G19G27G28G29G31
  20467111.4034    -451805.49948   -331137.63946                  20467112.8804
        29.0004         20.2504
  21422340.9814   -1147754.30447   -859145.31746                  21422343.4424
        22.7504         16.5004
  23758034.3174   -2724441.09145  -2046047.17343                  23758038.0674
         9.7504          3.2504
                   -337450.136 5   -262947.007 5  23367214.802    23367217.337
        10.250           6.750
  21140946.1694    1769450.46847   1350838.64546                  21140947.7284
        25.5004         21.0004
  22775988.5054   -2935636.99346  -2203480.52045                  22775991.9854
        15.0004          7.7504
 95  4 12 16 18 45.0010000  0  6G18G19G27G28G29G31
  20467280.8724    -450913.77548   -330442.78846                  20467282.5244
        29.0004         20.2504
  21420392.1144   -1157995.63247   -867125.56846                  21420394.3534
        23.0004         16.5004
  23752444.7314   -2753815.03845  -2068935.95343                  23752447.5674
         9.7504          3.2504
                   -334546.618 5   -260684.526 5  23367767.216    23367769.794
        10.250           6.750
  21145890.7714    1795434.11547   1371085.62646                  21145892.3534
        25.2504         20.2504
  22770474.6464   -2964613.77146  -2226059.79645                  22770478.1494
        15.5004          7.2504
 95  4 12 16 19  0.0010000  0  6G18G19G27G28G29G31
  20467479.8174    -449868.17348   -329628.03346                  20467481.5634
        28.5004         20.2504
  21418455.7164   -1168170.69047   -875054.17546                  21418457.9784
        23.0004         17.7504
  23746863.6854   -2783143.23745  -2091789.07143                  23746867.0714
         9.7504          3.2504
                   -331481.618 5   -258296.208 5  23368350.521    23368352.892
        10.000           6.750
  21150861.3254    1821555.37747   1391439.85846                  21150863.0484
        25.0004         19.7504
  22764983.0214   -2993470.76246  -2248545.75845                  22764986.5714
        15.5004          7.7504
 95  4 12 16 19 15.0010000  0  6G18G19G27G28G29G31
  20467708.2784    -448667.29048   -328692.28146                  20467709.9894
        28.5004         21.0004
  21416532.4504   -1178279.15747   -882930.90046                  21416534.4894
        23.0004         18.2504
  23741291.0134   -2812424.85845  -2114605.91943                  23741294.4354
         9.0004          3.2504
                   -328254.406 5   -255781.495 5  23368964.474    23368967.329
        10.000           6.750
  21155857.7474    1847813.59347   1411900.79546                  21155859.7864
        24.2504         19.7504
  22759515.0674   -3022204.99246  -2270936.04145                  22759518.8644
        15.7504          7.2504
 95  4 12 16 19 30.0010000  0  6G18G19G27G28G29G31
  20467966.5914    -447309.83748   -327634.52646                  20467968.3374
        28.2504         19.7504
  21414621.7164   -1188318.50647   -890753.75746                  21414623.7434
        22.7504         18.2504
  23735728.0214   -2841657.44845  -2137384.53343                  23735732.1924
         9.0004          3.2504
                   -324862.060 5   -253138.107 5  23369610.192    23369612.712
        10.000           6.500
  21160880.8104    1874208.87947   1432468.54746                  21160883.0954
        24.2504         20.2504
  22754071.6614   -3050812.46446  -2293227.55545                  22754075.0834
        16.0004          7.2504
 95  4 12 16 19 45.0010000  0  6G18G19G27G28G29G31
  20468253.9814    -445800.70648   -326458.58546                  20468255.6464
        28.5004         19.7504
  21412724.0524   -1198289.88847   -898523.66746                  21412726.3374
        22.7504         17.0004
  23730175.1774   -2870842.64045  -2160126.24144                  23730179.1614
         9.2504          4.0004
                   -321307.342 5   -250368.182 5  23370286.771    23370289.122
        10.250           6.500
  21165928.4584    1900735.59047   1453138.71046                  21165930.7084
        24.0004         19.7504
  22748651.2864   -3079296.91246  -2315423.20845                  22748654.1574
        16.5004          7.7504
 95  4 12 16 20  0.0010000  0  6G18G19G27G28G29G31
  20468569.0754    -444144.91448   -325168.35546                  20468570.9624
        28.7504         20.2504
  21410839.3964   -1208193.23847   -906240.56146                  21410842.0674
        22.5004         17.0004
  23724630.4194   -2899980.14045  -2182830.77043                  23724633.5604
         9.5004          3.2504
                   -317592.972 5   -247473.870 5  23370993.692    23370995.892
        10.750           6.500
  21171000.9354    1927389.84147   1473908.24846                  21171002.7634
        25.0004         19.0004
  22743253.5754   -3107661.03746  -2337525.11745                  22743257.3024
        16.2504          7.7504
 95  4 12 16 20 15.0010000  0  6G18G19G27G28G29G31
  20468911.5674    -442344.89648   -323765.74446                  20468913.1384
        29.0004         20.2504
  21408967.1464   -1218031.00047   -913906.34246                  21408969.4664
        22.2504         16.5004
  23719094.9974   -2929071.44645  -2205499.31543                  23719098.2314
        10.0004          3.2504
                   -313721.733 5   -244457.313 5  23371730.536    23371732.407
        11.000           6.250
  21176096.5524    1954166.62047   1494773.26646                  21176098.0404
        25.0004         19.0004
  22737878.0994   -3135910.18346  -2359537.40945                  22737881.8604
        16.2504          7.2504
 95  4 12 16 20 30.0010000  0  6G18G19G27G28G29G31
  20469282.8104    -440393.03548   -322244.81646                  20469284.5794
        28.5004         19.7504
  21407108.8884   -1227796.86047   -921516.09846                  21407111.4664
        22.2504         17.7504
  23713569.1534   -2958109.83845  -2228126.62444                  23713572.1184
        10.0004          4.0004
                   -309686.034 5   -241312.603 5  23372498.372    23372500.259
        10.750           6.250
  21181217.1694    1981075.99047   1515741.60146                  21181218.4704
        24.7504         20.2504
  22732526.0364   -3164033.72046  -2381451.84145                  22732529.2244
        16.2504          7.7504
 95  4 12 16 20 45.0010000  0  6G18G19G27G28G29G31
  20469682.7314    -438292.32048   -320607.89046                  20469684.6774
        28.5004         19.7504
  21405264.3964   -1237489.79847   -929069.03146                  21405266.8334
        22.2504         15.7504
  23708052.9424   -2987098.14345  -2250714.89044                  23708054.5484
        10.2504          4.0004
                   -305487.118 5   -238040.707 5  23373297.380    23373299.532
        10.750           6.250
  21186363.0604    2008117.68247   1536813.04046                  21186364.2554
        24.5004         18.2504
  22727197.3964   -3192036.79346  -2403272.39545                  22727200.5834
        16.2504          7.7504
 95  4 12 16 21  0.0010000  0  6G18G19G27G28G29G31
  20470110.5674    -436044.52348   -318856.36646                  20470112.4664
        29.0004         20.2504
  21403433.9424   -1247111.58947   -936566.52846                  21403436.5214
        23.0004         17.7504
  23702545.2714   -3016041.28945  -2273267.99244                  23702547.7434
        10.2504          4.0004
                   -301125.238 5   -234641.836 5  23374127.380    23374129.673
        10.500           6.250
  21191534.1854    2035293.11847   1557988.69246                  21191535.8604
        23.7504         18.2504
  22721891.2244   -3219921.64046  -2425000.82545                  22721894.3174
        16.7504          7.2504
 95  4 12 16 21 15.0010000  0  6G18G19G27G28G29G31
  20470566.5834    -433647.84848   -316988.83646                  20470568.5174
        28.5004         18.2504
  21401616.3254   -1256663.02347   -944009.20146                  21401618.6574
        22.7504         15.7504
  23697045.2394   -3044942.00845  -2295788.00643                  23697048.5094
         9.7504          2.5004
                   -296599.882 5   -231115.569 5  23374988.302    23374990.618
        10.250           6.000
  21196731.2314    2062603.67047   1579269.63546                  21196733.0954
        23.7504         17.0004
  22716607.6534   -3247687.10146  -2446636.24245                  22716610.5484
        16.2504          7.2504
 95  4 12 16 21 30.0010000  0  6G18G19G27G28G29G31
  20471050.9744    -431102.47748   -315005.42746                  20471052.7434
        29.0004         20.2504
  21399812.3804   -1266141.54147   -951395.05146                  21399814.3024
        23.2504         17.0004
  23691552.9034   -3073802.85945  -2318276.96443                  23691556.0564
         9.7504          2.5004
                   -291910.434 5   -227461.445 5  23375880.528    23375882.950
        10.250           6.250
  21201954.1854    2090050.68247   1600656.90446                  21201956.2474
        23.7504         18.2504
  22711346.3964   -3275334.65046  -2468179.75345                  22711348.9744
        16.7504          7.7504
 95  4 12 16 21 45.0010000  0  6G18G19G27G28G29G31
  20471563.1854    -428411.27048   -312908.38146                  20471564.8254
        29.2504         21.0004
  21398022.8104   -1275547.63447   -958724.47246                  21398025.3174
        23.5004         19.0004
  23686067.8564   -3102626.46945  -2340736.92643                  23686072.1104
         9.5004          3.2504
                   -287058.174 5   -223680.463 5  23376803.896    23376806.489
        10.250           6.500
  21207203.4194    2117634.65347   1622150.90246                  21207205.2474
        24.2504         19.0004
  22706106.6064   -3302869.35746  -2489635.34945                  22706109.4894
        16.7504          8.5004
 95  4 12 16 22  0.0010000  0  6G18G19G27G28G29G31
  20472104.1064    -425568.10048   -310692.92946                  20472105.6884
        29.2504         21.0004
  21396247.3724   -1284875.94047   -965993.27646                  21396249.7284
        23.5004         19.0004
  23680591.2714   -3131406.15545  -2363162.61643                  23680594.5404
         9.2504          3.2504
                   -282036.260 5   -219767.283 5  23377759.560    23377762.048
        10.250           6.750
  21212480.2244    2145365.37047   1643759.25246                  21212482.3104
        24.2504         18.2504
  22700890.3414   -3330283.88446  -2510997.29245                  22700893.1184
        17.2504          9.2504
 95  4 12 16 22 15.0010000  0  6G18G19G27G28G29G31
  20472672.9664    -422578.90648   -308363.68846                  20472674.6304
        28.7504         21.0004
  21394485.4114   -1294136.07047   -973208.95846                  21394487.2984
        23.2504         19.0004
  23675121.4744   -3160148.58145  -2385559.31543                  23675124.4504
         9.0004          2.5004
                   -276850.655 5   -215726.555 5  23378746.513    23378748.837
        10.250           6.500
  21217784.5674    2173237.76247   1665477.98246                  21217786.3494
        24.2504         19.7504
  22695694.5364   -3357584.76246  -2532270.68245                  22695696.8804
        16.5004          8.5004
 95  4 12 16 22 30.0010000  0  6G18G19G27G28G29G31
  20473269.5994    -419443.32248   -305920.37246                  20473271.2044
        28.7504         21.0004
  21392736.0444   -1303328.95647   -980372.24546                  21392738.2004
        23.5004         19.0004
  23669659.3644   -3188854.92245  -2407927.86643                  23669663.0564
         9.2504          3.2504
                   -271500.843 5   -211557.868 5  23379764.614    23379766.841
        10.250           6.750
  21223115.7554    2201255.44347   1687309.93246                  21223117.4894
        24.2504         19.7504
  22690521.7314   -3384766.80346  -2553451.47845                  22690524.8254
        16.2504          7.7504
 95  4 12 16 22 45.0010000  0  6G18G19G27G28G29G31
  20473893.4354    -416164.47948   -303365.43046                  20473895.3924
        28.5004         19.7504
  21390999.5054   -1312455.11047   -987483.53146                  21391001.4624
        23.7504         19.0004
  23664202.7714   -3217528.57245  -2430270.95643                  23664206.2394
         9.5004          3.2504
                   -265988.817 5   -207262.779 5  23380813.567    23380815.704
        10.500           6.500
  21228474.2634    2229414.44247   1709251.99846                  21228476.3024
        23.7504         19.0004
  22685372.0214   -3411829.42246  -2574539.20745                  22685374.9034
        15.7504          7.2504
 95  4 12 16 23  0.0010000  0  6G18G19G27G28G29G31
  20474544.7784    -412740.99648   -300697.78146                  20474546.8294
        28.2504         19.7504
  21389275.4584   -1321514.32847   -994542.65746                  21389277.3564
        23.7504         19.7504
  23658753.5134   -3246166.50945  -2452586.22744                  23658756.9704
        10.0004          4.0004
                   -260312.551 5   -202839.707 5  23381893.856    23381895.915
        10.750           6.750
  21233859.3804    2257713.06747   1731302.86546                  21233861.5364
        23.7504         19.7504
  22680244.7714   -3438772.74046  -2595534.00745                  22680247.6064
        15.5004          7.7504
 95  4 12 16 23 15.0010000  0  6G18G19G27G28G29G31
  20475223.5364    -409175.06148   -297919.13946                  20475225.8564
        28.5004         19.7504
  21387563.3024   -1330511.76247  -1001553.63946                  21387565.4464
        23.7504         19.0004
  23653310.8644   -3274770.85745  -2474875.29843                  23653313.5134
        10.2504          2.5004
                   -254474.366 5   -198290.470 5  23383004.778    23383006.774
        10.750           6.750
  21239270.2474    2286147.77147   1753459.76646                  21239272.2514
        23.5004         19.0004
  22675140.7784   -3465594.88446  -2616434.35545                  22675144.5054
        15.7504          7.2504
 95  4 12 16 23 30.0010000  0  6G18G19G27G28G29G31
  20475929.1224    -405466.59548   -295029.42746                  20475931.2904
        28.5004         20.2504
  21385863.5054   -1339445.10447  -1008514.68046                  21385865.4854
        23.7504         18.2504
  23647874.0284   -3303338.22645  -2497135.61244                  23647877.4154
        10.2504          4.0004
                   -248472.799 5   -193613.916 5  23384146.864    23384148.978
        10.750           6.750
  21244707.2714    2314719.36047   1775723.33646                  21244709.3104
        23.5004         19.7504
  22670060.8564   -3492292.23146  -2637237.45345                  22670064.5134
        16.5004          7.2504
 95  4 12 16 23 45.0010000  0  6G18G19G27G28G29G31
  20476662.2474    -401615.71948   -292028.74946                  20476664.4854
        28.7504         19.0004
  21384175.6774   -1348312.61347  -1015424.42546                  21384177.9034
        23.5004         19.0004
  23642446.1854   -3331862.87645  -2519362.58343                  23642449.5364
        10.2504          3.2504
                   -242305.847 5   -188808.500 5  23385320.224    23385322.376
        10.500           6.500
  21250171.0134    2343430.21047   1798095.41246                  21250173.0754
        23.7504         18.2504
  22665004.8254   -3518861.05246  -2657940.41145                  22665007.7314
        16.5004          7.7504
 95  4 12 16 24  0.0010000  0  6G18G19G27G28G29G31
  20477422.2944    -397621.04048   -288916.01646                  20477424.4624
        28.7504         19.7504
  21382500.7474   -1357114.34747  -1022282.91746                  21382503.1964
        23.0004         16.5004
  23637026.3964   -3360339.79245  -2541552.36243                  23637030.2984
        10.0004          2.5004
                   -235972.751 5   -183873.614 5  23386525.239    23386527.646
        10.250           6.250
  21255661.0054    2372281.24247   1820576.72546                  21255662.8684
        23.7504         18.2504
  22659974.0134   -3545296.78546  -2678539.67045                  22659977.1424
        16.5004          7.2504
 95  4 12 16 24 15.0010000  0  6G18G19G27G28G29G31
  20478209.9974    -393481.88848   -285690.71246                  20478211.8254
        28.7504         19.0004
  21380838.5134   -1365850.17547  -1029090.05446                  21380841.0674
        23.0004         17.0004
  23631616.5134   -3388769.32445  -2563705.23944                  23631620.8134
         9.7504          4.0004
                   -229475.935 5   -178811.167 5  23387761.474    23387764.063
        10.250           6.250
  21261177.0134    2401267.23147   1843163.19746                  21261178.6064
        23.7504         17.0004
  22654968.3494   -3571600.46646  -2699036.01645                  22654971.3844
        16.2504          8.5004
 95  4 12 16 24 30.0010000  0  6G18G19G27G28G29G31
  20479026.4034    -389191.71648   -282347.71846                  20479028.1144
        28.0004         17.7504
  21379189.5994   -1374515.29847  -1035842.09946                  21379191.8374
        22.5004         16.5004
  23626216.8884   -3417147.42245  -2585818.01843                  23626220.4384
        10.0004          3.2504
                   -222812.102 5   -173618.567 5  23389029.614    23389032.103
        10.250           6.000
  21266719.1144    2430391.32647   1865857.28246                  21266720.6854
        23.2504         17.0004
  22649988.5284   -3597769.00346  -2719427.07345                  22649991.7864
        15.7504          7.2504
 95  4 12 16 24 45.0010000  0  6G18G19G27G28G29G31
  20479871.5754    -384749.90248   -278886.56846                  20479873.1924
        28.5004         19.0004
  21377554.5284   -1383108.01747  -1042537.71946                  21377557.0714
        23.0004         18.2504
  23620826.1694   -3445474.59045  -2607891.12744                  23620829.4384
         9.7504          4.0004
                   -215981.191 5   -168295.778 5  23390329.653    23390331.997
        10.500           6.500
  21272287.3104    2459652.38347   1888658.09246                  21272289.0444
        23.7504         19.0004
  22645034.5284   -3623803.05946  -2739713.33545                  22645037.3764
        16.2504          7.2504
 95  4 12 16 25  0.0010000  0  6G18G19G27G28G29G31
  20480745.0674    -380159.46248   -275309.60346                  20480746.8724
        28.0004         19.0004
  21375932.2004   -1391633.39647  -1049180.87046                  21375934.3684
        23.0004         16.5004
  23615444.5914   -3473754.16545  -2629927.13243                  23615448.6224
         9.7504          3.2504
                   -208986.783 5   -162845.589 5  23391660.778    23391662.950
        10.750           6.250
  21277880.2864    2489045.88347   1911562.11146                  21277882.3844
        23.2504         18.2504
  22640104.0834   -3649712.23646  -2759902.28645                  22640106.9194
        16.2504          7.7504
 95  4 12 16 25 15.0010000  0  6G18G19G27G28G29G31
  20481647.5444    -375416.27648   -271613.61246                  20481649.3494
        28.0004         19.7504
  21374323.2474   -1400089.33947  -1055769.91346                  21374325.4744
        23.2504         17.7504
  23610073.0054   -3501983.91345  -2651924.34243                  23610077.1424
        10.0004          3.2504
                   -201826.719 5   -157266.328 5  23393023.388    23393025.317
        10.750           6.500
  21283500.2634    2518577.42947   1934573.70246                  21283502.3134
        23.5004         19.7504
  22635197.8884   -3675495.59946  -2779993.21145                  22635201.2744
        16.5004          8.5004
 95  4 12 16 25 30.0010000  0  6G18G19G27G28G29G31
  20482578.6614    -370523.08148   -267800.73446                  20482580.3844
        28.0004         20.2504
  21372726.9274   -1408476.56247  -1062305.40846                  21372729.5874
        23.0004         17.0004
  23604709.7784   -3530167.70745  -2673885.72544                  23604713.8804
        10.0004          4.0004
                   -194505.192 5   -151561.242 5  23394416.630    23394418.763
        10.500           6.250
  21289145.5134    2548244.17647   1957690.63846                  21289147.7284
        23.2504         19.0004
  22630314.9504   -3701156.64546  -2799988.81245                  22630318.2204
        16.5004          8.5004
 95  4 12 16 25 45.0010000  0  6G18G19G27G28G29G31
  20483538.6464    -365478.98348   -263870.27646                  20483540.4034
        28.2504         19.7504
  21371144.6774   -1416791.51747  -1068784.59246                  21371146.9854
        23.5004         18.2504
  23599355.6224   -3558303.41445  -2695809.64243                  23599359.4194
        10.0004          3.2504
                   -187020.869 5   -145729.307 5  23395840.575    23395842.688
        10.500           6.500
  21294817.0604    2578046.92347   1980913.55246                  21294819.2864
        23.7504         19.0004
  22625455.0524   -3726695.68746  -2819889.35345                  22625458.3454
        17.2504          9.2504
 95  4 12 16 26  0.0010000  0  6G18G19G27G28G29G31
  20484527.9744    -360280.42848   -259819.45746                  20484529.6384
        28.5004         19.0004
  21369576.0914   -1425034.68147  -1075207.83546                  21369578.5634
        23.5004         18.2504
  23594010.1854   -3586392.89445  -2717697.54644                  23594013.4314
        10.0004          4.0004
                   -179374.028 5   -139770.734 5  23397295.606    23397297.712
        10.250           6.250
  21300514.1064    2607985.20947   2004242.07746                  21300516.1344
        23.7504         19.0004
  22620618.5604   -3752111.89946  -2839694.18345                  22620620.9274
        17.7504          9.7504
 95  4 12 16 26 15.0010000  0  6G18G19G27G28G29G31
  20485548.5604    -354917.51448   -255640.57446                  20485550.0834
        28.5004         19.7504
  21368022.5284   -1433199.44747  -1081569.98846                  21368024.9424
        23.7504         18.2504
  23588674.8414   -3614432.15645  -2739546.29843                  23588676.9034
        10.2504          3.2504
                   -171557.405 5   -133679.865 5  23398783.067    23398785.239
        10.250           6.250
  21306238.3254    2638066.49847   2027682.02946                  21306240.2004
        23.7504         18.2504
  22615806.4974   -3777399.29446  -2859398.64345                  22615809.1574
        17.7504          8.5004
 95  4 12 16 26 30.0010000  0  6G18G19G27G28G29G31
  20486598.7864    -349398.84548   -251340.31546                  20486600.2984
        28.7504         19.0004
  21366482.0054   -1441294.69847  -1087877.97346                  21366484.1034
        24.0004         18.2504
  23583347.0834   -3642432.52145  -2761364.75845                  23583348.3024
        11.2504          4.5004
                   -163578.316 5   -127462.396 5  23400301.435    23400303.649
        10.250           6.250
  21311988.7314    2668284.50247   2051228.51746                  21311990.4074
        23.5004         18.2504
  22611017.6384   -3802566.30346  -2879009.27445                  22611020.6144
        17.7504          9.2504
 95  4 12 16 26 45.0010000  0  6G18G19G27G28G29G31
  20487679.1144    -343722.12048   -246916.90046                  20487680.5674
        28.5004         19.0004
  21364954.9974   -1449320.36447  -1094131.73846                  21364957.2594
        24.2504         18.2504
  23578026.0674   -3670392.94145  -2783152.09344                  23578027.8254
        11.2504          4.0004
                   -155433.831 5   -121116.051 5  23401851.474    23401853.481
        10.500           6.250
  21317766.0444    2698644.31147   2074885.50146                  21317767.7904
        23.2504         18.2504
  22606252.0214   -3827607.61246  -2898521.96545                  22606254.7394
        17.2504          8.5004
 95  4 12 16 27  0.0010000  0  6G18G19G27G28G29G31
  20488789.5674    -337886.69048   -242369.81746                  20488791.0214
        28.5004         17.7504
  21363441.6614   -1457273.30047  -1100328.82846                  21363443.7824
        24.2504         18.2504
  23572713.3724   -3698311.28745  -2804906.60644                  23572715.6344
        11.2504          4.0004
                   -147121.103 5   -114638.607 5  23403433.622    23403435.442
        10.750           6.250
  21323570.5054    2729147.18847   2098653.96346                  21323572.3924
        23.5004         18.2504
  22601511.7554   -3852517.61446  -2917932.34845                  22601514.5794
        16.5004          8.5004
 95  4 12 16 27 15.0010000  0  6G18G19G27G28G29G31
  20489930.6924    -331890.07848   -237697.13046                  20489932.0874
        28.5004         18.2504
  21361941.9584   -1465153.21347  -1106469.01846                  21361944.2674
        24.2504         19.0004
  23567409.2164   -3726186.43345  -2826627.48444                  23567410.8214
        11.5004          4.0004
                   -138639.518 5   -108029.580 5  23405047.583    23405049.521
        10.750           6.250
  21329402.3564    2759793.99647   2122534.58246                  21329404.2204
        23.5004         17.7504
  22596796.8254   -3877294.22946  -2937238.77545                  22596799.2394
        16.5004          9.2504
 95  4 12 16 27 30.0010000  0  6G18G19G27G28G29G31
  20491102.0214    -325734.53148   -232900.60346                  20491103.3334
        28.2504         18.2504
  21360456.0914   -1472961.11947  -1112553.09746                  21360458.0364
        24.2504         18.2504
  23562112.1614   -3754020.44445  -2848316.30543                  23562114.4704
        11.2504          3.2504
                   -129991.976 5   -101291.243 5  23406693.317    23406695.212
        11.000           6.250
  21335261.3494    2790581.50847   2146524.83346                  21335262.8254
        24.0004         18.2504
  22592107.6534   -3901935.94146  -2956440.10345                  22592111.2634
        16.5004          8.5004
 95  4 12 16 27 45.0010000  0  6G18G19G27G28G29G31
  20492303.6384    -319420.18748   -227980.33646                  20492305.0794
        28.5004         18.2504
  21358983.9424   -1480696.54047  -1118580.69546                  21358986.0054
        24.5004         19.7504
  23556823.3254   -3781810.68045  -2869971.01545                  23556827.3924
        11.2504          4.5004
                   -121176.745 5    -94422.227 5  23408370.567    23408372.587
        10.750           6.500
  21341146.4504    2821509.34047   2170624.43346                  21341147.9624
        24.0004         17.7504
  22587444.9664   -3926438.74446  -2975533.17745                  22587447.8134
        16.7504          7.7504
 95  4 12 16 28  0.0010000  0  6G18G19G27G28G29G31
  20493535.2314    -312947.22148   -222936.46646                  20493536.9194
        28.2504         18.2504
  21357525.3024   -1488362.02547  -1124553.79646                  21357527.5404
        24.2504         19.0004
  23551542.9814   -3809558.34245  -2891592.55844                  23551546.2634
        10.5004          4.0004
                   -112194.886 5    -87423.373 5  23410079.560    23410081.950
        10.500           6.250
  21347058.0054    2852575.03447   2194831.45346                  21347059.6104
        24.0004         17.7504
  22582808.8494   -3950802.44746  -2994517.87445                  22582811.4974
        16.7504          8.5004
 95  4 12 16 28 15.0010000  0  6G18G19G27G28G29G31
  20494797.4974    -306313.95748   -217767.69346                  20494798.9274
        28.2504         17.0004
  21356079.7944   -1495958.33647  -1130472.99846                  21356082.0214
        24.0004         18.2504
  23546271.1304   -3837263.29245  -2913180.82745                  23546273.4034
        10.5004          4.5004
                   -103045.268 5    -80293.818 5  23411820.591    23411823.048
        10.250           6.250
  21352996.1694    2883780.24247   2219147.19246                  21352998.0324
        23.7504         18.2504
  22578198.6384   -3975027.97146  -3013394.88545                  22578201.8134
        16.5004          8.5004
 95  4 12 16 28 30.0010000  0  6G18G19G27G28G29G31
  20496089.3884    -299525.44648   -212477.94746                  20496090.9234
        28.5004         18.2504
  21354647.5284   -1503486.24047  -1136338.89446                  21354649.6494
        24.0004         18.2504
  23541007.5834   -3864926.73745  -2934736.75044                  23541010.7244
        10.7504          4.0004
                    -93729.793 5    -73035.013 5  23413593.138    23413595.704
        10.000           6.250
  21358960.5674    2915122.07847   2243569.39146                  21358962.5604
        23.5004         19.0004
  22573614.4744   -3999119.36446  -3032167.38345                  22573617.3924
        17.0004          8.5004
 95  4 12 16 28 45.0010000  0  6G18G19G27G28G29G31
  20497410.5914    -292581.98548   -207067.46246                  20497411.7984
        28.7504         17.0004
  21353228.0284   -1510945.64647  -1142151.41246                  21353229.9384
        24.2504         17.7504
  23535750.6614   -3892547.72645  -2956259.60244                  23535753.6264
        10.5004          4.0004
                    -84249.039 5    -65647.424 5  23415397.388    23415399.915
        10.000           6.250
  21364950.2164    2946599.80847   2268097.48046                  21364952.4314
        23.5004         19.0004
  22569056.2784   -4023072.69046  -3050832.29645                  22569059.3494
        17.0004          9.2504
 95  4 12 16 29  0.0010000  0  6G18G19G27G28G29G31
  20498761.3644    -285483.94548   -201536.52746                  20498762.7004
        29.0004         17.0004
  21351821.8884   -1518333.89147  -1147908.48246                  21351823.9274
        24.2504         18.2504
  23530503.7864   -3920122.62845  -2977746.54343                  23530506.7164
        10.7504          3.2504
                    -74601.858 5    -58130.143 5  23417233.130    23417235.474
        10.000           6.250
  21370966.2084    2978212.41047   2292730.66546                  21370968.1534
        24.0004         18.2504
  22564524.4354   -4046886.12446  -3069388.19945                  22564527.3064
        16.5004          9.2504
 95  4 12 16 29 15.0010000  0  6G18G19G27G28G29G31
  20500140.8804    -278234.92748   -195887.94946                  20500142.2394
        28.5004         17.0004
  21350429.7164   -1525651.76847  -1153610.71846                  21350431.6034
        24.2504         16.5004
  23525265.0134   -3947651.54045  -2999197.59743                  23525268.7394
        11.2504          3.2504
                    -64789.048 5    -50483.806 5  23419100.771    23419102.677
        10.250           6.250
  21377006.8884    3009956.81947   2317466.55846                  21377008.6924
        24.0004         19.0004
  22560019.1534   -4070562.14146  -3087837.03345                  22560022.4234
        16.7504          7.7504
 95  4 12 16 29 30.0010000  0  6G18G19G27G28G29G31
  20501549.2314    -270833.46448   -190120.57246                  20501550.7084
        28.2504         18.2504
  21349050.4814   -1532897.92947  -1159257.07646                  21349052.4384
        23.7504         18.2504
  23520035.7784   -3975132.50945  -3020611.33845                  23520038.0174
        11.5004          4.5004
                    -54809.408 5    -42707.469 5  23420999.763    23421001.759
        10.750           6.250
  21383073.0754    3041834.59747   2342306.37446                  21383074.8454
        24.2504         19.0004
  22555539.7554   -4094101.85146  -3106179.64545                  22555541.8534
        16.7504          9.2504
 95  4 12 16 29 45.0010000  0  6G18G19G27G28G29G31
  20502985.7944    -263283.99847   -184237.87846                  20502987.5284
        27.7504         19.0004
  21347684.5604   -1540075.36747  -1164849.88346                  21347686.7744
        23.2504         19.0004
  23514815.2784   -4002568.76546  -3041990.22444                  23514817.7634
        12.0004          4.0004
                    -44664.562 5    -34802.403 5  23422930.349    23422932.294
        10.750           6.250
  21389164.2084    3073842.52347   2367247.60246                  21389165.7314
        24.2504         19.0004
  22551086.0214   -4117505.67946  -3124416.38045                  22551088.7394
        16.5004          9.2504
 95  4 12 16 30  0.0010000  0  6G18G19G27G28G29G31
  20504450.2084    -255588.42447   -178241.32546                  20504452.0604
        27.7504         18.2504
  21346331.0054   -1547188.19247  -1170392.33846                  21346333.1614
        23.2504         17.7504
  23509602.1384   -4029963.68046  -3063336.89344                  23509603.9894
        12.0004          4.0004
                    -34355.994 5    -26769.753 5  23424892.021    23424893.942
        10.750           6.250
  21395279.1534    3105977.80547   2392288.07146                  21395280.6884
        24.2504         18.2504
  22546657.6534   -4140777.35546  -3142550.14845                  22546660.6534
        17.0004          8.5004
 95  4 12 16 30 15.0010000  0  6G18G19G27G28G29G31
  20505942.7474    -247744.79147   -172129.40946                  20505944.4114
        27.7504         18.2504
  21344989.7864   -1554236.84547  -1175884.79346                  21344991.8724
        23.2504         19.0004
  23504396.4274   -4057319.77846  -3084653.31945                  23504398.2084
        12.0004          4.5004
                    -23883.362 5    -18609.263 5  23426885.021    23426887.024
        10.750           6.250
  21401419.3174    3138244.66347   2417431.05546                  21401420.7354
        24.2504         19.0004
  22542254.2004   -4163917.48746  -3160581.40545                  22542256.5914
        17.5004          9.7504
 95  4 12 16 30 30.0010000  0  6G18G19G27G28G29G31
  20507463.0444    -239755.57648   -165904.05146                  20507464.7904
        28.2504         18.2504
  21343660.8644   -1561219.32847  -1181325.68646                  21343662.6344
        22.7504         17.7504
  23499198.0604   -4084636.62345  -3105939.14443                  23499199.7714
        11.7504          3.2504
                    -13246.366 5    -10320.698 5  23428908.981    23428911.239
        10.500           6.500
  21407584.6924    3170644.15347   2442677.40046                  21407586.2744
        24.0004         19.0004
  22537875.9354   -4186926.66746  -3178510.63445                  22537878.3964
        18.0004          9.2504
 95  4 12 16 30 45.0010000  0  6G18G19G27G28G29G31
  20509010.8334    -231623.08848   -159567.05546                  20509012.3564
        28.5004         18.2504
  21342344.7474   -1568136.81147  -1186715.93046                  21342346.7744
        23.0004         17.7504
  23494006.8174   -4111915.51545  -3127195.40143                  23494008.0954
        11.2504          3.2504
                     -2447.065 5     -1905.672 5  23430963.872    23430966.364
        10.250           6.750
  21413774.7474    3203172.77847   2468024.36346                  21413776.6344
        24.2504         19.0004
  22533522.8644   -4209802.01746  -3196335.57045                  22533525.5244
        18.0004          9.7504
 95  4 12 16 31  0.0010000  0  6G18G19G27G28G29G31
  20510585.9814    -223346.23448   -153117.55746                  20510587.3764
        28.7504         18.2504
  21341040.6614   -1574989.46247  -1192055.65446                  21341042.6884
        23.0004         17.7504
  23488822.7314   -4139155.70145  -3148421.51944                  23488826.1654
        11.0004          4.0004
                      8516.456 5      6637.326 5  23433050.005    23433052.614
        10.250           6.500
  21419990.1694    3235834.38547   2493474.95646                  21419991.9744
        24.2504         18.2504
  22529195.4894   -4232543.59146  -3214056.25745                  22529197.7044
        18.2504          9.7504
 95  4 12 16 31 15.0010000  0  6G18G19G27G28G29G31
  20512188.3804    -214924.72748   -146555.34946                  20512189.8454
        28.2504         17.0004
  21339749.4744   -1581775.42847  -1197343.41946                  21339751.5364
        23.0004         17.7504
  23483646.7004   -4166357.22245  -3169617.49844                  23483650.0754
        10.7504          4.0004
                     19646.187 5     15309.842 5  23435167.966    23435170.724
        10.000           6.250
  21426231.4744    3268632.42647   2519031.86146                  21426233.4074
        24.2504         19.7504
  22524892.6924   -4255153.76546  -3231674.57945                  22524895.2474
        18.2504          9.7504
 95  4 12 16 31 30.0010000  0  6G18G19G27G28G29G31
  20513817.7004    -206362.83148   -139883.74846                  20513819.4704
        28.2504         17.7504
  21338468.9584   -1588504.41247  -1202586.77846                  21338471.3254
        23.0004         18.2504
  23478474.7634   -4193531.55945  -3190792.30544                  23478478.7354
        10.5004          4.0004
                     30932.388 5     24104.263 5  23437315.786    23437318.235
        10.000           6.250
  21432496.9814    3301559.04647   2544688.95146                  21432498.9624
        24.5004         19.0004
  22520613.2314   -4277642.71446  -3249198.42545                  22520615.7744
        18.2504          9.7504
 95  4 12 16 31 45.0010000  0  6G18G19G27G28G29G31
  20515475.1614    -197652.17747   -133096.22846                  20515476.8134
        27.7504         17.7504
  21337200.0444   -1595171.41147  -1207781.84446                  21337202.4114
        23.0004         17.7504
  23473310.2944   -4220674.12545  -3211942.34643                  23473314.0794
        10.7504          3.2504
                     42379.722 5     33024.262 5  23439494.192    23439496.618
        10.000           6.250
  21438788.5604    3334621.26147   2570451.71146                  21438790.4814
        24.5004         19.7504
  22516357.7244   -4300003.65346  -3266622.53045                  22516359.9624
        18.0004          9.7504
 95  4 12 16 32  0.0010000  0  6G18G19G27G28G29G31
  20517161.7474    -188788.38947   -126189.38546                  20517163.6814
        27.5004         17.0004
  21335944.5054   -1601770.05747  -1212923.64246                  21335946.4974
        23.2504         17.7504
  23468152.4034   -4247777.82345  -3233062.09944                  23468155.9194
        11.0004          4.0004
                     53994.696 5     42074.887 5  23441704.575    23441706.696
        10.250           6.250
  21445107.5524    3367826.91847   2596326.23946                  21445109.2984
        24.5004         18.2504
  22512128.8724   -4322228.01146  -3283940.20045                  22512131.4034
        17.7504          9.2504
 95  4 12 16 32 15.0010000  0  6G18G19G27G28G29G31
  20518877.8724    -179769.56347   -119161.73246                  20518879.8644
        27.0004         19.0004
  21334702.4424   -1608297.90847  -1218010.27146                  21334704.4234
        23.5004         17.7504
  23463002.7554   -4274841.15645  -3254150.39245                  23463005.7554
        11.5004          5.2504
                     65776.877 5     51255.792 5  23443946.700    23443948.653
        10.250           6.250
  21451454.5674    3401178.85647   2622314.74646                  21451456.3024
        25.0004         19.0004
  22507925.3724   -4344315.92746  -3301151.54945                  22507927.7744
        17.7504          7.7504
 95  4 12 16 32 30.0010000  0  6G18G19G27G28G29G31
  20520624.0834    -170594.97747   -112012.70646                  20520626.2984
        26.7504         17.0004
  21333474.9354   -1614748.95247  -1223037.05846                  21333477.0094
        23.5004         17.7504
  23457861.6144   -4301859.13745  -3275203.36043                  23457864.2634
        11.7504          3.2504
                     77728.491 5     60568.746 5  23446220.981    23446223.138
        10.250           6.000
  21457829.5054    3434678.85947   2648418.63946                  21457830.7824
        24.7504         17.7504
  22503748.8494   -4366265.96146  -3318255.45945                  22503750.8294
        17.5004          9.2504
 95  4 12 16 32 45.0010000  0  6G18G19G27G28G29G31
  20522398.2784    -161271.50647   -104747.67046                  20522399.8844
        27.5004         16.5004
  21332260.7714   -1621129.91147  -1228009.23446                  21332262.8564
        23.7504         19.0004
  23452728.1854   -4328835.04845  -3296223.54545                  23452730.3994
        11.7504          4.5004
                     89842.922 5     70008.558 5  23448526.341    23448528.446
        10.500           6.250
  21464230.1854    3468315.35547   2674628.88146                  21464231.5564
        25.0004         18.2504
  22499596.5674   -4388082.87346  -3335255.64645                  22499599.0754
        17.2504          8.5004
 95  4 12 16 33  0.0010000  0  6G18G19G27G28G29G31
  20524200.5754    -151799.76347    -97367.09146                  20524202.2634
        27.5004         16.5004
  21331058.6224   -1627446.21047  -1232931.02146                  21331060.6264
        24.0004         17.7504
  23447602.2784   -4355773.62546  -3317214.63045                  23447604.7864
        12.2504          4.5004
                    102116.399 5     79572.302 5  23450861.872    23450863.872
        10.500           6.000
  21470656.3414    3502085.42647   2700943.21546                  21470657.7714
        24.5004         16.5004
  22495469.7244   -4409770.47646  -3352155.06245                  22495472.1964
        17.0004          9.2504
 95  4 12 16 33 15.0010000  0  6G18G19G27G28G29G31
  20526031.2714    -142179.98347    -89871.16846                  20526032.7714
        27.7504         17.0004
  21329868.5524   -1633700.09447  -1237804.17846                  21329870.5674
        24.0004         19.0004
  23442482.9664   -4382675.18346  -3338176.87145                  23442485.8964
        12.0004          5.2504
                    114547.801 5     89259.103 5  23453227.567    23453229.759
        10.500           6.500
  21477107.7244    3535988.61347   2727361.26746                  21477109.5634
        24.5004         19.0004
  22491366.8564   -4431331.55446  -3368955.89145                  22491370.0444
        17.0004          9.7504
 95  4 12 16 33 30.0010000  0  6G18G19G27G28G29G31
  20527892.0214    -132400.47647    -82250.78246                  20527893.4504
        27.7504         18.2504
  21328692.4424   -1639881.21347  -1242620.63246                  21328694.5524
        24.2504         19.7504
  23437372.8964   -4409526.85645  -3359100.24245                  23437375.3564
        11.7504          4.5004
                    127146.997 5     99076.656 5  23455625.021    23455627.470
        10.250           6.500
  21483585.7004    3570031.13347   2753887.89246                  21483587.6694
        24.2504         18.2504
  22487290.6924   -4452752.10546  -3385647.22345                  22487293.9034
        16.5004          9.7504
 95  4 12 16 33 45.0010000  0  6G18G19G27G28G29G31
  20529783.1614    -122463.62648    -74507.78746                  20529784.6734
        28.0004         19.7504
  21327529.5054   -1645992.09447  -1247382.35746                  21327531.5324
        24.5004         19.0004
  23432272.5284   -4436329.56145  -3379985.44844                  23432275.4234
        11.7504          4.0004
                    139910.837 5    109022.505 5  23458053.786    23458056.087
        10.250           6.750
  21490089.3564    3604207.96247   2780519.17646                  21490091.4314
        24.5004         18.2504
  22483241.0054   -4474032.86846  -3402229.62445                  22483244.4034
        16.7504          9.2504
 95  4 12 16 34  0.0010000  0  6G18G19G27G28G29G31
  20531702.1774    -112379.31748    -66649.88446                  20531703.8294
        28.0004         17.7504
  21326379.1694   -1652037.75047  -1252093.25646                  21326381.2434
        24.2504         19.0004
  23427180.9424   -4463087.96445  -3400836.13545                  23427184.1774
        11.7504          4.5004
                    152833.992 5    119092.491 5  23460512.927    23460515.646
        10.000           6.750
  21496617.4504    3638512.48647   2807249.96446                  21496619.5484
        24.2504         19.0004
  22479217.2784   -4495178.83046  -3418706.98845                  22479220.6064
        17.0004          9.7504
 95  4 12 16 34 15.0010000  0  6G18G19G27G28G29G31
  20533650.0834    -102143.30848    -58673.78146                  20533651.7474
        28.2504         19.0004
  21325241.5674   -1658015.90547  -1256751.55546                  21325243.6534
        24.2504         19.0004
  23422097.6614   -4489799.46545  -3421650.27444                  23422100.0994
        11.2504          4.0004
                    165919.495 5    129288.979 5  23463002.935    23463005.563
        10.000           6.750
  21503170.0364    3672946.67147   2834081.78246                  21503172.2634
        24.5004         20.2504
  22475218.9744   -4516188.44946  -3435078.10645                  22475223.1344
        16.7504          9.2504
 95  4 12 16 34 30.0010000  0  6G18G19G27G28G29G31
  20535627.4814     -91752.59648    -50577.12646                  20535629.0634
        28.5004         19.0004
  21324116.4584   -1663927.45447  -1261357.95246                  21324118.6964
        23.7504         19.0004
  23417022.9504   -4516466.81245  -3442430.01045                  23417025.6574
        11.2504          4.5004
                    179166.683 5    139611.465 5  23465523.802    23465526.509
        10.000           6.750
  21509746.2474    3707506.17047   2861011.25346                  21509748.3564
        24.2504         20.2504
  22471246.9194   -4537063.01146  -3451343.98145                  22471250.0604
        17.2504          9.7504
 95  4 12 16 34 45.0010000  0  6G18G19G27G28G29G31
  20537634.2554     -81207.27648    -42359.99446                  20537635.9424
        28.2504         20.2504
  21323003.8644   -1669773.59947  -1265913.39246                  21323006.1384
        23.7504         18.2504
  23411956.2554   -4543089.36245  -3463174.84344                  23411958.9384
        11.0004          4.0004
                    192577.480 5    150061.426 5  23468075.935    23468078.505
        10.000           6.750
  21516346.8104    3742190.63647   2888038.09446                  21516348.9784
        24.5004         20.2504
  22467300.9664   -4557798.76446  -3467501.70345                  22467304.1064
        17.5004         11.2504
 95  4 12 16 35  0.0010000  0  6G18G19G27G28G29G31
  20539671.0364     -70503.79448    -34019.62546                  20539672.7124
        28.2504         19.0004
  21321903.2864   -1675557.02847  -1270419.95946                  21321905.6774
        23.5004         19.0004
  23406898.7164   -4569670.43445  -3483887.36045                  23406902.7354
        11.5004          5.2504
                    206152.077 5    160639.035 5  23470659.310    23470661.552
        10.250           6.500
  21522971.0524    3777002.32447   2915164.07446                  21522973.0094
        24.2504         19.0004
  22463381.9814   -4578393.80846  -3483549.77645                  22463385.0404
        17.7504          9.7504
 95  4 12 16 35 15.0010000  0  6G18G19G27G28G29G31
  20541737.6694     -59642.96748    -25556.64446                  20541739.5914
        28.2504         19.0004
  21320814.8254   -1681276.87647  -1274876.98346                  21320817.0524
        23.5004         19.0004
  23401847.8334   -4596212.66345  -3504569.61144                  23401850.4704
        11.5004          4.0004
                    219889.178 5    171343.265 5  23473273.489    23473275.524
        10.500           6.750
  21529620.1304    3811942.29147   2942390.01346                  21529622.0634
        24.5004         19.0004
  22459488.9814   -4598850.80546  -3499490.27445                  22459491.5714
        17.7504         10.5004
 95  4 12 16 35 30.0010000  0  6G18G19G27G28G29G31
  20543834.8254     -48623.08248    -16969.72846                  20543836.8884
        28.2504         19.0004
  21319739.1534   -1686930.13647  -1279282.12046                  21319741.2284
        23.2504         18.2504
  23396805.0994   -4622711.67745  -3525218.17244                  23396808.5564
        11.5004          4.0004
                    233791.248 5    182176.055 5  23475919.091    23475920.813
        10.750           6.500
  21536293.7784    3847011.58647   2969716.72046                  21536295.3374
        24.5004         19.0004
  22455623.6534   -4619164.72446  -3515319.28245                  22455626.2904
        17.7504          9.7504
 95  4 12 16 35 45.0010000  0  6G18G19G27G28G29G31
  20545961.3024     -37447.35248     -8261.37146                  20545962.9894
        28.0004         19.7504
  21318675.6854   -1692518.24047  -1283636.48446                  21318677.5954
        23.2504         17.7504
  23391769.9424   -4649174.03646  -3545838.17145                  23391772.0874
        12.2504          5.2504
                    247853.906 5    193133.966 5  23478595.005    23478596.997
        10.750           6.250
  21542991.4034    3882207.45947   2997142.06146                  21542992.8804
        24.5004         18.2504
  22451784.2164   -4639339.68446  -3531040.01345                  22451786.9704
        17.2504         10.5004
 95  4 12 16 36  0.0010000  0  6G18G19G27G28G29G31
  20548118.0914     -26114.29147       569.58046                  20548119.6144
        27.7504         19.0004
  21317625.1384   -1698039.07147  -1287938.43046                  21317627.2474
        23.0004         17.0004
  23386740.7944   -4675600.89046  -3566430.53745                  23386742.8684
        12.2504          5.2504
                    262078.544 5    204218.104 5  23481301.880    23481303.806
        10.500           6.250
  21549713.7244    3917534.13247   3024669.33046                  21549715.2474
        23.7504         19.0004
  22447971.9894   -4659374.69246  -3546651.69445                  22447974.4504
        17.7504         10.5004
 95  4 12 16 36 15.0010000  0  6G18G19G27G28G29G31
  20550304.7784     -14622.83848      9523.95646                  20550306.1964
        28.2504         18.2504
  21316587.0524   -1703493.95947  -1292188.98946                  21316588.9744
        23.0004         16.5004
  23381718.3564   -4701993.02546  -3586995.82244                  23381721.8844
        12.2504          4.0004
                    276465.074 5    215428.389 5  23484039.474    23484041.571
        10.500           6.250
  21556461.2864    3952993.06647   3052299.65246                  21556462.8334
        24.0004         17.0004
  22444185.9114   -4679269.77846  -3562154.34945                  22444188.8994
        17.5004          9.7504
 95  4 12 16 36 30.0010000  0  6G18G19G27G28G29G31
  20552521.5674      -2973.94548     18601.01246                  20552523.2784
        28.2504         17.7504
  21315561.1614   -1708885.96447  -1296390.55246                  21315563.1304
        23.0004         17.0004
  23376702.4114   -4728351.89746  -3607535.17145                  23376704.5094
        12.5004          6.0004
                    291012.412 5    226763.979 5  23486807.583    23486809.778
        10.250           6.250
  21563233.9504    3988583.06447   3080032.10446                  21563235.4744
        23.7504         17.0004
  22440426.5134   -4699025.79546  -3577548.62945                  22440429.9584
        17.2504          9.7504
 95  4 12 16 36 45.0010000  0  6G18G19G27G28G29G31
  20554766.9504       8826.33448     27796.02846                  20554768.5564
        28.5004         18.2504
  21314547.0914   -1714214.22747  -1300542.43946                  21314549.2944
        23.0004         16.5004
  23371693.0914   -4754677.39146  -3628048.54544                  23371696.0794
        12.2504          4.0004
                    305720.644 5    238224.938 5  23489606.536    23489608.872
        10.250           6.250
  21570031.1924    4024304.48947   3107866.97346                  21570033.3024
        23.5004         15.7504
  22436693.5214   -4718641.25646  -3592833.39345                  22436697.2354
        17.5004          9.2504
 95  4 12 16 37  0.0010000  0  7G 2G18G19G27G28G29G31
  24766335.0214    -159272.09154    -41893.64352                  24766340.3884
         7.0004          2.0004
  20557041.8334      20780.58248     37111.02446                  20557043.6384
        28.5004         19.0004
  21313545.4504   -1719477.61447  -1304643.78946                  21313547.7594
        23.0004         17.7504
  23366690.4814   -4780965.55945  -3648532.80645                  23366693.4704
        11.7504          5.2504
                    320591.737 5    249812.802 5  23492436.231    23492438.821
        10.000           6.500
  21576854.6534    4060161.52347   3135807.50446                  21576856.6574
        23.7504         18.2504
  22432987.3964   -4738116.83746  -3608009.15945                  22432990.5244
        17.5004          9.7504
 95  4 12 16 37 15.0010000  0  7G 2G18G19G27G28G29G31
  24759376.7164    -195844.64145    -70391.72442                  24759381.1104
         7.7504          2.0004
  20559346.1694      32889.86848     46546.82946                  20559347.5754
        29.0004         18.2504
  21312556.4354   -1724675.18747  -1308693.84846                  21312558.7904
        22.7504         18.2504
  23361695.1384   -4807214.09645  -3668986.20745                  23361697.2824
        11.5004          4.5004
                    335626.634 5    261528.300 5  23495297.341    23495299.821
        10.000           6.500
  21583704.2084    4096156.93147   3163855.86446                  21583706.5054
        23.5004         18.2504
  22429308.1614   -4757451.47746  -3623075.10245                  22429311.5834
        17.2504          9.7504
 95  4 12 16 37 30.0010000  0  7G 2G18G19G27G28G29G31
  24752428.9114    -232351.90645    -98838.89542                  24752432.3564
         7.7504          2.0004
  20561678.1924      45145.44248     56096.62146                  20561679.8924
        28.5004         19.0004
  21311578.9814   -1729812.39047  -1312696.86246                  21311581.2904
        23.0004         18.2504
  23356706.7944   -4833427.08045  -3689411.88945                  23356709.4314
        11.0004          5.2504
                    350819.141 5    273366.617 5  23498188.302    23498191.036
         9.750           6.750
  21590579.5754    4132284.94447   3192007.55046                  21590581.7554
        23.7504         19.0004
  22425654.9274   -4776649.29946  -3638034.43345                  22425657.9974
        17.5004         11.2504
 95  4 12 16 37 45.0010000  0  7G 2G18G19G27G28G29G31
  24745494.2394    -268793.48645   -127234.91142                  24745499.0324
         7.7504          2.0004
  20564038.7554      57548.23048     65761.12746                  20564040.4074
        28.5004         20.2504
  21310613.2244   -1734888.08847  -1316651.95146                  21310615.2744
        23.2504         17.7504
  23351725.9504   -4859601.84045  -3709807.81245                  23351729.7594
        10.7504          4.5004
                    366171.943 5    285329.836 5  23501109.958    23501112.364
         9.750           6.500
  21597480.0754    4168548.13447   3220264.56846                  21597482.0914
        23.7504         18.2504
  22422028.3494   -4795707.67546  -3652885.11145                  22422031.7124
        17.2504         10.5004
 95  4 12 16 38  0.0010000  0  7G 2G18G19G27G28G29G31
  24738572.1304    -305169.61345   -155579.91942                  24738577.5794
         7.7504          2.0004
  20566425.9424      70094.61848     75537.52446                  20566427.8174
        28.2504         19.0004
  21309658.9114   -1739903.38147  -1320559.97146                  21309660.9744
        23.5004         17.7504
  23346751.8564   -4885741.94945  -3730176.71545                  23346755.5604
        11.0004          4.5004
                    381684.864 5    297417.830 5  23504062.130    23504064.485
        10.000           6.750
  21604406.5674    4204946.57747   3248626.97646                  21604408.4424
        23.7504         17.7504
  22418427.5754   -4814629.28046  -3667629.19645                  22418430.6814
        17.7504          9.7504
 95  4 12 16 38 15.0010000  0  7G 2G18G19G27G28G29G31
  24731662.0444    -341480.83045   -183874.35642                  24731666.9894
         7.5004          2.0004
  20568840.2244      82781.67448     85423.54546                  20568842.0524
        28.2504         19.7504
  21308714.9274   -1744863.86847  -1324425.28146                  21308716.8024
        23.5004         18.2504
  23341784.2554   -4911846.89245  -3750518.21145                  23341787.1034
        11.5004          4.5004
                    397357.511 5    309630.277 5  23507044.591    23507046.923
        10.000           6.750
  21611358.0754    4241477.14347   3277092.33146                  21611359.9154
        23.7504         17.0004
  22414853.0914   -4833416.60646  -3682268.65845                  22414855.5634
        18.0004         11.2504
 95  4 12 16 38 30.0010000  0  7G 2G18G19G27G28G29G31
  24724765.0754    -377725.99245   -212117.29843                  24724771.0284
         7.5004          2.5004
  20571280.8334      95607.41348     95417.62246                  20571282.4034
        28.0004         19.0004
  21307781.1384   -1749770.52647  -1328248.65246                  21307783.1884
        23.0004         17.7504
  23336823.6304   -4937916.79045  -3770832.42645                  23336826.1384
        11.2504          4.5004
                    413188.711 5    321966.277 5  23510057.169    23510059.146
        10.000           6.500
  21618333.8884    4278136.12347   3305657.75746                  21618335.8104
        23.2504         17.7504
  22411303.1384   -4852071.24046  -3696804.73345                  22411305.4584
        18.0004         10.5004
 95  4 12 16 38 45.0010000  0  7G 2G18G19G27G28G29G31
  24717880.3564    -413905.65845   -240309.23341                  24717884.4234
         7.5004          1.2504
  20573747.8024     108570.86348    105519.00146                  20573749.3964
        28.2504         19.0004
  21306857.6774   -1754622.68847  -1332029.55346                  21306859.7164
        23.0004         17.7504
  23331869.4274   -4963951.83745  -3791119.46845                  23331871.3724
        11.5004          5.2504
                    429178.049 5    334425.497 5  23513099.935    23513101.649
        10.250           6.250
  21625334.4274    4314922.60747   3334322.52746                  21625335.9384
        23.5004         17.7504
  22407778.3254   -4870593.16746  -3711237.38745                  22407780.7044
        17.7504         11.2504
 95  4 12 16 39  0.0010000  0  7G 2G18G19G27G28G29G31
  24711008.9114    -450014.11745   -268445.68343                  24711015.9464
         7.5004          3.2504
  20576242.9894     121681.99248    115735.45746                  20576244.2434
        28.5004         19.0004
  21305946.3334   -1759413.10147  -1335762.35346                  21305948.2904
        23.0004         18.2504
  23326923.3644   -4989944.89445  -3811373.77345                  23326925.0284
        11.7504          5.2504
                    445330.144 5    347011.541 5  23516173.458    23516175.169
        10.250           6.250
  21632359.6924    4351841.13347   3363090.19046                  21632361.5094
        23.5004         18.2504
  22404280.0524   -4888977.98646  -3725563.20445                  22404282.4784
        18.2504          9.7504
 95  4 12 16 39 15.0010000  0  7G 2G18G19G27G28G29G31
  24704152.325                       -4798.08915
         7.750
  20578766.5134     134942.44348    126068.27946                  20578767.9194
        28.2504         19.7504
  21305046.4274   -1764141.05047  -1339446.46746                  21305048.5834
        22.7504         17.7504
  23321984.7394   -5015896.68846  -3831595.92445                  23321987.3764
        12.2504          4.5004
                    461644.885 5    359724.321 5  23519278.067    23519280.056
        10.250           6.250
  21639410.3174    4388890.72747   3391959.99546                  21639412.0754
        24.0004         17.7504
  22400808.0054   -4907223.07446  -3739780.15245                  22400810.1964
        17.7504         10.5004
 95  4 12 16 39 30.0010000  0  7G 2G18G19G27G28G29G31
  24697310.7004                     -40753.96945
         8.0004
  20581318.7244     148354.87548    136519.51646                  20581320.1064
        28.5004         20.2504
  21304160.4274   -1768797.66647  -1343074.99346                  21304162.3494
        22.7504         18.2504
  23317054.7084   -5041801.90245  -3851781.80145                  23317056.8534
        11.7504          4.5004
                    478127.254 5    372567.732 5  23522414.528    23522416.294
        10.250           6.250
  21646486.3724    4426076.07447   3420935.56446                  21646488.0834
        23.7504         17.7504
  22397363.9894   -4925322.59946  -3753883.66445                  22397366.5214
        17.7504         10.5004
 95  4 12 16 39 45.0010000  0  7G 2G18G19G27G28G29G31
  24690480.8884                     -76644.21445
         8.0004
  20583898.0134     161909.03848    147081.19646                  20583899.4784
        28.0004         18.2504
  21303286.6144   -1773390.10047  -1346653.51946                  21303288.5134
        23.0004         17.0004
  23312131.4424   -5067672.04845  -3871940.34045                  23312134.8644
        11.5004          5.2504
                    494766.372 5    385533.282 5  23525580.755    23525582.790
        10.000           6.000
  21653586.2084    4463384.47847   3450007.03846                  21653587.7084
        24.0004         17.0004
  22393944.4894   -4943288.82546  -3767883.30845                  22393947.4074
        17.2504         10.5004
 95  4 12 16 40  0.0010000  0  7G 2G18G19G27G28G29G31
  24683664.4504    -112462.11545     -9295.78453                  24683667.5564
         8.0004          2.5004
  20586505.5134     175612.19347    157758.97446                  20586507.1424
        27.2504         17.0004
  21302426.3494   -1777911.96147  -1350177.04646                  21302427.9194
        22.7504         16.5004
  23307216.1854   -5093502.43045  -3892067.89544                  23307219.4894
        11.0004          4.0004
                    511567.209 5    398624.833 5  23528777.856    23528779.782
         9.750           6.000
  21660709.6694    4500819.61347   3479177.26246                  21660711.1694
        23.2504         16.5004
  22390551.9584   -4961118.52146  -3781776.55745                  22390555.2984
        17.2504         11.2504
 95  4 12 16 40 15.0010000  0  7G 2G18G19G27G28G29G31
  24676862.4974    -148207.40345    -37149.22843                  24676866.3174
         8.0004          2.5004
  20589141.4974     189465.42847    168553.69046                  20589142.9974
        27.0004         17.7504
  21301579.1854   -1782363.21647  -1353645.54846                  21301581.0014
        23.0004         17.0004
  23302308.3494   -5119293.18445  -3912164.56945                  23302312.3804
        11.5004          4.5004
                    528527.918 5    411840.979 5  23532005.333    23532007.579
         9.750           6.000
  21667856.3964    4538376.68747   3508442.49646                  21667858.0714
        23.5004         16.5004
  22387185.1614   -4978810.14646  -3795562.22945                  22387188.2554
        17.2504         10.5004
 95  4 12 16 40 30.0010000  0  7G 2G18G19G27G28G29G31
  24670073.3564    -183882.04945    -64947.62643                  24670079.4384
         7.7504          2.5004
  20591806.7864     203472.24747    179468.09346                  20591808.3684
        27.0004         16.5004
  21300745.9664   -1786741.29847  -1357057.04346                  21300747.8064
        23.0004         17.0004
  23297408.9744   -5145040.84545  -3932227.68144                  23297412.4544
        11.5004          4.0004
                    545648.372 5    425181.588 5  23535263.411    23535265.450
         9.750           6.000
  21675025.9894    4576055.07847   3537802.27146                  21675027.7594
        23.0004         16.5004
  22383845.5364   -4996360.60746  -3809237.89145                  22383848.7354
        17.7504         11.2504
 95  4 12 16 40 45.0010000  0  7G 2G18G19G27G28G29G31
  24663297.5754    -219487.08245    -92691.78741                  24663303.3294
         7.5004          1.2504
  20594501.9274     217634.39547    190503.52546                  20594503.5214
        27.0004         17.0004
  21299927.4424   -1791041.49847  -1360407.84246                  21299929.2824
        23.0004         17.7504
  23292516.8644   -5170746.01645  -3952257.66945                  23292520.5324
        11.2504          5.2504
                    562929.681 5    438647.548 5  23538551.911    23538554.103
        10.000           6.250
  21682219.3884    4613856.03047   3567257.54946                  21682221.3804
        23.2504         17.0004
  22380533.2394   -5013766.05246  -3822800.55945                  22380535.7124
        18.0004         11.2504
 95  4 12 16 41  0.0010000  0  6G18G19G27G28G29G31
  20597225.9814     231950.22347    201658.71346                  20597227.7634
        26.7504         16.5004
  21299123.1854   -1795267.39047  -1363700.74846                  21299125.2714
        22.7504         18.2504
  23287633.3254   -5196411.17845  -3972256.49945                  23287637.0524
        11.0004          4.5004
                    580369.405 5    452236.940 5  23541870.591    23541872.767
         9.750           6.250
  21689435.7244    4651777.34747   3596806.61346                  21689437.5174
        23.0004         17.0004
  22377248.1854   -5031029.76846  -3836252.78745                  22377250.5284
        18.2504         11.2504
 95  4 12 16 41 15.0010000  0  6G18G19G27G28G29G31
  20599979.2784     246418.90847    212933.00946                  20599980.8494
        27.2504         18.2504
  21298333.7634   -1799417.24447  -1366934.40146                  21298335.8134
        22.7504         17.7504
  23282757.2714   -5222034.15345  -3992222.43245                  23282761.6774
        11.2504          5.2504
                    597969.329 5    465951.172 5  23545219.755    23545221.833
         9.750           6.250
  21696675.1774    4689819.50347   3626449.84046                  21696676.7944
        23.2504         17.0004
  22373990.7004   -5048149.06646  -3849592.47745                  22373992.7744
        18.5004         11.7504
 95  4 12 16 41 30.0010000  0  7G 2G18G19G27G28G29G31
  24643046.6854     -25956.22344
         7.0004
  20602762.0754     261039.60647    224325.75746                  20602763.5994
        27.5004         17.7504
  21297558.5834   -1803490.51547  -1370108.37646                  21297560.6694
        23.0004         17.7504
  23277890.1614   -5247613.49745  -4012154.37645                  23277893.1264
        11.7504          5.2504
                    615731.357 5    479791.710 5  23548599.614    23548601.872
         9.750           6.250
  21703937.8174    4727985.29447   3656189.39946                  21703939.4234
        23.2504         16.5004
  22370760.6384   -5065121.63546  -3862817.83845                  22370763.1464
        18.2504         11.2504
 95  4 12 16 41 45.0010000  0  7G 2G18G19G27G28G29G31
  24636320.1384     -61304.79045
         7.5004
  20605572.3564     275808.73047    235834.16846                  20605573.9034
        27.5004         18.2504
  21296796.2394   -1807497.03447  -1373230.34046                  21296798.3844
        23.0004         18.2504
  23273029.5364   -5273157.52346  -4032058.81145                  23273031.7284
        12.2504          5.2504
                    633647.817 5    493752.580 5  23552008.849    23552011.126
         9.750           6.250
  21711222.4744    4766267.14547   3686019.40546                  21711224.0324
        23.5004         16.5004
  22367557.1774   -5081956.41546  -3875935.83045                  22367560.0244
        18.0004         11.2504
 95  4 12 16 42  0.0010000  0  7G 2G18G19G27G28G29G31
  24629606.2084     -96588.35845     -1830.38651                  24629611.1774
         8.0004          0.7504
  20608412.5364     290733.15747    247463.58346                  20608414.0954
        27.7504         19.0004
  21296046.4584   -1811436.38747  -1376299.96246                  21296048.6264
        22.5004         18.2504
  23268175.9664   -5298662.53046  -4051932.82445                  23268177.4074
        12.5004          5.2504
                    651723.812 5    507837.778 5  23555448.622    23555450.950
        10.000           6.250
  21718529.8334    4804666.85047   3715941.23646                  21718531.4974
        23.2504         17.0004
  22364381.6464   -5098644.73946  -3888939.69845                  22364383.7204
        18.5004         10.5004
 95  4 12 16 42 15.0010000  0  7G 2G18G19G27G28G29G31
  24622903.9814    -131808.55345    -29274.68143                  24622909.7714
         8.5004          2.5004
  20611281.2394     305810.24547    259211.96446                  20611282.9384
        27.5004         18.2504
  21295308.4114   -1815314.32847  -1379321.73646                  21295310.5914
        22.5004         19.7504
  23263329.6694   -5324131.37046  -4071778.66545                  23263331.4034
        13.0004          6.0004
                    669956.525 5    522045.086 5  23558918.177    23558920.353
        10.000           6.500
  21725859.0284    4843181.28447   3745952.46746                  21725860.4584
        23.7504         18.2504
  22361233.2394   -5115187.62046  -3901830.24545                  22361235.8994
        18.0004         11.7504
 95  4 12 16 42 30.0010000  0  7G 2G18G19G27G28G29G31
  24616214.8724    -166963.62845    -56668.20842                  24616218.4814
         8.2504          2.0004
  20614180.2394     321044.19047    271082.56046                  20614181.6924
        27.0004         19.0004
  21294582.4664   -1819129.01747  -1382294.22046                  21294585.0094
        22.2504         19.0004
  23258491.0214   -5349559.45046  -4091592.72745                  23258493.3884
        13.0004          6.0004
                    688350.454 5    536378.016 5  23562418.606    23562420.579
        10.250           6.250
  21733210.7554    4881815.82147   3776057.28746                  21733212.8064
        23.5004         17.0004
  22358113.9744   -5131579.04746  -3914602.76345                  22358116.9974
        18.0004         11.2504
 95  4 12 16 42 45.0010000  0  7G 2G18G19G27G28G29G31
  24609535.7784    -202059.19845    -84015.36243                  24609541.1464
         8.0004          2.5004
  20617107.7864     336428.57047    283070.38646                  20617109.6264
        26.7504         19.0004
  21293866.9974   -1822889.20247  -1385224.24146                  21293869.4114
        22.5004         19.0004
  23253658.3644   -5374953.67646  -4111380.42145                  23253659.7944
        13.2504          6.0004
                    706900.200 5    550832.366 5  23565948.638    23565950.481
        10.250           6.250
  21740585.2554    4920568.77647   3806254.38246                  21740586.7434
        23.2504         17.7504
  22355022.3724   -5147826.04846  -3927262.74746                  22355025.0674
        18.2504         12.5004
 95  4 12 16 43  0.0010000  0  7G 2G18G19G27G28G29G31
  24602868.5214    -237095.54345   -111316.37441                  24602874.7204
         7.7504          0.7504
  20620063.7314     351962.21947    295174.52346                  20620065.2554
        27.0004         17.0004
  21293161.6924   -1826597.40247  -1388113.74546                  21293164.0244
        22.7504         19.0004
  23248833.0674   -5400312.98346  -4131140.89445                  23248834.8964
        13.7504          6.0004
                    725605.643 5    565408.043 5  23569508.255    23569510.079
        10.250           6.250
  21747982.6224    4959443.36247   3836546.25046                  21747984.5794
        23.5004         16.5004
  22351958.3724   -5163928.36246  -3939809.99745                  22351961.1144
        18.2504         11.7504
 95  4 12 16 43 15.0010000  0  7G 2G18G19G27G28G29G31
  24596212.5994    -272072.46245   -138571.10242                  24596215.7744
         7.7504          2.0004
  20623047.5834     367642.60647    307393.00146                  20623049.2824
        27.0004         19.0004
  21292465.3494   -1830255.83047  -1390964.47046                  21292467.5874
        22.7504         18.2504
  23244013.4194   -5425638.83546  -4150875.31245                  23244014.8724
        13.2504          6.0004
                    744464.129 5    580102.969 5  23573097.091    23573098.782
        10.500           6.250
  21755403.5214    4998439.19147   3866932.59746                  21755405.3494
        23.2504         16.5004
  22348921.5604   -5179888.37146  -3952246.34645                  22348924.4194
        18.5004         10.5004
 95  4 12 16 43 30.0010000  0  7G 2G18G19G27G28G29G31
  24589567.7314    -306989.63944   -165779.29042                  24589572.5484
         7.2504          2.0004
  20626059.6384     383470.79347    319726.64946                  20626060.9854
        27.5004         19.0004
  21291779.3414   -1833862.31247  -1393774.71646                  21291781.6854
        23.2504         19.0004
  23239200.2314   -5450932.22446  -4170584.42645                  23239202.2354
        12.7504          6.0004
                    763476.089 5    594917.487 5  23576714.708    23576716.673
        10.250           6.250
  21762847.5214    5037558.21347   3897414.93746                  21762849.8294
        23.0004         17.0004
  22345912.0604   -5195703.13346  -3964569.51145                  22345914.0994
        18.5004         11.7504
 95  4 12 16 43 45.0010000  0  7G 2G18G19G27G28G29G31
  24582934.9894    -341843.43844   -192938.06542                  24582939.6534
         7.2504          2.0004
  20629101.0444     399452.96447    332180.28246                  20629102.3924
        27.0004         17.0004
  21291103.1924   -1837415.40547  -1396543.35646                  21291105.4194
        22.7504         17.0004
  23234392.8884   -5476192.62046  -4190267.82645                  23234394.6694
        12.2504          4.5004
                    782643.455 5    609853.093 5  23580362.286    23580364.161
        10.000           6.000
  21770315.8334    5076803.39247   3927995.58746                  21770317.9664
        23.0004         17.0004
  22342930.3024   -5211370.68746  -3976777.98545                  22342932.2594
        18.5004         10.5004
 95  4 12 16 44  0.0010000  0  7G 2G18G19G27G28G29G31
  24576316.9194    -376626.17345   -220041.45642                  24576323.1534
         7.7504          2.0004
  20632172.6614     415594.56947    344758.14746                  20632174.0564
        27.0004         17.7504
  21290438.3804   -1840908.87147  -1399265.53246                  21290440.5484
        22.7504         17.7504
  23229593.4584   -5501414.56046  -4209921.28445                  23229596.5404
        12.7504          5.2504
                    801972.842 5    624914.967 5  23584040.200    23584042.450
         9.750           6.250
  21777808.9354    5116179.77247   3958678.47146                  21777811.0324
        23.2504         16.5004
  22339978.2164   -5226883.47346  -3988865.84545                  22339980.6184
        18.7504         11.2504
 95  4 12 16 44 15.0010000  0  7G 2G18G19G27G28G29G31
  24569709.7784    -411344.73945   -247094.85143                  24569716.8844
         8.0004          2.5004
  20635272.7244     431885.10947    357452.07446                  20635274.1774
        27.0004         17.7504
  21289783.9664   -1844349.15847  -1401946.27946                  21289786.0994
        22.7504         17.0004
  23224799.9504   -5526606.19046  -4229551.11745                  23224802.8214
        12.5004          6.0004
                    821456.675 5    640097.175 5  23587747.778    23587750.278
         9.750           6.250
  21785325.5524    5155681.80347   3989459.26246                  21785327.6964
        23.0004         15.7504
  22337054.1534   -5242249.45846  -4000839.32145                  22337056.1464
        18.7504          9.7504
 95  4 12 16 44 30.0010000  0  7G 2G18G19G27G28G29G31
  24563115.6614    -445998.32145   -274097.59743                  24563119.7514
         8.0004          3.2504
  20638400.9194     448324.98247    370262.36046                  20638402.8064
        27.0004         18.2504
  21289139.5364   -1847733.95347  -1404583.78446                  21289141.7864
        23.0004         19.7504
  23220011.8024   -5551765.37846  -4249155.67445                  23220015.2474
        12.2504          5.2504
                    841096.377 5    655400.832 5  23591485.013    23591487.388
         9.500           6.500
  21792867.9744    5195315.59747   4020342.72146                  21792870.0244
        23.5004         17.0004
  22334157.7394   -5257469.98446  -4012699.46245                  22334160.1774
        18.2504         11.7504
 95  4 12 16 44 45.0010000  0  7G 2G18G19G27G28G29G31
  24556534.0444    -480586.69845   -301049.54142                  24556537.9934
         8.5004          2.0004
  20641557.8254     464913.54747    383188.51246                  20641559.6184
        27.0004         17.7504
  21288506.2314   -1851061.96847  -1407177.03846                  21288508.3994
        23.0004         18.2504
  23215229.9424   -5576893.13046  -4268735.74745                  23215233.4584
        12.0004          5.2504
                    860892.230 5    670826.172 5  23595252.091    23595254.614
         9.750           6.500
  21800435.6224    5235084.46647   4051331.44446                  21800437.4384
        23.2504         16.5004
  22331289.0834   -5272546.15846  -4024447.10945                  22331291.8024
        19.0004         10.5004
 95  4 12 16 45  0.0010000  0  7G 2G18G19G27G28G29G31
  24549964.7554    -515107.48045   -327948.82543                  24549968.9854
         8.5004          2.5004
  20644742.8334     481651.49147    396231.06446                  20644744.5214
        27.5004         18.2504
  21287885.1694   -1854326.36447  -1409720.72346                  21287887.2434
        23.0004         19.7504
  23210454.8024   -5601987.16346  -4288289.52145                  23210458.5874
        12.2504          6.0004
                    880847.198 5    686375.496 5  23599049.560    23599051.774
         9.750           6.750
  21808029.3104    5274990.64247   4082427.14946                  21808031.1144
        23.0004         17.0004
  22328447.9584   -5287475.95346  -4036080.70445                  22328450.7474
        19.0004         11.7504
 95  4 12 16 45 15.0010000  0  7G 2G18G19G27G28G29G31
  24543408.6384    -549557.12245   -354792.69641                  24543412.0244
         8.5004          1.2504
  20647956.5284     498538.30147    409389.61046                  20647958.0404
        27.7504         19.0004
  21287276.6854   -1857523.66647  -1412212.12346                  21287278.8884
        23.2504         19.7504
  23205685.3644   -5627048.17246  -4307817.57145                  23205688.6344
        12.7504          6.0004
                    900961.550 5    702049.019 5  23602877.388    23602879.579
        10.000           6.750
  21815649.3254    5315031.76947   4113628.01446                  21815651.0714
        23.5004         16.5004
  22325634.8334   -5302259.67146  -4047600.46045                  22325637.5754
        19.5004         11.7504
 95  4 12 16 45 30.0010000  0  7G 2G18G19G27G28G29G31
  24536865.7474    -583938.41345   -381583.25541                  24536868.6774
         8.2504          1.2504
  20651197.4664     515569.15647    422660.40746                  20651198.9074
        27.7504         19.0004
  21286680.4354   -1860656.26047  -1414653.10246                  21286682.3684
        23.0004         18.2504
  23200922.2554   -5652083.15146  -4327325.33845                  23200924.5284
        13.5004          6.0004
                    921230.699 5    717843.158 5  23606734.411    23606736.513
        10.000           6.750
  21823292.3414    5355197.81647   4144926.21246                  21823294.1104
        23.0004         17.0004
  22322848.2394   -5316903.22246  -4059010.99545                  22322850.6304
        19.7504         11.7504
 95  4 12 16 45 45.0010000  0  7G 2G18G19G27G28G29G31
  24530337.2164    -618247.07645   -408317.29243                  24530343.1814
         7.7504          3.2504
  20654466.3414     532746.52747    436045.36246                  20654467.5364
        27.7504         20.2504
  21286096.3804   -1863725.57947  -1417044.78246                  21286098.6064
        23.0004         18.2504
  23196163.5604   -5677090.33046  -4346811.43545                  23196165.9974
        13.7504          6.5004
                    941657.239 5    733759.947 5  23610621.481    23610623.649
        10.000           6.750
  21830959.4114    5395488.05447   4176321.19446                  21830961.2634
        23.0004         17.0004
  22320088.6224   -5331404.87946  -4070310.97646                  22320090.9194
        19.5004         12.5004
 95  4 12 16 46  0.0010000  0  7G 2G18G19G27G28G29G31
  24523822.1064    -652484.87445   -434996.03643                  24523827.8254
         8.2504          2.5004
  20657761.6694     550065.32847    449540.52746                  20657763.1694
        27.2504         19.0004
  21285523.2164   -1866737.57247  -1419391.78846                  21285525.2434
        23.0004         19.0004
  23191410.0284   -5702071.13546  -4366276.98545                  23191411.7164
        14.0004          7.2504
                    962238.122 5    749797.007 5  23614537.950    23614539.884
        10.000           6.750
  21838649.1534    5435897.76247   4207809.26746                  21838651.2164
        23.2504         16.5004
  22317355.2784   -5345769.07946  -4081503.84046                  22317357.5754
        19.2504         13.0004
 95  4 12 16 46 15.0010000  0  6G18G19G27G28G29G31
  20661083.9814     567523.34647    463144.16846                  20661085.5874
        27.0004         18.2504
  21284961.5834   -1869689.73547  -1421692.17746                  21284963.4354
        23.2504         19.0004
  23186661.8414   -5727023.29646  -4385720.19645                  23186663.8684
        14.2504          6.5004
                    982974.677 5    765955.365 5  23618483.935    23618485.978
        10.000           6.750
  21846362.2084    5476428.48847   4239391.63246                  21846364.1064
        23.5004         17.7504
  22314648.3804   -5359993.47446  -4092587.77446                  22314650.7244
        19.2504         12.5004
 95  4 12 16 46 30.0010000  0  7G 2G18G19G27G28G29G31
  24510832.271      -24994.68415
         8.500
  20664432.6854     585121.68247    476857.15546                  20664433.9744
        26.7504         19.7504
  21284411.7084   -1872580.20347  -1423944.48646                  21284413.6884
        23.5004         18.2504
  23181919.1924   -5751944.52046  -4405139.32945                  23181921.4894
        14.0004          6.5004
                   1003866.647 5    782234.826 5  23622459.528    23622461.688
        10.000           6.750
  21854097.7784    5517079.29247   4271067.57046                  21854099.8764
        23.5004         17.0004
  22311968.0364   -5374078.07346  -4103562.77146                  22311970.6264
        19.0004         13.0004
 95  4 12 16 46 45.0010000  0  7G 2G18G19G27G28G29G31
  24504358.950      -59013.931 5
         8.500
  20667809.3884     602866.33547    490684.15246                  20667810.8174
        27.0004         18.2504
  21283874.5914   -1875401.92247  -1426143.22846                  21283876.4424
        23.2504         19.7504
  23177183.5674   -5776827.99246  -4424529.03345                  23177185.2204
        13.7504          6.5004
                   1024919.249 5    798639.451 5  23626465.599    23626467.888
        10.000           6.750
  21861856.7164    5557851.99447   4302838.50146                  21861858.6734
        24.0004         18.2504
  22309315.6464   -5388015.84546  -4114423.35645                  22309318.4234
        18.7504         11.2504
 95  4 12 16 47  0.0010000  0  7G 2G18G19G27G28G29G31
  24497897.8564     -92965.04945
         8.2504
  20671212.1774     620748.39447    504618.22046                  20671213.6884
        27.0004         18.2504
  21283348.8804   -1878163.29447  -1428294.94346                  21283350.9424
        22.7504         19.0004
  23172454.0914   -5801679.83546  -4443894.08045                  23172457.0324
        12.7504          6.5004
                   1046123.766 5    815162.456 5  23630500.599    23630502.720
         9.750           6.750
  21869636.0994    5598733.98447   4334694.58346                  21869638.2084
        23.5004         17.7504
  22306690.2864   -5401812.49246  -4125173.97645                  22306693.2634
        19.0004         11.7504
 95  4 12 16 47 15.0010000  0  7G 2G18G19G27G28G29G31
  24491452.3024    -126837.17345
         8.5004
  20674643.3254     638778.61147    518667.73846                  20674644.8134
        27.2504         18.2504
  21282836.0444   -1880857.65347  -1430394.44646                  21282838.3064
        22.2504         18.2504
  23167733.2164   -5826489.12546  -4463225.98045                  23167736.6264
        12.5004          6.0004
                   1067488.554 5    831810.351 5  23634566.294    23634568.489
         9.750           6.500
  21877437.2864    5639730.31047   4366639.75946                  21877439.4424
        22.7504         16.5004
  22304093.6304   -5415457.80346  -4135806.67146                  22304096.4424
        18.7504         12.5004
 95  4 12 16 47 30.0010000  0  7G 2G18G19G27G28G29G31
  24485021.5214    -160633.50145    -24576.45453                  24485026.1614
         8.5004          2.5004
  20678102.2554     656955.01947    532831.17146                  20678103.6854
        27.5004         18.2504
  21282334.6224   -1883492.87747  -1432447.86946                  21282336.9784
        22.2504         18.2504
  23163019.8174   -5851259.45746  -4482527.52445                  23163022.8884
        12.5004          5.2504
                   1089010.044 5    848580.342 5  23638661.708    23638663.790
         9.750           6.500
  21885259.3804    5680836.62447   4398670.64246                  21885261.3254
        22.2504         16.5004
  22301525.5284   -5428954.60646  -4146323.63645                  22301528.1884
        19.2504         11.7504
 95  4 12 16 47 45.0010000  0  7G 2G18G19G27G28G29G31
  24478602.1924    -194359.21245    -50856.21543                  24478608.2514
         8.0004          2.5004
  20681588.9194     675277.14047    547108.14446                  20681590.5484
        27.5004         19.7504
  21281843.3254   -1886074.30447  -1434459.36646                  21281845.5634
        22.7504         19.0004
  23158313.3334   -5875991.40146  -4501799.18045                  23158316.1224
        12.5004          6.0004
                   1110686.776 5    865471.308 5  23642786.364    23642788.813
         9.750           6.750
  21893103.1384    5722055.92147   4430789.56346                  21893105.2944
        22.2504         16.5004
  22298985.1304   -5442303.61146  -4156725.44845                  22298987.6854
        19.0004         11.7504
 95  4 12 16 48  0.0010000  0  7G 2G18G19G27G28G29G31
  24472197.2164    -228018.62345    -77084.29543                  24472202.9704
         8.0004          3.2504
  20685102.5524     693743.26547    561497.33846                  20685103.9814
        27.0004         17.7504
  21281361.7554   -1888604.18247  -1436430.69246                  21281364.2164
        22.5004         17.7504
  23153614.3724   -5900685.82246  -4521041.55945                  23153618.0284
        12.7504          6.0004
                   1132516.287 5    882481.313 5  23646940.591    23646942.786
         9.750           6.500
  21900968.1224    5763388.71647   4462996.93346                  21900970.3604
        21.7504         15.7504
  22296473.2244   -5455504.24546  -4167011.62945                  22296475.9784
        18.7504         11.2504
 95  4 12 16 48 15.0010000  0  7G 2G18G19G27G28G29G31
  24465804.5754    -261611.33045   -103260.38242                  24465810.3064
         8.2504          2.0004
  20688644.7314     712356.78747    576001.36746                  20688646.5364
        27.0004         18.2504
  21280892.2944   -1891073.68647  -1438354.98446                  21280894.5914
        23.0004         19.0004
  23148923.3724   -5925338.24046  -4540251.22945                  23148926.7594
        13.2504          6.5004
                   1154501.996 5    899613.028 5  23651124.419    23651126.517
         9.750           6.750
  21908857.0134    5804841.01147   4495297.40746                  21908859.2164
        22.5004         15.0004
  22293990.2394   -5468551.24846  -4177178.12046                  22293993.1224
        19.0004         12.5004
 95  4 12 16 48 30.0010000  0  7G 2G18G19G27G28G29G31
  24459424.8644    -295135.51045   -129383.12642                  24459430.9464
         8.0004          2.0004
  20692215.4274     731120.91747    590622.75546                  20692217.2204
        26.5004         17.0004
  21280434.0994   -1893479.95747  -1440230.00946                  21280436.2434
        22.7504         17.0004
  23144240.7394   -5949948.45746  -4559428.02845                  23144243.3064
        14.0004          6.5004
                   1176644.689 5    916867.073 5  23655337.958    23655340.153
         9.750           6.500
  21916767.8884    5846413.63847   4527691.64046                  21916769.7514
        22.2504         14.5004
  22291536.7394   -5481443.96946  -4187224.39045                  22291539.6344
        18.5004         11.2504
 95  4 12 16 48 45.0010000  0  7G 2G18G19G27G28G29G31
  24453058.6854    -328594.00745   -155454.67043                  24453063.9934
         8.2504          2.5004
  20695814.1614     750032.44447    605359.01446                  20695815.6964
        26.5004         19.0004
  21279987.7784   -1895826.40147  -1442058.39946                  21279990.2744
        22.7504         19.0004
  23139564.9274   -5974520.19746  -4578574.81445                  23139567.4704
        14.5004          7.2504
                   1198940.982 5    934240.799 5  23659580.872    23659583.153
         9.750           6.750
  21924701.5134    5888103.71147   4560177.40546                  21924703.3414
        22.5004         15.7504
  22289112.2394   -5494186.34846  -4197153.50145                  22289115.1574
        19.0004         11.2504
 95  4 12 16 49  0.0010000  0  7G 2G18G19G27G28G29G31
  24446704.9194    -361983.59945   -181472.49443                  24446709.6884
         8.5004          2.5004
  20699441.3494     769093.19647    620211.53446                  20699443.1184
        26.2504         17.7504
  21279552.5054   -1898112.73947  -1443839.96246                  21279554.7784
        22.7504         19.0004
  23134895.9894   -5999052.96446  -4597691.24945                  23134898.4154
        14.2504          6.5004
                   1221392.956 5    951735.840 5  23663853.497    23663855.563
         9.750           6.750
  21932657.8254    5929914.82647   4592757.47746                  21932660.0284
        22.7504         15.0004
  22286716.2944   -5506777.55846  -4206964.81545                  22286718.8604
        19.0004         11.2504
 95  4 12 16 49 15.0010000  0  7G 2G18G19G27G28G29G31
  24440364.1064    -395307.37845   -207439.07343                  24440369.3454
         8.5004          3.2504
  20703096.4354     788302.17447    635179.56846                  20703098.4744
        26.2504         19.7504
  21279128.5674   -1900341.75447  -1445576.85546                  21279130.8414
        22.7504         19.0004
  23130234.1534   -6023550.07846  -4616779.89645                  23130236.4974
        14.2504          7.2504
                   1243998.136 5    969350.266 5  23668154.958    23668157.216
         9.750           6.750
  21940637.2314    5971847.85147   4625432.55746                  21940639.5994
        22.2504         16.5004
  22284347.7554   -5519221.92846  -4216661.71446                  22284350.1344
        19.0004         12.5004
 95  4 12 16 49 30.0010000  0  7G 2G18G19G27G28G29G31
  24434035.1924    -428564.22045   -233353.46443                  24434038.0634
         8.5004          3.2504
  20706780.5674     807661.70647    650264.91246                  20706782.6654
        26.7504         19.0004
  21278715.9114   -1902509.52847  -1447266.03546                  21278718.0794
        23.0004         19.0004
  23125578.5134   -6048015.14846  -4635843.55945                  23125580.9744
        14.0004          6.5004
                   1266757.695 5    987084.995 5  23672485.872    23672488.231
         9.750           6.750
  21948640.6144    6013905.60247   4658204.81646                  21948642.8064
        22.5004         15.7504
  22282007.7394   -5531519.21646  -4226244.00245                  22282010.2714
        19.2504         11.7504
 95  4 12 16 49 45.0010000  0  7G 2G18G19G27G28G29G31
  24427719.1144    -461756.69445   -259217.68843                  24427723.3214
         8.5004          2.5004
  20710492.6854     827169.03447    665465.43046                  20710494.7124
        26.7504         21.0004
  21278315.5914   -1904613.72747  -1448905.66146                  21278317.9814
        23.5004         19.0004
  23120928.8644   -6072448.76346  -4654882.72645                  23120931.7004
        14.0004          6.0004
                   1289671.160 5   1004939.644 5  23676845.880    23676848.489
         9.500           6.750
  21956667.5134    6056087.58847   4691073.89346                  21956669.5994
        22.2504         16.5004
  22279695.4504   -5543670.43946  -4235712.46845                  22279698.0754
        19.5004         11.7504
 95  4 12 16 50  0.0010000  0  7G 2G18G19G27G28G29G31
  24421415.3804    -494879.66645   -285027.74143                  24421420.1264
         8.5004          2.5004
  20714233.8414     846828.79847    680784.72046                  20714235.9974
        26.7504         19.7504
  21277928.5914   -1906646.55847  -1450489.68246                  21277930.7354
        23.2504         19.7504
  23116285.8494   -6096845.88346  -4673893.44745                  23116288.9424
        13.0004          6.0004
                   1312742.232 5   1022917.107 5  23681236.106    23681238.806
         9.250           6.750
  21964718.7004    6098396.90247   4724042.17846                  21964721.1034
        22.2504         17.0004
  22277411.4664   -5555671.62446  -4245064.02445                  22277414.3604
        19.0004         11.7504
 95  4 12 16 50 15.0010000  0  7G 2G18G19G27G28G29G31
  24415124.7084    -527938.19845   -310787.60742                  24415129.7944
         8.7504          2.0004
  20718003.3024     866637.52947    696220.09146                  20718005.2714
        26.7504         19.7504
  21277555.1854   -1908610.13147  -1452019.73746                  21277557.6924
        23.2504         19.0004
  23111648.8104   -6121212.57646  -4692880.47645                  23111651.7744
        13.0004          6.5004
                   1335964.847 5   1041012.639 5  23685655.224    23685657.868
         9.250           6.750
  21972792.5364    6140825.06147   4757103.06446                  21972794.9624
        22.2504         15.7504
  22275155.3564   -5567527.29246  -4254302.20246                  22275158.1694
        19.0004         12.5004
 95  4 12 16 50 30.0010000  0  7G 2G18G19G27G28G29G31
  24408847.6464    -560927.72845   -336493.71543                  24408853.9744
         9.2504          2.5004
  20721801.8334     886599.51947    711774.88346                  20721803.8494
        26.5004         19.7504
  21277194.6144   -1910503.88447  -1453495.39146                  21277197.1104
        23.0004         19.7504
  23107018.0834   -6145547.10246  -4711842.43645                  23107021.3764
        12.5004          6.5004
                   1359342.181 5   1059228.738 5  23690103.856    23690106.560
         9.250           6.500
  21980889.6464    6183375.46447   4790259.20446                  21980891.7434
        22.5004         16.5004
  22272927.2084   -5579237.06146  -4263426.67646                  22272929.7744
        19.2504         12.5004
 95  4 12 16 50 45.0010000  0  7G 2G18G19G27G28G29G31
  24402582.8494    -593850.14445   -362147.52543                  24402587.8884
         9.5004          3.2504
  20725629.0674     906711.69847    727446.70446                  20725631.0364
        26.2504         20.2504
  21276846.2394   -1912332.79747  -1454920.52146                  21276848.8884
        23.0004         21.0004
  23102392.5284   -6169853.28446  -4730782.30245                  23102394.8964
        12.5004          6.5004
                   1382871.556 5   1077563.320 5  23694581.341    23694583.802
         9.500           6.500
  21989009.5444    6226045.93647   4823508.91446                  21989011.5604
        22.7504         17.0004
  22270726.0754   -5590804.72446  -4272440.43146                  22270728.9114
        19.5004         13.0004
 95  4 12 16 51  0.0010000  0  7G 2G18G19G27G28G29G31
  24396330.0134    -626706.84245   -387750.12543                  24396334.8534
         9.7504          3.2504
  20729484.6854     926973.66747    743235.24846                  20729486.8174
        26.2504         20.2504
  21276510.5444   -1914097.36547  -1456295.51246                  21276513.2744
        23.0004         20.2504
  23097773.2784   -6194129.68946  -4749698.98145                  23097776.5014
        12.7504          5.2504
                   1406552.706 5   1096016.170 5  23699087.872    23699090.263
         9.750           6.500
  21997152.2944    6268836.43647   4856852.15346                  21997154.4154
        22.2504         16.5004
  22268551.9504   -5602228.96346  -4281342.42146                  22268554.7514
        19.7504         13.7504
 95  4 12 16 51 15.0010000  0  7G 2G18G19G27G28G29G31
  24390090.0674    -659496.29845   -413300.32944                  24390095.0484
         9.2504          4.0004
  20733369.5914     947388.99147    759143.28746                  20733371.8644
        26.2504         19.7504
  21276187.0754   -1915797.87547  -1457620.58246                  21276189.5954
        23.2504         19.0004
  23093159.3884   -6218374.73246  -4768591.20645                  23093162.9974
        13.0004          6.0004
                   1430387.394 5   1114588.650 5  23703623.544    23703625.899
         9.750           6.500
  22005318.2784    6311747.96647   4890289.69446                  22005320.7284
        22.7504         17.0004
  22266405.7944   -5613507.41446  -4290130.81445                  22266408.9934
        19.5004         11.7504
 95  4 12 16 51 30.0010000  0  7G 2G18G19G27G28G29G31
  24383863.0134    -692218.86245   -438798.38842                  24383868.8374
         8.7504          2.0004
  20737283.6534     967956.99247    775170.29646                  20737285.7284
        26.2504         20.2504
  21275875.6924   -1917434.49247  -1458895.86446                  21275878.2244
        23.0004         20.2504
  23088552.2864   -6242587.76646  -4787458.50745                  23088556.7394
        13.7504          6.5004
                   1454374.989 5   1133280.276 5  23708188.247    23708190.677
         9.500           6.250
  22013506.4194    6354779.62947   4923820.85046                  22013508.8804
        22.0004         15.7504
  22264287.4354   -5624638.35646  -4298804.26046                  22264290.4814
        19.2504         12.5004
 95  4 12 16 51 45.0010000  0  7G 2G18G19G27G28G29G31
  24377648.8104    -724874.83045   -464244.58543                  24377654.4704
         9.0004          3.2504
  20741226.2714     988675.10647    791314.27246                  20741228.6734
        26.0004         19.7504
  21275575.7314   -1919010.31147  -1460123.77946                  21275578.4744
        22.7504         19.0004
  23083951.1384   -6266767.50946  -4806299.85145                  23083955.0404
        13.7504          7.2504
                   1478515.560 5   1152091.104 5  23712781.942    23712784.505
         9.500           6.250
  22021717.9664    6397929.76647   4957444.31646                  22021720.7784
        21.7504         14.5004
  22262198.0444   -5635619.21446  -4307360.76846                  22262201.2204
        19.0004         12.5004
 95  4 12 16 52  0.0010000  0  7G 2G18G19G27G28G29G31
  24371445.4894    -757466.88145   -489640.99743                  24371450.5284
         7.7504          3.2504
  20745197.1464    1009541.07447    807573.46146                  20745199.4314
        26.0004         19.0004
  21275286.6144   -1920530.28047  -1461308.17046                  21275289.4744
        22.7504         18.2504
  23079356.0284   -6290916.58346  -4825117.29545                  23079359.3564
        14.5004          6.5004
                   1502805.350 5   1171018.206 5  23717404.013    23717406.774
         9.250           6.250
  22029951.0444    6441194.73747   4991157.26846                  22029953.7744
        21.7504         15.7504
  22260136.3494   -5646452.90446  -4315802.58946                  22260139.5244
        19.0004         13.0004
 95  4 12 16 52 15.0010000  0  7G 2G18G19G27G28G29G31
  24365256.2634    -789990.91045   -514984.34542                  24365262.5674
         7.7504          2.0004
  20749196.1144    1030557.36247    823949.78246                  20749198.5174
        26.0004         19.0004
  21275007.9354   -1921994.21147  -1462448.89846                  21275010.5714
        23.0004         19.7504
  23074766.6384   -6315033.93946  -4843910.02945                  23074769.2164
        14.5004          7.7504
                   1527245.591 5   1190062.548 5  23722054.755    23722057.688
         9.250           6.250
  22038206.1854    6484577.14447   5024961.73046                  22038208.6464
        21.7504         15.0004
  22258103.4354   -5657135.45446  -4324126.64446                  22258106.5404
        19.2504         13.0004
 95  4 12 16 52 30.0010000  0  7G 2G18G19G27G28G29G31
  24359080.9744    -822445.92045   -540273.95041                  24359086.9504
         8.2504          1.2504
  20753223.4274    1051720.48247    840440.51646                  20753225.5714
        25.7504         19.7504
  21274739.7554   -1923402.83547  -1463546.53146                  21274742.4854
        23.0004         19.7504
  23070183.5364   -6339117.94046  -4862676.77445                  23070186.6654
        14.7504          7.2504
                   1551837.230 5   1209224.845 5  23726734.302    23726737.142
         9.000           6.250
  22046483.8414    6528076.89247   5058857.62746                  22046486.4784
        21.5004         15.0004
  22256099.7004   -5667666.45346  -4332332.60946                  22256102.6184
        19.5004         13.0004
 95  4 12 16 52 45.0010000  0  7G 2G18G19G27G28G29G31
  24352918.6694    -854831.54545   -565509.50243                  24352923.7554
         8.2504          3.2504
  20757277.3494    1073024.72947    857041.21546                  20757279.7514
        25.5004         19.0004
  21274482.1224   -1924758.42747  -1464602.85046                  21274484.9234
        23.0004         19.0004
  23065606.8884   -6363167.94046  -4881417.03045                  23065609.8764
        14.2504          7.2504
                   1576579.623 5   1228504.617 5  23731442.825    23731445.536
         9.000           6.500
  22054783.9114    6571692.84547   5092844.05746                  22054786.4894
        21.7504         14.5004
  22254124.2084   -5678047.24746  -4340421.53546                  22254127.1964
        19.7504         13.0004
 95  4 12 16 53  0.0010000  0  7G 2G18G19G27G28G29G31
  24346769.0994    -887149.88745   -590692.57242                  24346774.5364
         8.5004          2.0004
  20761357.8024    1094467.11847    873749.56346                  20761359.9814
        25.7504         19.7504
  21274234.1064   -1926061.62447  -1465618.32246                  21274236.8844
        23.0004         19.7504
  23061036.1304   -6387184.61246  -4900131.30745                  23061039.2474
        13.7504          6.5004
                   1601470.492 5   1247900.082 5  23736179.356    23736182.024
         9.250           6.500
  22063105.4974    6615421.52447   5126918.34446                  22063107.9354
        21.7504         15.0004
  22252177.2634   -5688279.20546  -4348394.48646                  22252179.5714
        19.7504         13.0004
 95  4 12 16 53 15.0010000  0  7G 2G18G19G27G28G29G31
  24340632.9584    -919396.86245   -615820.07743                  24340637.5994
         9.0004          3.2504
  20765465.6464    1116053.65747    890570.23646                  20765467.5444
        25.7504         19.0004
  21273996.9584   -1927308.86547  -1466590.20146                  21273999.5484
        23.0004         20.2504
  23056473.5364   -6411162.96146  -4918815.71845                  23056476.5954
        13.7504          7.7504
                   1626513.890 5   1267414.418 5  23740945.372    23740947.646
         9.250           6.500
  22071448.2714    6659263.89947   5161081.21946                  22071450.5094
        21.7504         16.5004
  22250259.3804   -5698356.49346  -4356246.90846                  22250261.9814
        19.5004         13.0004
 95  4 12 16 53 30.0010000  0  7G 2G18G19G27G28G29G31
  24334509.7474    -951576.46845   -640895.04143                  24334512.0214
         9.5004          2.5004
  20769600.1224    1137781.44747    907500.97146                  20769602.1494
        25.7504         19.0004
  21273769.1694   -1928504.26547  -1467521.68746                  21273771.9704
        23.0004         19.7504
  23051916.8024   -6435108.21246  -4937474.35845                  23051920.5634
        13.5004          6.5004
                   1651704.998 5   1287043.843 5  23745738.872    23745741.493
         9.250           6.500
  22079812.1304    6703215.00447   5195328.82346                  22079814.6144
        22.0004         13.7504
  22248370.2864   -5708283.91146  -4363982.54846                  22248373.3454
        19.2504         13.0004
 95  4 12 16 53 45.0010000  0  7G 2G18G19G27G28G29G31
  24328398.8804    -983687.06045   -665916.23943                  24328402.1494
         9.5004          2.5004
  20773761.8884    1159651.24347    924542.36646                  20773763.9034
        25.7504         19.7504
  21273551.9814   -1929644.67147  -1468410.30746                  21273554.5014
        23.0004         19.7504
  23047367.0054   -6459017.50646  -4956104.97545                  23047370.0404
        13.5004          7.2504
                   1677045.866 5   1306789.970 5  23750561.099    23750563.376
         9.500           6.250
  22088196.6854    6747277.20047   5229662.99046                  22088198.7714
        22.0004         15.0004
  22246510.1534   -5718058.59246  -4371599.17746                  22246513.2944
        19.0004         13.7504
 95  4 12 16 54  0.0010000  0  7G 2G18G19G27G28G29G31
  24322301.4034   -1015729.41845   -690884.28643                  24322304.4974
         9.2504          3.2504
  20777950.3494    1181662.25847    941693.79546                  20777952.5284
        25.2504         19.7504
  21273345.8174   -1930729.73847  -1469255.81746                  21273348.3844
        23.5004         20.2504
  23042823.2944   -6482893.59146  -4974709.70545                  23042826.3174
        13.2504          6.5004
                   1702535.066 5   1326651.679 5  23755411.513    23755413.720
         9.250           6.250
  22096602.0214    6791448.06547   5264081.83546                  22096604.4234
        21.7504         15.7504
  22244678.6464   -5727683.38346  -4379099.00746                  22244681.8684
        19.0004         12.5004
 95  4 12 16 54 15.0010000  0  7G 2G18G19G27G28G29G31
  24316217.1224   -1047700.09445   -715796.48243                  24316221.9624
         9.2504          3.2504
  20782166.4354    1203817.99847    958958.00446                  20782168.7554
        25.2504         19.7504
  21273150.7944   -1931755.58147  -1470055.17946                  21273153.1964
        23.5004         19.7504
  23038287.0994   -6506732.42446  -4993285.41645                  23038289.8174
        13.7504          6.0004
                   1728174.584 5   1346630.521 5  23760290.372    23760292.806
         9.250           6.250
  22105028.3644    6835729.86447   5298587.12246                  22105030.9424
        21.5004         14.5004
  22242876.0754   -5737155.96646  -4386480.23845                  22242879.1344
        19.0004         11.7504
 95  4 12 16 54 30.0010000  0  7G 2G18G19G27G28G29G31
  24310146.1144   -1079598.84945   -740652.62041                  24310151.2004
         8.5004          1.2504
  20786409.9114    1226118.46847    976334.99046                  20786412.4894
        24.5004         18.2504
  21272966.9354   -1932720.02147  -1470806.68946                  21272969.0914
        23.2504         20.2504
  23033758.6614   -6530530.39446  -5011829.27945                  23033761.1344
        13.7504          6.0004
                   1753966.672 5   1366728.252 5  23765198.411    23765201.208
         9.000           6.000
  22113476.3174    6880123.03747   5333179.19446                  22113479.1184
        21.2504         14.5004
  22241102.5834   -5746475.43146  -4393742.14545                  22241105.5714
        19.0004         11.7504
 95  4 12 16 54 45.0010000  0  7G 2G18G19G27G28G29G31
  24304089.0284   -1111429.93945   -765456.06543                  24304094.4424
         8.2504          2.5004
  20790681.1384    1248562.15747    993823.57046                  20790683.7044
        24.7504         19.0004
  21272794.5444   -1933626.31147  -1471512.89046                  21272797.0284
        23.5004         20.2504
  23029237.3804   -6554289.72946  -5030343.02145                  23029240.1574
        13.7504          7.7504
                   1779908.776 5   1386942.866 5  23770135.036    23770137.700
         9.000           6.000
  22121944.7244    6924625.70847   5367856.59546                  22121947.2434
        21.0004         13.7504
  22239357.7634   -5755645.07846  -4400887.32046                  22239360.6344
        19.2504         13.0004
 95  4 12 16 55  0.0010000  0  6G18G19G27G28G29G31
  20794980.2394    1271154.33747   1011427.85846                  20794982.6184
        25.0004         19.0004
  21272633.9664   -1934470.90047  -1472171.01346                  21272636.3454
        23.5004         19.0004
  23024723.5914   -6578008.47846  -5048825.16145                  23024726.4154
        13.7504          6.5004
                   1806002.857 5   1407275.918 5  23775100.724    23775103.017
         9.000           6.000
  22130435.1464    6969242.27847   5402622.74246                  22130437.7124
        21.0004         15.0004
  22237642.0914   -5764661.63946  -4407913.20346                  22237644.7394
        19.5004         13.0004
 95  4 12 16 55 15.0010000  0  7G 2G18G19G27G28G29G31
  24292015.310      -16888.91215
         8.500
  20799308.7714    1293900.33247   1029152.00246                  20799311.1494
        25.2504         19.0004
  21272485.4114   -1935251.27747  -1472779.09746                  21272488.0604
        23.5004         19.7504
  23020218.1144   -6601685.56546  -5067274.82145                  23020220.9034
        14.2504          7.7504
                   1832250.000 5   1427728.234 5  23780095.302    23780097.798
         9.000           6.000
  22138947.3174    7013973.19147   5437477.98746                  22138949.8604
        21.2504         13.7504
  22235955.8804   -5773521.88246  -4414817.27946                  22235958.5754
        19.5004         12.5004
 95  4 12 16 55 30.0010000  0  7G 2G18G19G27G28G29G31
  24285999.060      -48505.538 5
         8.250
  20803665.9424    1316796.92347   1046993.49046                  20803667.8174
        25.0004         18.2504
  21272348.7554   -1935969.97347  -1473339.11746                  21272351.1104
        23.2504         19.0004
  23015719.7944   -6625322.93046  -5085693.54845                  23015723.6734
        14.0004          7.2504
                   1858647.532 5   1448297.732 5  23785118.825    23785121.142
         9.000           5.750
  22147480.6614    7058816.75747   5472421.01746                  22147483.2514
        20.5004         13.0004
  22234299.3564   -5782226.66746  -4421600.21945                  22234302.0874
        18.7504         11.7504
 95  4 12 16 55 45.0010000  0  7G 2G18G19G27G28G29G31
  24279996.5284     -80053.14245
         9.2504
  20808050.5754    1339838.80647   1064948.19746                  20808052.5324
        24.7504         17.7504
  21272223.2864   -1936627.86547  -1473851.75746                  21272225.7124
        23.0004         20.2504
  23011229.4894   -6648922.06046  -5104082.46245                  23011232.3724
        14.2504          7.2504
                   1885193.747 5   1468983.087 5  23790170.224    23790172.813
         9.000           5.750
  22156035.8104    7103773.04747   5507451.87246                  22156038.4814
        21.0004         13.7504
  22232671.9974   -5790778.19446  -4428263.74346                  22232674.9034
        19.0004         12.5004
 95  4 12 16 56  0.0010000  0  7G 2G18G19G27G28G29G31
  24274005.8104    -111534.96145
         9.2504
  20812461.9194    1363021.44847   1083012.58746                  20812463.8414
        24.2504         17.7504
  21272109.1144   -1937227.65247  -1474319.12846                  21272111.5524
        23.2504         20.2504
  23006744.9034   -6672487.18846  -5122444.89045                  23006747.1304
        14.0004          6.5004
                   1911885.925 5   1489782.192 5  23795249.528    23795252.060
         9.000           6.000
  22164611.4034    7148839.41647   5542568.51746                  22164614.0524
        21.0004         13.7504
  22231073.1924   -5799179.91046  -4434810.52946                  22231076.4504
        18.7504         13.0004
 95  4 12 16 56 15.0010000  0  7G 2G18G19G27G28G29G31
  24268026.8884    -142954.30545    -16314.64553                  24268031.4814
         9.7504          3.2504
  20816899.2944    1386341.55847   1101184.10046                  20816901.8024
        23.7504         17.7504
  21272005.7314   -1937771.41647  -1474742.83846                  21272008.3104
        23.5004         19.7504
  23002266.6924   -6696021.85346  -5140783.57645                  23002269.3174
        14.2504          6.5004
                   1938720.844 5   1510692.512 5  23800355.981    23800358.517
         8.750           6.000
  22173207.4034    7194011.39547   5577767.44746                  22173210.2514
        21.0004         13.7504
  22229502.3724   -5807433.49446  -4441241.88146                  22229505.4894
        18.7504         12.5004
 95  4 12 16 56 30.0010000  0  7G 2G18G19G27G28G29G31
  24262060.9424    -174304.90645    -40743.65343                  24262065.5714
         9.7504          2.5004
  20821364.6064    1409805.65047   1119467.80346                  20821367.4314
        23.5004         17.0004
  21271913.9664   -1938253.30547  -1475118.33446                  21271916.5914
        23.5004         19.0004
  22997795.2004   -6719518.81746  -5159092.89145                  22997798.8804
        14.0004          6.5004
                   1965704.840 5   1531718.994 5  23805490.833    23805493.505
         8.750           6.000
  22181824.5054    7239295.87147   5613054.04246                  22181827.2124
        20.5004         13.7504
  22227961.4114   -5815532.25246  -4447552.60246                  22227964.1884
        19.5004         13.0004
 95  4 12 16 56 45.0010000  0  7G 2G18G19G27G28G29G31
  24256107.4894    -205585.18545    -65117.89843                  24256111.4974
         9.5004          2.5004
  20825857.5214    1433416.52747   1137865.88346                  20825860.4744
        23.7504         20.2504
  21271834.7554   -1938670.21847  -1475443.20246                  21271837.4504
        23.7504         21.0004
  22993331.1384   -6742978.02546  -5177372.78945                  22993333.7984
        14.0004          7.7504
                   1992840.066 5   1552863.316 5  23810654.567    23810657.060
         9.000           6.250
  22190464.2004    7284695.72947   5648430.54146                  22190466.9784
        21.2504         14.5004
  22226450.3334   -5823473.89246  -4453740.88346                  22226452.8414
        19.5004         13.0004
 95  4 12 16 57  0.0010000  0  7G 2G18G19G27G28G29G31
  24250168.5674    -236797.68045    -89439.28843                  24250173.8764
         9.7504          3.2504
  20830378.0604    1457171.52847   1156376.26646                  20830381.0604
        24.2504         19.7504
  21271766.6144   -1939027.48147  -1475721.59046                  21271769.3334
        23.5004         19.7504
  22988873.1304   -6766403.89746  -5195626.71045                  22988875.5214
        14.0004          7.2504
                   2020123.345 5   1574123.018 5  23815846.521    23815848.786
         9.000           6.250
  22199124.6694    7330208.65247   5683895.14846                  22199127.2824
        21.0004         13.7504
  22224968.8104   -5831260.24446  -4459808.16146                  22224971.6464
        19.7504         13.0004
 95  4 12 16 57 15.0010000  0  7G 2G18G19G27G28G29G31
  24244240.2394    -267950.93645   -113714.55243                  24244245.0094
         9.7504          2.5004
  20834925.0914    1481066.13947   1174995.42546                  20834927.6924
        24.5004         20.2504
  21271709.2864   -1939329.91747  -1475957.25346                  21271711.7714
        23.5004         21.5004
  22984420.3564   -6789804.61446  -5213861.02145                  22984423.0284
        14.2504          7.7504
                   2047548.878 5   1595493.551 5  23821065.388    23821068.021
         9.000           6.250
  22207805.8254    7375828.48747   5719443.06246                  22207808.7314
        20.5004         14.5004
  22223515.5214   -5838896.27346  -4465758.30246                  22223518.4034
        19.7504         13.0004
 95  4 12 16 57 30.0010000  0  7G 2G18G19G27G28G29G31
  24238323.0674    -299044.65645   -137943.38043                  24238329.1964
         9.2504          3.2504
  20839499.1774    1505102.58547   1193725.11646                  20839501.7784
        24.2504         18.2504
  21271661.7784   -1939577.87147  -1476150.46046                  21271664.3334
        23.2504         21.0004
  22979971.8024   -6813181.08146  -5232076.43945                  22979974.3804
        14.0004          7.7504
                   2075118.330 5   1616976.243 5  23826311.778    23826314.274
         9.000           6.250
  22216507.5994    7421556.34247   5755075.13846                  22216510.2944
        20.5004         13.7504
  22222091.4664   -5846380.75846  -4471590.36046                  22222094.0914
        19.5004         13.7504
 95  4 12 16 57 45.0010000  0  7G 2G18G19G27G28G29G31
  24232417.1614    -330081.52245   -162127.93745                  24232422.5174
         9.5004          5.2504
  20844099.8174    1529278.87947   1212563.77746                  20844102.3254
        24.2504         18.2504
  21271625.0214   -1939771.99047  -1476301.72146                  21271627.4584
        23.2504         19.7504
  22975527.3494   -6836537.03246  -5250275.87545                  22975529.5994
        14.2504          7.2504
                   2102830.482 5   1638570.114 5  23831585.224    23831587.587
         9.000           6.250
  22225230.2244    7467391.93147   5790791.17646                  22225232.9424
        20.7504         13.7504
  22220695.4584   -5853716.03546  -4477306.15846                  22220698.3064
        19.2504         14.5004
 95  4 12 16 58  0.0010000  0  7G 2G18G19G27G28G29G31
  24226522.1614    -361056.57245   -186264.32843                  24226528.6184
         9.2504          2.5004
  20848727.8494    1553600.78347   1231515.90546                  20848730.0754
        23.7504         19.0004
  21271599.0054   -1939907.28947  -1476407.14946                  21271601.6424
        23.2504         19.7504
  22971087.0364   -6859871.46846  -5268458.54345                  22971089.5794
        14.5004          8.5004
                   2130690.486 5   1660279.208 5  23836886.583    23836889.271
         8.750           6.250
  22233973.7244    7513342.31247   5826596.64846                  22233976.4314
        20.5004         14.5004
  22219328.7084   -5860896.13946  -4482901.03846                  22219331.8134
        18.7504         13.7504
 95  4 12 16 58 15.0010000  0  7G 2G18G19G27G28G29G31
  24220639.9504    -391970.47745   -210353.07143                  24220645.4934
         9.7504          3.2504
  20853383.1224    1578064.70447   1250578.69646                  20853385.4074
        23.7504         18.2504
  21271583.9274   -1939987.39747  -1476469.56746                  21271586.4234
        23.5004         21.0004
  22966650.0054   -6883188.21246  -5286627.42445                  22966651.9384
        14.7504          7.7504
                   2158694.801 5   1682100.742 5  23842215.638    23842218.493
         8.750           6.250
  22242738.6064    7559401.75647   5862487.11446                  22242741.0444
        20.7504         14.5004
  22217991.9814   -5867923.28846  -4488376.72746                  22217994.8174
        19.2504         13.0004
 95  4 12 16 58 30.0010000  0  7G 2G18G19G27G28G29G31
  24214768.6614    -422824.25745   -234394.94543                  24214773.7004
         9.7504          3.2504
  20858065.5674    1602670.55647   1269752.08146                  20858068.0054
        24.0004         19.7504
  21271578.3494   -1940016.42447  -1476492.18346                  21271581.1614
        23.7504         21.0004
  22962216.2474   -6906488.27346  -5304783.29345                  22962218.9194
        15.0004          8.5004
                   2186840.394 5   1704032.368 5  23847571.536    23847574.431
         8.750           6.250
  22251523.9894    7605567.75147   5898460.60246                  22251526.6854
        21.0004         13.7504
  22216682.9814   -5874799.71746  -4493734.98346                  22216686.0754
        19.5004         13.0004
 95  4 12 16 58 45.0010000  0  7G 2G18G19G27G28G29G31
  24208909.4814    -453614.39145   -258387.23243                  24208914.7554
        10.0004          3.2504
  20862775.4274    1627421.22747   1289038.30846                  20862777.9354
        23.7504         19.0004
  21271582.9194   -1939993.21247  -1476474.09346                  21271585.6264
        23.5004         20.2504
  22957785.9894   -6929769.72846  -5322924.67945                  22957788.3334
        15.0004          7.7504
                   2215130.324 5   1726076.459 5  23852954.958    23852957.892
         8.750           6.250
  22260330.4274    7651845.37747   5934521.08046                  22260333.0634
        20.7504         13.7504
  22215404.4424   -5881522.98646  -4498973.88246                  22215406.9384
        19.7504         13.0004
 95  4 12 16 59  0.0010000  0  7G 2G18G19G27G28G29G31
  24203062.6774    -484341.36445   -282330.32045                  24203067.0134
        10.5004          4.5004
  20867512.3024    1652312.75147   1308434.28946                  20867514.9854
        23.7504         19.7504
  21271596.3804   -1939922.37147  -1476418.89546                  21271599.0524
        23.7504         21.0004
  22953359.0524   -6953033.97946  -5341052.64245                  22953361.6654
        15.0004          7.7504
                   2243562.042 5   1748231.041 5  23858365.396    23858368.099
         9.000           6.250
  22269157.7004    7698233.84847   5970667.92346                  22269160.2904
        20.5004         13.0004
  22214153.1924   -5888095.03846  -4504094.95646                  22214155.9234
        19.7504         13.0004
 95  4 12 16 59 15.0010000  0  7G 2G18G19G27G28G29G31
  24197227.2944    -515005.96845   -306224.79943                  24197232.2634
        10.2504          3.2504
  20872274.8964    1677341.98347   1327937.57846                  20872277.5914
        23.2504         19.0004
  21271618.8254   -1939804.51747  -1476327.05846                  21271621.5324
        23.5004         20.2504
  22948934.9424   -6976281.57646  -5359167.64045                  22948937.8024
        14.7504          8.5004
                   2272132.693 5   1770493.867 5  23863802.349    23863804.978
         9.000           6.250
  22278005.3884    7744729.13946   6006898.00646                  22278008.2594
        19.7504         13.0004
  22212931.3334   -5894517.86646  -4509099.75346                  22212933.8994
        19.7504         13.0004
 95  4 12 16 59 30.0010000  0  7G 2G18G19G27G28G29G31
  24191406.4274    -545595.35545   -330060.65443                  24191410.9154
        10.5004          3.2504
  20877065.4424    1702516.36047   1347553.97046                  20877068.4074
        23.0004         18.2504
  21271652.2084   -1939629.13647  -1476190.39546                  21271654.9624
        23.2504         20.2504
  22944516.0284   -6999502.78946  -5377262.07745                  22944519.0994
        14.7504          7.7504
                   2300850.555 5   1792871.424 5  23869267.224    23869269.903
         9.000           6.250
  22286874.8804    7791337.99446   6043216.58046                  22286878.1734
        19.7504         12.5004
  22211738.1534   -5900784.83246  -4513983.09846                  22211740.9664
        19.5004         13.0004
 95  4 12 16 59 45.0010000  0  7G 2G18G19G27G28G29G31
  24185600.4114    -576106.04945   -353835.20243                  24185605.3334
        10.7504          2.5004
  20881882.7554    1727830.81147   1367279.51046                  20881885.7674
        22.5004         17.7504
  21271696.4274   -1939397.22247  -1476009.67946                  21271699.1104
        23.0004         19.0004
  22940101.5914   -7022697.43546  -5395335.82445                  22940105.0834
        14.0004          7.7504
                   2329713.514 5   1815362.034 5  23874759.638    23874762.157
         9.000           6.000
  22295765.4424    7838057.07747   6079621.04046                  22295768.5134
        20.0004         13.0004
  22210574.8254   -5906899.19446  -4518747.52845                  22210577.7904
        19.5004         11.7504
 95  4 12 17  0  0.0010000  0  7G 2G18G19G27G28G29G31
  24179807.9114    -606541.57245   -377551.17445                  24179813.3494
        10.2504          4.5004
  20886725.5994    1753281.32947   1387111.07046                  20886728.5404
        22.7504         18.2504
  21271750.2314   -1939113.19847  -1475788.36046                  21271752.7864
        23.5004         19.7504
  22935692.9424   -7045866.15846  -5413389.36545                  22935696.4814
        14.2504          9.2504
                   2358717.964 5   1837962.904 5  23880278.958    23880281.599
         9.000           6.250
  22304675.4354    7884881.30347   6116107.43346                  22304678.7984
        20.0004         13.7504
  22209439.3804   -5912864.39746  -4523395.73246                  22209442.7204
        19.0004         13.0004
 95  4 12 17  0 15.0010000  0  7G 2G18G19G27G28G29G31
  24174030.9114    -636899.96345   -401207.01443                  24174036.5244
         9.7504          3.2504
  20891594.7714    1778867.58947   1407048.41046                  20891597.7244
        23.0004         16.5004
  21271813.9424   -1938778.28547  -1475527.39246                  21271816.3804
        23.5004         19.0004
  22931289.3564   -7069006.28146  -5431420.61445                  22931293.2474
        14.0004          6.5004
                   2387863.324 5   1860673.560 5  23885824.771    23885827.630
         8.500           6.000
  22313605.2314    7931807.37146   6152673.18445                  22313608.1264
        19.5004         11.7504
  22208332.8804   -5918681.63146  -4527928.64045                  22208336.2204
        19.0004         11.7504
 95  4 12 17  0 30.0010000  0  7G 2G18G19G27G28G29G31
  24168267.3104    -667182.82845   -424804.06143                  24168272.8414
         9.7504          3.2504
  20896489.7474    1804590.23547   1427092.02346                  20896492.4194
        23.5004         17.7504
  21271887.8254   -1938391.24247  -1475225.79646                  21271890.5324
        23.5004         20.2504
  22926892.3024   -7092111.21546  -5449424.45345                  22926895.5714
        14.2504          8.5004
                   2417149.154 5   1883493.689 5  23891397.849    23891400.446
         8.500           6.000
  22322554.3024    7978833.71647   6189317.07346                  22322557.3374
        20.0004         13.0004
  22207253.5674   -5924352.64146  -4532347.60346                  22207256.4274
        19.2504         12.5004
 95  4 12 17  0 45.0010000  0  7G 2G18G19G27G28G29G31
  24162520.0284    -697387.80145   -448340.38843                  24162525.2554
         9.7504          3.2504
  20901411.9504    1830456.30047   1447247.38746                  20901414.3994
        23.5004         19.0004
  21271972.6774   -1937945.46747  -1474878.43546                  21271975.3964
        23.5004         20.2504
  22922504.0284   -7115174.88446  -5467396.13145                  22922507.0634
        14.5004          7.7504
                   2446581.189 5   1906427.738 5  23896998.442    23897001.501
         8.500           6.000
  22331523.6224    8025968.40647   6226045.38646                  22331526.5874
        20.0004         13.7504
  22206203.2634   -5929872.06546  -4536648.44646                  22206206.3804
        19.5004         13.0004
 95  4 12 17  1  0.0010000  0  7G 2G18G19G27G28G29G31
  24156786.3414    -727520.32345   -471820.26344                  24156791.8604
        10.0004          4.0004
  20906359.8724    1856457.58047   1467508.11246                  20906362.2984
        23.5004         19.7504
  21272068.0524   -1937444.67347  -1474488.20746                  21272070.7944
        23.7504         21.5004
  22918121.7714   -7138202.87246  -5485340.02245                  22918125.3804
        14.7504          9.2504
                   2476153.513 5   1929471.094 5  23902626.013    23902628.720
         8.500           6.000
  22340512.5134    8073204.88746   6262853.00746                  22340515.0794
        19.7504         13.0004
  22205180.8964   -5935245.23946  -4540835.32646                  22205183.6854
        19.7504         14.5004
 95  4 12 17  1 15.0010000  0  7G 2G18G19G27G28G29G31
  24151065.8494    -757581.75345   -495244.71643                  24151070.1034
        10.2504          3.2504
  20911333.5524    1882595.12747   1487875.02346                  20911336.0834
        23.0004         18.2504
  21272174.6064   -1936884.15347  -1474051.43946                  21272177.5244
        23.5004         21.5004
  22913746.8414   -7161194.02646  -5503255.18845                  22913750.0404
        14.7504          9.2504
                   2505866.270 5   1952623.875 5  23908280.091    23908283.087
         8.250           6.000
  22349519.4894    8120539.24646   6299736.91246                  22349522.2314
        19.2504         13.7504
  22204186.5134   -5940470.84147  -4544907.21246                  22204189.3964
        20.0004         13.7504
 95  4 12 17  1 30.0010000  0  7G 2G18G19G27G28G29G31
  24145360.0994    -787571.55245   -518613.37745                  24145364.7984
        11.0004          5.2504
  20916333.8884    1908873.36447   1508351.56646                  20916336.7594
        23.0004         19.0004
  21272293.1854   -1936259.46547  -1473564.67046                  21272296.1034
        23.5004         21.5004
  22909379.1464   -7184146.90846  -5521140.55245                  22909382.4974
        15.0004          8.5004
                   2535722.237 5   1975888.264 5  23913961.708    23913964.614
         8.500           6.250
  22358546.3644    8167973.00646   6336698.26445                  22358548.9894
        19.5004         11.7504
  22203220.7944   -5945545.52447  -4548861.50146                  22203223.6304
        20.2504         14.5004
 95  4 12 17  1 45.0010000  0  7G 2G18G19G27G28G29G31
  24139666.0834    -817493.21745   -541928.92845                  24139670.4664
        10.7504          5.2504
  20921361.6064    1935294.13547   1528939.17546                  20921365.1694
        22.7504         19.0004
  21272423.6694   -1935572.56847  -1473029.42146                  21272426.6814
        23.0004         21.0004
  22905018.2634   -7207062.68246  -5538996.98345                  22905021.4854
        15.0004          8.5004
                   2565721.693 5   1999264.457 5  23919670.536    23919673.345
         8.500           6.000
  22367591.4194    8215507.93846   6373738.45546                  22367594.0794
        19.0004         13.0004
  22202284.0054   -5950469.38947  -4552698.27146                  22202286.7474
        20.2504         14.5004
 95  4 12 17  2  0.0010000  0  7G 2G18G19G27G28G29G31
  24133982.8724    -847356.62245   -565199.10744                  24133987.7824
        11.0004          4.0004
  20926415.9034    1961855.38847   1549636.25346                  20926419.1264
        22.7504         19.0004
  21272565.6924   -1934827.81347  -1472449.09446                  21272568.6224
        23.0004         21.0004
  22900663.8724   -7229944.26946  -5556826.77745                  22900666.8134
        15.2504          9.2504
                   2595860.810 5   2022749.474 5  23925405.778    23925408.657
         8.500           6.250
  22376655.6614    8263141.35746   6410855.38946                  22376658.9194
        18.7504         12.5004
  22201375.3174   -5955243.56047  -4556418.40146                  22201377.8374
        20.0004         14.5004
 95  4 12 17  2 15.0020000  0  7G 2G18G19G27G28G29G31
  24128310.3934    -877163.97145   -588425.59244                  24128315.7714
        11.0004          4.0004
  20931497.8144    1988560.02947   1570445.05246                  20931501.2364
        22.7504         19.0004
  21272718.8544   -1934024.27547  -1471822.96146                  21272721.9244
        23.5004         21.5004
  22896316.6824   -7252791.57146  -5574629.86345                  22896319.9864
        15.5004          9.2504
                   2626142.917 5   2046345.911 5  23931168.291    23931170.904
         8.500           6.000
  22385740.2834    8310879.97046   6448054.29146                  22385743.0144
        19.2504         12.5004
  22200496.0334   -5959863.91047  -4560018.66846                  22200498.6934
        20.2504         14.5004
 95  4 12 17  2 30.0020000  0  7G 2G18G19G27G28G29G31
  24122649.6744    -906909.77145   -611604.09745                  24122654.7604
        10.7504          4.5004
  20936606.5334    2015406.00247   1591363.98146                  20936609.6154
        23.0004         19.0004
  21272883.8384   -1933156.97247  -1471147.14046                  21272886.7444
        23.7504         21.5004
  22891976.5334   -7275599.17346  -5592402.01345                  22891979.2994
        15.5004          9.7504
                   2656566.244 5   2070052.398 5  23936957.541    23936960.334
         8.500           6.000
  22394844.7294    8358722.47446   6485334.13946                  22394847.7644
        19.5004         12.5004
  22199646.8384   -5964326.35247  -4563495.88546                  22199649.7794
        20.2504         15.0004
 95  4 12 17  2 45.0020000  0  7G 2G18G19G27G28G29G31
  24116998.7994    -936604.53945   -634742.86845                  24117004.6464
        10.5004          4.5004
  20941741.1974    2042388.42047   1612389.23146                  20941744.3734
        22.7504         17.7504
  21273059.3774   -1932234.88347  -1470428.62746                  21273062.1434
        23.7504         21.0004
  22887641.6504   -7298378.59446  -5610152.19345                  22887644.3224
        15.5004          9.2504
                   2687125.567 5   2093864.851 5  23942772.838    23942775.736
         8.750           6.000
  22403968.0184    8406665.33246   6522692.19546                  22403970.5964
        19.5004         12.5004
  22198826.8304   -5968636.41147  -4566854.35846                  22198829.7834
        20.5004         13.7504
 95  4 12 17  3  0.0020000  0  7G 2G18G19G27G28G29G31
  24111358.8544    -966237.93645   -657833.82143                  24111364.7254
         9.7504          2.5004
  20946903.2294    2069514.91947   1633526.74946                  20946906.2174
        22.7504         18.2504
  21273246.6044   -1931251.30847  -1469662.20646                  21273249.3344
        23.7504         21.0004
  22883312.1824   -7321128.63646  -5627879.48745                  22883315.4984
        15.5004          8.5004
                   2717828.456 5   2117789.163 5  23948615.510    23948618.303
         8.750           6.000
  22413111.4324    8454714.63746   6560133.19346                  22413114.1394
        19.5004         12.5004
  22198037.1894   -5972784.58647  -4570086.69646                  22198040.1544
        20.0004         14.5004
 95  4 12 17  3 15.0020000  0  7G 2G18G19G27G28G29G31
  24105731.6434    -995814.36145   -680880.36044                  24105737.2914
        10.0004          4.0004
  20952091.8074    2096781.21047   1654773.20446                  20952094.5144
        22.5004         17.7504
  21273444.4394   -1930210.25447  -1468851.00046                  21273447.3574
        23.2504         19.7504
  22878987.8774   -7343853.39746  -5645587.08345                  22878991.3694
        15.0004          8.5004
                   2748670.190 5   2141821.674 5  23954484.400    23954487.271
         8.500           5.750
  22422274.0414    8502864.14346   6597652.26445                  22422276.5494
        19.2504         11.2504
  22197277.7444   -5976774.97946  -4573196.08146                  22197281.0844
        19.7504         13.0004
 95  4 12 17  3 30.0020000  0  7G 2G18G19G27G28G29G31
  24100114.0334   -1025334.48545   -703883.04445                  24100120.1744
        10.0004          4.5004
  20957307.6584    2124189.76747   1676130.51246                  20957310.3654
        23.0004         17.7504
  21273653.0804   -1929113.63247  -1467996.48646                  21273655.9984
        23.0004         21.0004
  22874668.3694   -7366552.07546  -5663274.35545                  22874672.0144
        15.2504          9.2504
                   2779651.344 5   2165962.824 5  23960379.908    23960382.760
         8.750           6.000
  22431456.5574    8551118.35546   6635252.93545                  22431459.2754
        19.0004         11.2504
  22196548.6974   -5980607.57847  -4576182.51846                  22196551.8734
        20.2504         13.7504
 95  4 12 17  3 45.0020000  0  7G 2G18G19G27G28G29G31
  24094507.9164   -1054798.57445   -726842.04844                  24094511.8424
        10.7504          4.0004
  20962549.7684    2151736.97447   1697595.85746                  20962552.2054
        23.5004         17.7504
  21273871.4714   -1927967.30947  -1467103.25346                  21273874.3544
        23.5004         20.2504
  22870353.7054   -7389226.62146  -5680942.81245                  22870356.9984
        15.0004          8.5004
                   2810770.160 5   2190211.243 5  23966301.752    23966304.596
         9.000           6.000
  22440658.7754    8599477.25346   6672935.17245                  22440661.9394
        19.0004         11.7504
  22195848.4004   -5984286.37647  -4579049.11046                  22195851.6004
        20.2504         13.7504
 95  4 12 17  4  0.0020000  0  7G 2G18G19G27G28G29G31
  24088912.4554   -1084203.08645   -749754.64744                  24088917.0844
        10.7504          4.0004
  20967817.7914    2179420.51447   1719167.42946                  20967819.9824
        23.5004         18.2504
  21274099.4324   -1926768.57247  -1466169.16846                  21274102.3384
        23.0004         19.0004
  22866043.0964   -7411877.20946  -5698592.62045                  22866046.0844
        15.0004          8.5004
                   2842027.954 5   2214567.956 5  23972249.994    23972252.686
         8.750           6.000
  22449881.2994    8647941.69346   6710699.65245                  22449884.4984
        18.5004         11.2504
  22195177.9634   -5987810.31647  -4581795.02346                  22195181.0804
        20.2504         12.5004
 95  4 12 17  4 15.0020000  0  7G 2G18G19G27G28G29G31
  24083330.1824   -1113539.04845   -772613.79545                  24083333.8384
        11.2504          4.5004
  20973112.4394    2207244.57347   1740848.50346                  20973114.9004
        23.5004         19.0004
  21274338.1894   -1925512.80847  -1465190.65146                  21274341.0024
        23.2504         21.0004
  22861738.4554   -7434499.75746  -5716220.56845                  22861741.5024
        15.0004          7.7504
                   2873428.465 5   2239035.878 5  23978225.361    23978228.021
         9.000           6.250
  22459124.1504    8696513.30246   6748547.64746                  22459127.4434
        18.7504         12.5004
  22194537.9324   -5991173.99147  -4584416.06946                  22194540.4634
        20.2504         14.5004
 95  4 12 17  4 30.0020000  0  7G 2G18G19G27G28G29G31
  24077759.8934   -1142808.40445   -795421.05844                  24077764.0764
        11.0004          4.0004
  20978433.1744    2235205.67247   1762636.35946                  20978436.0574
        22.7504         19.0004
  21274587.0184   -1924205.67047  -1464172.10346                  21274589.8074
        23.2504         21.5004
  22857437.6744   -7457100.14746  -5733831.25545                  22857441.3184
        15.0004          9.2504
                   2904966.633 5   2263611.068 5  23984226.916    23984229.639
         9.000           6.250
  22468386.3614    8745186.12646   6786474.49345                  22468389.6544
        18.7504         11.2504
  22193926.9714   -5994384.66147  -4586917.87946                  22193930.0644
        20.5004         15.0004
 95  4 12 17  4 45.0020000  0  7G 2G18G19G27G28G29G31
  24072202.8934   -1172011.85445   -818176.97745                  24072207.0764
        10.7504          4.5004
  20983780.3464    2263306.77447   1784533.31546                  20983783.8384
        22.2504         18.2504
  21274846.0334   -1922845.74547  -1463112.41946                  21274848.7994
        23.5004         21.0004
  22853140.9634   -7479679.37546  -5751425.44645                  22853144.6074
        15.5004          9.2504
                   2936642.740 5   2288293.737 5  23990254.650    23990257.299
         9.000           6.250
  22477667.7054    8793958.90146   6824479.23545                  22477671.1504
        18.7504         11.7504
  22193344.9394   -5997441.99047  -4589300.21146                  22193348.3384
        20.5004         14.5004
 95  4 12 17  5  0.0020000  0  7G 2G18G19G27G28G29G31
  24066657.1744   -1201152.06045   -840883.60844                  24066661.7094
        10.7504          4.0004
  20989153.2524    2291542.83247   1806535.43046                  20989156.7914
        22.0004         18.2504
  21275114.5184   -1921435.03347  -1462013.16246                  21275117.3304
        23.5004         21.5004
  22848847.2134   -7502242.05746  -5769006.74145                  22848851.0214
        15.2504          9.7504
                   2968453.247 5   2313081.136 5  23996307.986    23996310.850
         8.750           6.250
  22486966.3854    8842826.42946   6862557.80845                  22486969.4554
        18.2504         11.7504
  22192791.5334   -6000351.31047  -4591567.20346                  22192794.1704
        20.5004         15.0004
 95  4 12 17  5 15.0020000  0  7G 2G18G19G27G28G29G31
  24061124.9394   -1230224.85345   -863537.70244                  24061129.1354
        10.7504          4.0004
  20994552.4634    2319914.95947   1828643.57546                  20994556.0614
        22.5004         19.0004
  21275393.7364   -1919967.04347  -1460869.27646                  21275396.8424
        23.5004         22.2504
  22844558.3774   -7524781.46446  -5786569.91045                  22844561.8344
        15.7504          9.7504
                   3000402.127 5   2337976.359 5  24002387.533    24002390.404
         8.500           6.500
  22496284.6584    8891793.09546   6900713.63145                  22496287.6934
        19.0004         11.2504
  22192266.5724   -6003109.38847  -4593716.34746                  22192269.6434
        20.5004         15.7504
 95  4 12 17  5 30.0020000  0  7G 2G18G19G27G28G29G31
  24055605.2914   -1259228.10445   -886137.62345                  24055609.9674
        10.7504          4.5004
  20999978.3854    2348425.61647   1850859.65946                  20999981.6894
        23.5004         19.7504
  21275684.6194   -1918438.72547  -1459678.37646                  21275687.6074
        23.5004         21.0004
  22840275.4164   -7547289.12946  -5804108.33645                  22840278.9324
        15.5004          9.7504
                   3032492.448 5   2362981.802 5  24008493.861    24008497.033
         8.250           6.250
  22505622.9474    8940864.42646   6938951.01245                  22505625.7134
        19.2504         11.7504
  22191770.5884   -6005715.41347  -4595747.01246                  22191773.7874
        20.5004         14.5004
 95  4 12 17  5 45.0020000  0  7G 2G18G19G27G28G29G31
  24050098.9004   -1288164.48545   -908685.44345                  24050104.5144
        10.7504          4.5004
  21005428.8384    2377068.13247   1873178.50246                  21005431.7564
        24.0004         20.2504
  21275986.2754   -1916855.49947  -1458444.69346                  21275989.3464
        23.7504         23.0004
  22835997.3854   -7569770.04046  -5821625.92145                  22836000.2794
        15.7504         10.5004
                   3064719.255 5   2388093.580 5  24014626.260    24014629.955
         8.250           6.500
  22514979.4944    8990033.77246   6977264.77445                  22514982.6354
        18.7504         11.7504
  22191302.8224   -6008173.91447  -4597662.71746                  22191305.8114
        20.5004         15.0004
 95  4 12 17  6  0.0020000  0  7G 2G18G19G27G28G29G31
  24044605.9324   -1317030.85945   -931178.72445                  24044611.4394
        10.7504          5.2504
  21010905.0884    2405843.95647   1895601.19946                  21010907.9004
        24.5004         21.5004
  21276298.2994   -1915213.53647  -1457165.24546                  21276301.1704
        23.7504         22.2504
  22831724.5024   -7592224.54846  -5839122.94745                  22831727.5964
        15.7504          8.5004
                   3097082.767 5   2413311.895 5  24020784.705    24020788.193
         8.250           6.500
  22524353.8304    9039296.90846   7015651.60646                  22524357.1004
        18.7504         12.5004
  22190863.7214   -6010482.55147  -4599461.65746                  22190866.5334
        20.7504         15.0004
 95  4 12 17  6 15.0020000  0  7G 2G18G19G27G28G29G31
  24039127.5414   -1345822.70545   -953613.89045                  24039133.4824
        10.5004          4.5004
  21016407.6824    2434761.54647   1918134.37346                  21016410.6114
        23.7504         21.0004
  21276623.0184   -1913507.86547  -1455836.14746                  21276626.1354
        23.5004         21.5004
  22827457.6744   -7614646.22546  -5856594.37845                  22827460.5214
        15.5004          9.7504
                   3129587.200 5   2438640.011 5  24026970.291    24026973.627
         8.250           6.250
  22533747.2604    9088659.43046   7054115.88645                  22533750.4004
        18.7504         11.7504
  22190454.6434   -6012631.27247  -4601135.97746                  22190457.3614
        20.5004         15.0004
 95  4 12 17  6 30.0020000  0  7G 2G18G19G27G28G29G31
  24033660.6194   -1374551.82445   -976000.19445                  24033666.0214
        11.0004          4.5004
  21021936.1894    2463815.01947   1940773.43246                  21021938.8854
        23.5004         19.7504
  21276957.5574   -1911748.88847  -1454465.51546                  21276960.5684
        23.5004         21.5004
  22823196.0804   -7637039.47246  -5874043.65545                  22823199.4554
        15.5004          9.2504
                   3162224.328 5   2464071.528 5  24033181.314    24033184.373
         8.500           6.250
  22543158.0964    9138114.20146   7092652.06046                  22543161.2364
        18.7504         13.0004
  22190074.5644   -6014629.56647  -4602693.07846                  22190077.2714
        21.0004         15.0004
 95  4 12 17  6 45.0020000  0  7G 2G18G19G27G28G29G31
  24028205.7834   -1403216.14845   -998336.05245                  24028210.8224
        11.0004          4.5004
  21027491.2444    2493007.71047   1963520.98046                  21027494.2684
        23.0004         18.2504
  21277303.6504   -1909930.63647  -1453048.69446                  21277306.8384
        23.5004         22.2504
  22818941.4944   -7659399.67946  -5891467.17745                  22818944.6934
        15.7504          9.7504
                   3194999.504 5   2489610.623 5  24039418.354    24039421.205
         8.500           6.000
  22552588.6504    9187670.17846   7131267.08746                  22552591.9084
        18.7504         13.0004
  22189723.9474   -6016472.01247  -4604128.74646                  22189726.6434
        20.7504         15.0004
 95  4 12 17  7  0.0020000  0  7G 2G18G19G27G28G29G31
  24022764.1044   -1431812.22745  -1020618.66545                  24022769.0844
        11.5004          4.5004
  21033072.6194    2522337.52147   1986375.37246                  21033075.5844
        23.0004         19.0004
  21277660.3934   -1908055.04747  -1451587.19546                  21277663.5684
        23.5004         22.2504
  22814693.1274   -7681723.61546  -5908862.44345                  22814696.1274
        15.5004          9.2504
                   3227913.406 5   2515257.825 5  24045681.775    24045684.471
         8.750           6.000
  22562037.8304    9237328.23846   7169961.65746                  22562041.0414
        18.7504         12.5004
  22189403.5104   -6018155.12447  -4605440.25346                  22189406.5924
        20.5004         13.7504
 95  4 12 17  7 15.0020000  0  7G 2G18G19G27G28G29G31
  24017335.7754   -1460339.44445  -1042847.64443                  24017340.1004
        11.5004          3.2504
  21038679.0414    2551801.08247   2009333.98246                  21038682.1354
        22.7504         17.0004
  21278027.2214   -1906127.21347  -1450084.99146                  21278030.3964
        22.7504         20.2504
  22810452.2914   -7704011.89846  -5926229.92245                  22810455.3734
        15.5004          8.5004
                   3260963.640 5   2541011.246 5  24051971.080    24051973.494
         8.500           5.500
  22571507.1434    9287087.96446   7208735.45845                  22571510.5644
        18.5004         11.2504
  22189113.0964   -6019682.04547  -4606630.05646                  22189116.1894
        20.0004         13.7504
 95  4 12 17  7 30.0020000  0  7G 2G18G19G27G28G29G31
  24011921.6504   -1488791.79546  -1065018.28345                  24011925.7404
        12.2504          5.2504
  21044312.8544    2581404.73947   2032401.75646                  21044315.4324
        24.0004         18.2504
  21278404.2524   -1904146.54747  -1448541.61446                  21278407.4984
        23.2504         21.5004
  22806218.5184   -7726259.28446  -5943565.54045                  22806221.7404
        15.7504          9.2504
                   3294153.913 5   2566873.789 5  24058286.838    24058289.299
         8.750           5.750
  22580996.4474    9336954.01046   7247592.09746                  22581000.0104
        19.0004         12.5004
  22188852.8774   -6021047.56047  -4607694.09246                  22188856.3814
        20.2504         14.5004
 95  4 12 17  7 45.0020000  0  7G 2G18G19G27G28G29G31
  24006520.5724   -1517173.58045  -1087133.93945                  24006525.6004
        11.7504          4.5004
  21049972.7994    2611147.65547   2055578.04446                  21049975.4594
        23.7504         19.0004
  21278790.2684   -1902117.75747  -1446960.74046                  21278793.4674
        23.0004         21.0004
  22801991.0334   -7748473.40546  -5960875.23645                  22801993.9634
        15.5004          8.5004
                   3327479.722 5   2592841.954 5  24064628.588    24064630.783
         8.500           5.500
  22590505.0104    9386922.13546   7286528.28046                  22590508.3384
        18.5004         12.5004
  22188623.6584   -6022253.38247  -4608633.69346                  22188626.9754
        20.2504         15.0004
 95  4 12 17  8  0.0020000  0  7G 2G18G19G27G28G29G31
  24001134.0334   -1545481.71245  -1109192.19645                  24001138.6044
        11.7504          5.2504
  21055658.9634    2641029.52647   2078862.60946                  21055661.4824
        24.0004         20.2504
  21279185.3074   -1900042.04547  -1445343.29946                  21279188.3184
        23.2504         22.2504
  22797769.7684   -7770656.92746  -5978161.09245                  22797772.2404
        16.0004          9.7504
                   3360941.577 5   2618916.126 5  24070995.947    24070998.525
         8.500           5.750
  22600032.7214    9436992.45146   7325544.09945                  22600036.3654
        18.2504         11.7504
  22188425.0724   -6023296.23447  -4609446.30246                  22188428.1784
        20.7504         15.0004
 95  4 12 17  8 15.0020000  0  7G 2G18G19G27G28G29G31
  23995759.4394   -1573718.92345  -1131195.20145                  23995764.2684
        11.5004          4.5004
  21061372.1354    2671051.80647   2102256.58346                  21061374.7254
        23.7504         19.7504
  21279588.6744   -1897922.14247  -1443691.42946                  21279591.7564
        23.0004         21.5004
  22793554.1274   -7792811.42046  -5995424.30745                  22793556.9394
        16.2504          9.7504
                   3394538.221 5   2645095.327 5  24077389.182    24077391.857
         8.250           5.750
  22609580.7684    9487167.08846   7364641.19845                  22609584.3424
        18.2504         11.7504
  22188257.9474   -6024175.75947  -4610131.64146                  22188260.7714
        20.7504         15.0004
 95  4 12 17  8 30.0020000  0  7G 2G18G19G27G28G29G31
  23990399.3774   -1601887.56245  -1153144.77245                  23990404.9434
        11.2504          4.5004
  21067111.8384    2701214.23247   2125759.76246                  21067114.7094
        23.5004         20.2504
  21280000.1354   -1895759.14447  -1442005.97546                  21280003.3344
        23.0004         23.0004
  22789344.1584   -7814933.25646  -6012662.09345                  22789346.8184
        16.2504          9.2504
                   3428270.426 5   2671380.163 5  24083808.041    24083810.982
         8.250           6.000
  22619148.9164    9537448.13946   7403821.22445                  22619152.2684
        18.7504         11.7504
  22188120.7054   -6024895.93247  -4610692.81146                  22188123.2134
        21.0004         15.7504
 95  4 12 17  8 45.0020000  0  7G 2G18G19G27G28G29G31
  23985052.7214   -1629983.69845  -1175037.85845                  23985058.0534
        11.5004          5.2504
  21072877.5804    2731514.56547   2149370.40846                  21072880.5454
        23.5004         19.7504
  21280420.9714   -1893549.19147  -1440283.93946                  21280424.1704
        23.2504         22.2504
  22785140.5574   -7837024.20446  -6029875.81645                  22785143.0644
        16.5004          9.7504
                   3462139.496 5   2697771.636 5  24090253.260    24090256.365
         8.250           6.250
  22628737.2054    9587834.25746   7443083.11046                  22628740.6044
        18.5004         12.5004
  22188013.6044   -6025458.90647  -4611131.47746                  22188016.3814
        20.5004         15.7504
 95  4 12 17  9  0.0020000  0  7G 2G18G19G27G28G29G31
  23979720.5724   -1658006.22145  -1196873.58145                  23979725.0024
        11.7504          6.0004
  21078668.9554    2761947.93847   2173084.71346                  21078671.9084
        23.7504         21.0004
  21280849.9394   -1891295.25547  -1438527.62746                  21280853.1394
        23.7504         22.2504
  22780941.5804   -7859089.81146  -6047069.77945                  22780943.8894
        16.7504         10.5004
                   3496140.641 5   2724266.034 5  24096723.260    24096726.604
         8.250           6.750
  22638344.2054    9638318.00346   7482421.08445                  22638347.2404
        18.7504         11.2504
  22187935.9164   -6025866.65947  -4611449.20146                  22187938.7294
        20.7504         15.0004
 95  4 12 17  9 15.0020000  0  7G 2G18G19G27G28G29G31
  23974402.8224   -1685951.89646  -1218649.41445                  23974407.3464
        12.2504          5.2504
  21084486.5804    2792518.78547   2196906.14046                  21084489.5104
        23.7504         20.2504
  21281288.3694   -1888991.40747  -1436732.41846                  21281291.3464
        23.5004         22.2504
  22776747.5884   -7881127.84446  -6064242.26745                  22776750.1664
        16.5004          9.7504
                   3530276.694 5   2750865.555 5  24103219.104    24103222.537
         8.250           6.750
  22647969.3144    9688898.27646   7521834.25845                  22647972.1864
        18.7504         11.7504
  22187888.4634   -6026116.75147  -4611644.08046                  22187891.1584
        20.5004         15.0004
 95  4 12 17  9 30.0020000  0  7G 2G18G19G27G28G29G31
  23969098.6894   -1713827.00446  -1240370.25945                  23969103.3654
        12.5004          5.2504
  21090330.2294    2823228.30847   2220835.62846                  21090333.1354
        23.7504         20.2504
  21281736.5494   -1886635.86347  -1434896.93546                  21281739.4204
        23.5004         21.0004
  22772558.5494   -7903142.74246  -6081396.72445                  22772561.3504
        16.5004         10.5004
                   3564546.041 5   2777568.936 5  24109740.299    24109743.857
         8.250           7.000
  22657611.8694    9739570.67146   7561319.22745                  22657614.7174
        18.7504         11.2504
  22187870.3224   -6026211.15747  -4611717.63846                  22187873.2404
        20.5004         15.7504
 95  4 12 17  9 45.0020000  0  7G 2G18G19G27G28G29G31
  23963807.6434   -1741632.35146  -1262036.74245                  23963811.9674
        13.2504          6.0004
  21096201.4864    2854081.23647   2244876.85746                  21096204.2874
        23.5004         20.2504
  21282196.0334   -1884221.41847  -1433015.54446                  21282198.9284
        23.5004         21.5004
  22768374.1114   -7925130.81046  -6098530.27645                  22768376.9824
        16.2504         10.5004
                   3598951.977 5   2804378.759 5  24116287.557    24116290.896
         8.250           7.000
  22667272.2754    9790336.34446   7600876.87245                  22667275.1464
        18.5004         11.7504
  22187883.4084   -6026143.45547  -4611664.88446                  22187886.2914
        20.7504         15.0004
 95  4 12 17 10  0.0020000  0  7G 2G18G19G27G28G29G31
  23958529.7684   -1769370.24546  -1283650.66945                  23958533.0494
        13.7504          6.5004
  21102098.8304    2885072.99547   2269026.27446                  21102101.7714
        23.0004         19.0004
  21282666.1354   -1881750.85847  -1431090.43346                  21282668.9594
        23.5004         21.5004
  22764195.0334   -7947092.38246  -6115643.17845                  22764198.0334
        16.0004          9.7504
                   3633492.352 5   2831293.328 5  24122860.518    24122863.846
         8.250           7.250
  22676949.7834    9841192.88846   7640505.33845                  22676952.7254
        18.5004         11.7504
  22187926.5644   -6025916.29147  -4611487.86946                  22187929.7644
        21.0004         15.7504
 95  4 12 17 10 15.0020000  0  7G 2G18G19G27G28G29G31
  23953262.6274   -1797045.53746  -1305215.80945                  23953266.3304
        13.0004          6.0004
  21108021.6824    2916197.31347   2293278.98146                  21108024.9044
        22.7504         19.7504
  21283146.5334   -1879227.32047  -1429124.04546                  21283149.4754
        23.7504         21.5004
  22760020.5334   -7969029.02846  -6132736.66545                  22760024.1544
        16.0004          9.7504
                   3668162.826 5   2858309.275 5  24129458.346    24129461.459
         8.250           7.250
  22686643.6354    9892134.51046   7680200.09645                  22686647.2684
        18.0004         11.2504
  22187998.5254   -6025536.94247  -4611192.27146                  22188001.7954
        21.0004         16.5004
 95  4 12 17 10 30.0020000  0  7G 2G18G19G27G28G29G31
  23948007.8614   -1824656.49946  -1326730.81345                  23948012.3144
        12.7504          5.2504
  21113970.4164    2947457.71347   2317637.72546                  21113973.2174
        23.2504         19.7504
  21283638.1194   -1876642.73247  -1427110.08246                  21283640.8504
        23.7504         21.5004
  22755852.0644   -7990936.35046  -6149807.29545                  22755855.6864
        16.2504         10.5004
                   3702966.697 5   2885429.169 5  24136081.299    24136084.361
         8.000           7.250
  22696353.9794    9943164.10546   7719963.39445                  22696357.9984
        17.5004         11.7504
  22188100.3694   -6025003.76847  -4610776.80546                  22188103.4984
        20.7504         15.7504
 95  4 12 17 10 45.0020000  0  7G 2G18G19G27G28G29G31
  23942766.2294   -1852201.32146  -1348194.29545                  23942771.0924
        12.2504          4.5004
  21119944.6354    2978851.62647   2342100.50546                  21119947.4124
        23.5004         19.7504
  21284142.4394   -1873993.51447  -1425045.75346                  21284145.0294
        23.7504         21.5004
  22751688.4864   -8012815.55246  -6166856.01245                  22751691.9084
        16.2504          9.2504
                   3737904.642 5   2912653.532 5  24142729.791    24142732.803
         7.750           7.000
  22706080.9554    9994279.18646   7759793.31945                  22706084.3894
        18.0004         10.5004
  22188231.0104   -6024315.55947  -4610240.53446                  22188234.3264
        20.5004         14.5004
 95  4 12 17 11  0.0020000  0  7G 2G18G19G27G28G29G31
  23937537.9324   -1879675.55845  -1369602.77845                  23937543.2994
        11.5004          4.5004
  21125944.3774    3010379.72947   2366667.85046                  21125946.8854
        24.0004         19.7504
  21284658.9634   -1871278.73047  -1422930.34046                  21284661.6934
        23.5004         20.2504
  22747530.6044   -8034666.80646  -6183882.96245                  22747533.6274
        16.2504          9.7504
                   3772978.165 5   2939983.549 5  24149403.830    24149406.920
         7.500           6.750
  22715824.9864   10045482.57746   7799692.05545                  22715828.2324
        18.0004         10.5004
  22188392.9324   -6023466.04247  -4609578.57246                  22188395.8614
        20.5004         14.5004
 95  4 12 17 11 15.0020000  0  7G 2G18G19G27G28G29G31
  23932322.3694   -1907083.94845  -1390959.94845                  23932327.9944
        11.5004          4.5004
  21131969.7684    3042043.52847   2391340.92846                  21131972.5104
        23.7504         19.7504
  21285187.4394   -1868500.73047  -1420765.66346                  21285190.2754
        23.5004         21.0004
  22743378.0884   -8056489.85446  -6200887.92445                  22743381.0294
        16.5004          9.7504
                   3808185.927 5   2967418.150 5  24156103.822    24156106.666
         7.500           6.750
  22725585.6504   10096775.11346   7839660.24445                  22725589.2134
        17.7504         10.5004
  22188585.0574   -6022455.61747  -4608791.22346                  22188587.8694
        20.2504         14.5004
 95  4 12 17 11 30.0020000  0  7G 2G18G19G27G28G29G31
  23927117.1974   -1934434.64545  -1412272.14945                  23927122.7994
        11.0004          6.0004
  21138019.6664    3073836.70447   2416114.82446                  21138022.1744
        23.5004         17.7504
  21285726.9554   -1865666.07747  -1418556.84546                  21285729.9434
        23.0004         20.2504
  22739229.4394   -8078288.42946  -6217873.82145                  22739232.3694
        16.7504          9.2504
                   3843522.553 4   2994953.177 5  24162827.939    24162830.943
         7.000           6.500
  22735363.0804   10148154.95446   7879696.46945                  22735366.1154
        17.7504         10.5004
  22188806.4244   -6021291.80947  -4607884.35946                  22188809.3424
        20.2504         14.5004
 95  4 12 17 11 45.0020000  0  7G 2G18G19G27G28G29G31
  23921926.5644   -1961714.04845  -1433528.81445                  23921931.6744
        11.7504          6.0004
  21144095.8304    3105769.17647   2440997.26146                  21144098.8424
        22.7504         19.0004
  21286279.1584   -1862764.82347  -1416296.12446                  21286282.2404
        23.2504         21.5004
  22735088.9004   -8100048.61346  -6234829.80045                  22735091.7604
        17.0004         11.2504
                   3878998.129 4   3022596.469 5  24169578.533    24169581.752
         7.000           6.750
  22745159.8774   10199637.18546   7919812.47545                  22745162.9124
        18.0004         11.2504
  22189058.6664   -6019965.73847  -4606851.05346                  22189061.5844
        20.7504         15.7504
 95  4 12 17 12  0.0020000  0  7G 2G18G19G27G28G29G31
  23916749.5724   -1988920.11645  -1454728.32945                  23916754.9984
        11.7504          6.0004
  21150198.0184    3137836.95547   2465985.13646                  21150201.2054
        22.0004         18.2504
  21286843.3224   -1859799.22647  -1413985.27446                  21286846.5334
        22.7504         19.7504
  22730954.5574   -8121772.79646  -6251757.72845                  22730957.7444
        17.0004         10.5004
                   3914610.228 4   3050346.146 5  24176355.400    24176358.482
         7.000           6.250
  22754976.2294   10251223.13146   7960009.29545                  22754978.9714
        17.7504         11.2504
  22189341.0884   -6018482.62147  -4605695.37646                  22189344.2294
        20.5004         14.5004
 95  4 12 17 12 15.0020000  0  7G 2G18G19G27G28G29G31
  23911586.5254   -2016051.45646  -1475869.61545                  23911591.4944
        12.2504          6.0004
  21156325.9164    3170039.24547   2491077.81946                  21156329.0574
        22.2504         19.0004
  21287419.9794   -1856768.57847  -1411623.73446                  21287423.0844
        23.5004         21.5004
  22726827.1974   -8143462.76746  -6268658.99745                  22726830.3264
        17.2504         11.2504
                   3950358.855 4   3078202.204 5  24183158.111    24183161.385
         7.000           6.250
  22764812.4864   10302913.46446   8000287.46145                  22764815.5804
        17.2504          9.7504
  22189652.7524   -6016845.09047  -4604419.36546                  22189655.7524
        21.2504         15.7504
 95  4 12 17 12 30.0020000  0  7G 2G18G19G27G28G29G31
  23906437.2914   -2043114.42946  -1496957.62445                  23906442.2484
        12.5004          5.2504
  21162479.2214    3202374.60047   2516274.18946                  21162482.2794
        22.0004         18.2504
  21288008.8144   -1853675.29347  -1409213.37946                  21288011.6744
        23.0004         22.2504
  22722704.9714   -8165125.35146  -6285538.93245                  22722708.1584
        17.2504         10.5004
                   3986239.631 4   3106161.252 5  24189986.150    24189989.166
         7.250           6.000
  22774667.2444   10354702.76246   8040642.74045                  22774670.7714
        16.7504          9.7504
  22189993.6664   -6015054.48247  -4603024.08646                  22189996.4554
        21.0004         16.5004
 95  4 12 17 12 45.0020000  0  7G 2G18G19G27G28G29G31
  23901300.3144   -2070106.27946  -1517990.22545                  23901305.1074
        12.5004          5.2504
  21168658.7294    3234846.39747   2541576.88046                  21168661.5294
        22.7504         19.0004
  21288609.3934   -1850519.61147  -1406754.40646                  21288612.2294
        23.5004         21.5004
  22718588.7754   -8186756.63946  -6302394.46645                  22718591.9394
        17.7504         10.5004
                   4022254.512 5   3134224.793 5  24196839.596    24196842.588
         7.500           6.250
  22784541.4474   10406592.64146   8081076.39945                  22784545.0334
        17.0004         11.7504
  22190364.6354   -6013105.42047  -4601505.32546                  22190367.7754
        21.5004         16.5004
 95  4 12 17 13  0.0020000  0  7G 2G18G19G27G28G29G31
  23896177.4394   -2097028.46046  -1538968.51745                  23896182.4674
        13.0004          6.5004
  21174864.0414    3267454.85747   2566986.06146                  21174866.4434
        23.5004         19.7504
  21289220.4714   -1847306.45647  -1404250.64846                  21289223.4004
        23.5004         22.2504
  22714478.5574   -8208355.98746  -6319225.11145                  22714481.5334
        17.7504         11.7504
                   4058402.075 5   3162391.723 5  24203718.330    24203721.295
         7.750           6.000
  22794435.1824   10458583.22946   8121588.53045                  22794439.2954
        17.0004         10.5004
  22190765.4004   -6010997.68647  -4599862.93346                  22190768.5184
        21.2504         17.7504
 95  4 12 17 13 15.0020000  0  7G 2G18G19G27G28G29G31
  23891067.2294   -2123884.94746  -1559895.62045                  23891072.0214
        13.0004          6.0004
  21181095.3614    3300199.68247   2592501.50546                  21181097.9164
        23.7504         20.2504
  21289841.7834   -1844041.60947  -1401706.60646                  21289844.9244
        23.5004         21.5004
  22710373.7524   -8229925.99146  -6336032.89145                  22710376.7054
        18.0004         11.7504
                   4094678.116 5   3190658.764 5  24210621.674    24210624.412
         8.250           6.000
  22804347.6744   10510671.53346   8162176.80645                  22804351.4824
        17.2504         10.5004
  22191195.8304   -6008736.75147  -4598101.15446                  22191198.7604
        21.7504         17.0004
 95  4 12 17 13 30.0020000  0  7G 2G18G19G27G28G29G31
  23885968.8074   -2150674.25446  -1580770.41145                  23885973.1664
        12.7504          6.0004
  21187353.0254    3333083.98147   2618125.62346                  21187355.6274
        24.0004         21.0004
  21290473.6974   -1840720.70847  -1399118.89546                  21290477.2134
        23.2504         23.0004
  22706275.1504   -8251462.62346  -6352814.67745                  22706278.1974
        18.0004         11.7504
                   4131086.094 5   3219028.620 5  24217549.838    24217552.580
         8.500           6.000
  22814278.5254   10562859.41546   8202842.66545                  22814282.6624
        17.7504         11.2504
  22191656.0254   -6006319.56147  -4596217.63246                  22191659.0724
        22.0004         17.7504
 95  4 12 17 13 45.0020000  0  7G 2G18G19G27G28G29G31
  23880884.3854   -2177395.66946  -1601592.25945                  23880888.7914
        13.2504          5.2504
  21193636.6974    3366105.49747   2643856.66546                  21193639.7444
        23.7504         21.5004
  21291116.6974   -1837342.09547  -1396486.21246                  21291119.8854
        23.5004         23.0004
  22702183.2914   -8272965.54146  -6369570.18045                  22702186.3964
        17.7504         11.7504
                   4167626.337 5   3247501.539 5  24224503.361    24224506.041
         8.750           6.000
  22824228.6504   10615145.89346   8243585.36245                  22824232.1664
        18.0004         11.7504
  22192146.2294   -6003742.94647  -4594209.87546                  22192148.8774
        21.7504         16.5004
 95  4 12 17 14  0.0020000  0  7G 2G18G19G27G28G29G31
  23875811.4554   -2204052.11746  -1622363.49445                  23875815.8504
        13.0004          6.0004
  21199946.5964    3399264.12347   2669694.55446                  21199949.7484
        23.7504         21.5004
  21291770.4864   -1833907.28647  -1393809.73346                  21291773.5104
        24.2504         23.0004
  22698097.3304   -8294438.85246  -6386302.62745                  22698100.2364
        18.0004         11.7504
                   4204297.998 5   3276076.864 5  24231481.838    24231484.678
         9.000           6.250
  22834196.1824   10667526.68046   8284401.54645                  22834199.8034
        18.0004         11.7504
  22192667.2604   -6001004.88847  -4592076.31246                  22192670.1314
        21.7504         17.7504
 95  4 12 17 14 15.0020000  0  7G 2G18G19G27G28G29G31
  23870750.5964   -2230648.59646  -1643088.01845                  23870755.0374
        13.0004          6.0004
  21206281.7364    3432555.65947   2695636.00446                  21206284.7484
        23.7504         22.2504
  21292433.8144   -1830421.83447  -1391093.79646                  21292436.8144
        24.2504         23.0004
  22694016.3304   -8315884.47246  -6403013.48445                  22694019.4944
        18.0004         11.7504
                   4241098.679 5   3304752.720 5  24238484.549    24238487.482
         9.000           6.250
  22844180.8384   10719994.55946   8325285.57745                  22844184.6704
        18.0004         11.7504
  22193218.7914   -5998106.72947  -4589817.99446                  22193221.5574
        22.2504         18.2504
 95  4 12 17 14 30.0020000  0  7G 2G18G19G27G28G29G31
  23865700.1434   -2257186.87146  -1663767.16545                  23865704.6314
        13.2504          6.5004
  21212642.3224    3465980.28947   2721681.15746                  21212645.4044
        24.0004         21.0004
  21293106.9244   -1826885.47347  -1388338.18846                  21293109.5964
        24.2504         23.0004
  22689940.7604   -8337300.71346  -6419701.45846                  22689943.8424
        17.7504         12.5004
                   4278029.187 5   3333529.746 5  24245512.283    24245515.264
         9.000           6.500
  22854181.7214   10772550.51546   8366238.25345                  22854184.8034
        18.2504         11.7504
  22193801.2524   -5995044.76647  -4587432.04646                  22193804.2174
        21.7504         17.7504
 95  4 12 17 14 45.0020000  0  7G 2G18G19G27G28G29G31
  23860662.4864   -2283661.83546  -1684396.99145                  23860667.3614
        13.0004          6.0004
  21219028.4324    3499539.02247   2747830.81246                  21219031.2794
        23.2504         21.0004
  21293789.7134   -1823297.15947  -1385542.09546                  21293792.5374
        23.7504         21.0004
  22685872.0414   -8358682.55046  -6436362.62745                  22685875.0414
        18.0004         11.7504
                   4315091.553 5   3362409.503 5  24252564.854    24252567.850
         9.000           6.250
  22864199.9944   10825196.87946   8407261.37745                  22864203.1584
        17.7504         11.2504
  22194415.2054   -5991818.41647  -4584917.99746                  22194418.3114
        21.7504         16.5004
 95  4 12 17 15  0.0020000  0  7G 2G18G19G27G28G29G31
  23855635.5334   -2310078.11446  -1704981.08445                  23855640.1044
        13.2504          7.2504
  21225438.8774    3533226.18247   2774080.53546                  21225441.6664
        23.5004         21.5004
  21294481.3144   -1819660.97947  -1382708.71146                  21294484.3734
        23.5004         23.0004
  22681808.8144   -8380035.82546  -6453001.53546                  22681811.5334
        18.0004         13.0004
                   4352280.131 5   3391387.615 5  24259641.869    24259644.564
         8.750           6.500
  22874234.6354   10877930.00146   8448352.10645                  22874237.7754
        17.5004         10.5004
  22195058.3544   -5988437.94547  -4582283.86346                  22195061.2604
        21.5004         17.0004
 95  4 12 17 15 15.0020000  0  7G 2G18G19G27G28G29G31
  23850620.7054   -2336431.06346  -1725515.83045                  23850625.2994
        13.0004          6.5004
  21231874.2214    3567045.03347   2800432.87246                  21231877.1624
        23.0004         19.7504
  21295183.8074   -1815970.51347  -1379833.02146                  21295186.5844
        23.5004         22.2504
  22677750.8774   -8401359.92946  -6469617.71145                  22677753.9124
        17.7504         11.2504
                   4389598.549 5   3420466.902 5  24266743.127    24266745.861
         8.500           6.250
  22884286.7604   10930753.88046   8489513.55245                  22884290.5454
        17.7504         11.2504
  22195731.4944   -5984902.26547  -4579528.78846                  22195734.6824
        21.2504         17.7504
 95  4 12 17 15 30.0020000  0  7G 2G18G19G27G28G29G31
  23845618.5884   -2362718.72746  -1745999.69545                  23845623.6274
        13.2504          6.0004
  21238334.0494    3600993.10247   2826885.90546                  21238337.0724
        22.7504         20.2504
  21295897.1194   -1812222.20147  -1376912.26046                  21295899.8614
        24.0004         15.0004
  22673698.8144   -8422653.36946  -6486209.99545                  22673701.9794
        18.0004         11.7504
                   4427047.237 5   3449647.692 5  24273869.299    24273872.510
         8.250           6.750
  22894356.1274   10983667.68646   8530745.06845                  22894359.7134
        18.0004         11.2504
  22196433.6274   -5981211.03547  -4576652.50545                  22196436.9434
        21.0004          8.5004
 95  4 12 17 15 45.0020000  0  7G 2G18G19G27G28G29G31
  23840627.4324   -2388945.31446  -1766435.99245                  23840632.3074
        13.2504          6.5004
  21244818.0254    3635065.57747   2853435.87246                  21244821.1434
        23.0004         20.2504
  21296621.0104   -1808418.78847  -1373948.56346                  21296623.7054
        24.5004         21.0004
  22669652.1354   -8443918.19846  -6502779.99146                  22669655.2294
        18.0004         12.5004
                   4464621.859 5   3478926.620 5  24281019.682    24281022.705
         8.250           6.500
  22904441.5414   11036667.31646   8572043.46745                  22904445.1394
        17.7504         11.2504
  22197165.1354   -5977367.15947  -4573657.26446                  22197168.1354
        21.5004         15.7504
 95  4 12 17 16  0.0020000  0  7G 2G18G19G27G28G29G31
  23835649.2214   -2415106.19246  -1786821.08045                  23835654.4004
        12.7504          7.2504
  21251326.3384    3669266.71847   2880086.10146                  21251329.5844
        23.0004         21.0004
  21297355.5334   -1804558.58647  -1370940.60946                  21297358.1704
        24.2504         22.2504
  22665611.3074   -8465152.02946  -6519325.82646                  22665614.3424
        18.2504         13.7504
                   4502324.541 5   3508305.318 5  24288194.205    24288197.064
         8.000           6.750
  22914543.4794   11089754.03946   8613409.72045                  22914546.7834
        17.7504         11.2504
  22197925.6744   -5973371.33247  -4570543.63746                  22197928.7444
        22.0004         17.0004
 95  4 12 17 16 15.0020000  0  7G 2G18G19G27G28G29G31
  23830683.7604   -2441197.85746  -1807152.20745                  23830688.5294
        12.5004          7.2504
  21257859.3304    3703597.16347   2906837.09246                  21257862.3544
        23.5004         21.5004
  21298100.5964   -1800642.44447  -1367889.07246                  21298103.2914
        23.7504         23.0004
  22661577.1354   -8486354.75346  -6535847.42046                  22661579.9364
        18.2504         13.7504
                   4540154.417 5   3537783.142 5  24295393.072    24295396.201
         7.750           7.000
  22924662.7834   11142929.01046   8654844.74546                  22924666.4284
        18.2504         12.5004
  22198714.4554   -5969227.38047  -4567314.57446                  22198717.6434
        21.7504         17.7504
 95  4 12 17 16 30.0020000  0  7G 2G18G19G27G28G29G31
  23825733.3544   -2467215.33346  -1827425.56245                  23825738.2294
        13.2504          7.2504
  21264417.0254    3738058.08247   2933689.74346                  21264420.0374
        23.7504         22.2504
  21298856.9474   -1796667.29947  -1364791.55646                  21298859.8424
        24.0004         23.5004
  22657548.9164   -8507525.25646  -6552343.91246                  22657551.6824
        19.2504         14.5004
                   4578112.260 5   3567360.669 5  24302615.963    24302619.307
         7.750           7.000
  22934799.5964   11196198.24146   8696353.22045                  22934803.1584
        18.5004         11.7504
  22199531.7914   -5964931.59347  -4563967.19946                  22199534.3694
        22.2504         18.2504
 95  4 12 17 16 45.0020000  0  7G 2G18G19G27G28G29G31
  23820795.9324   -2493158.96646  -1847641.38345                  23820800.9474
        12.5004          7.2504
  21270999.6664    3772650.02047   2960644.49146                  21271002.6544
        23.7504         23.0004
  21299624.7294   -1792632.92447  -1361647.89046                  21299627.7294
        23.5004         23.5004
  22653525.4634   -8528667.25346  -6568818.18346                  22653528.4394
        19.2504         14.5004
                   4616194.786 5   3597035.351 5  24309862.932    24309866.459
         7.500           7.000
  22944953.9944   11249558.69546   8737932.77045                  22944957.2874
        18.7504         11.7504
  22200378.0884   -5960484.05847  -4560501.58746                  22200381.0064
        21.7504         18.2504
 95  4 12 17 17  0.0020000  0  7G 2G18G19G27G28G29G31
  23815875.2684   -2519019.92946  -1867792.73545                  23815880.5064
        13.2504          7.7504
  21277608.7754    3807381.72847   2987708.15446                  21277611.6584
        23.5004         22.2504
  21300405.0494   -1788532.44147  -1358452.71346                  21300407.7444
        24.0004         22.2504
  22649509.4864   -8549771.60146  -6585263.12346                  22649512.2874
        19.5004         15.0004
                   4654410.092 5   3626813.509 5  24317134.979    24317138.514
         7.500           7.250
  22955126.5494   11303016.17546   8779587.92945                  22955129.8774
        18.5004         11.7504
  22201255.6894   -5955873.17347  -4556908.68146                  22201258.7014
        22.0004         20.2504
 95  4 12 17 17 15.0020000  0  7G 2G18G19G27G28G29G31
  23810967.5724   -2544810.49146  -1887889.26045                  23810972.5534
        13.7504          7.7504
  21284243.3614    3842245.19547   3014874.48246                  21284246.1044
        23.7504         23.5004
  21301196.5334   -1784374.64847  -1355212.87246                  21301199.2174
        24.5004         23.0004
  22645498.9394   -8570846.58546  -6601685.17546                  22645501.9044
        19.2504         15.0004
                   4692749.945 5   3656688.701 5  24324430.807    24324434.342
         7.500           7.000
  22965315.7754   11356562.70146   8821312.48145                  22965318.9864
        18.0004         11.7504
  22202163.1824   -5951102.26147  -4553191.08646                  22202166.4864
        21.5004         18.2504
 95  4 12 17 17 30.0020000  0  7G 2G18G19G27G28G29G31
  23806074.3774   -2570526.33246  -1907927.55145                  23806078.7834
        14.2504          7.2504
  21290903.1744    3877243.94947   3042146.23146                  21290906.3504
        23.7504         22.2504
  21301999.4084   -1780156.58847  -1351926.06946                  21302001.9864
        24.7504         23.5004
  22641495.5184   -8591884.73546  -6618078.53146                  22641498.6464
        19.5004         15.0004
                   4731218.810 5   3686664.429 5  24331751.275    24331754.576
         7.750           7.000
  22975522.5334   11410200.28446   8863107.98045                  22975525.8854
        18.0004         11.2504
  22203103.5024   -5946161.25047  -4549340.94146                  22203107.0064
        21.5004         19.7504
 95  4 12 17 17 45.0020000  0  7G 2G18G19G27G28G29G31
  23801193.2914   -2596175.68046  -1927914.03745                  23801197.2994
        14.7504          7.7504
  21297588.2364    3912373.06747   3069519.55746                  21297591.1074
        24.2504         23.5004
  21302811.5254   -1775887.49347  -1348599.49946                  21302814.1624
        24.5004         23.5004
  22637498.2364   -8612890.23346  -6634446.45046                  22637501.2014
        19.5004         15.0004
                   4769810.535 5   3716735.907 5  24339094.877    24339098.502
         7.750           7.000
  22985745.4634   11463921.06446   8904968.31345                  22985748.7324
        17.7504         10.5004
  22204075.2054   -5941054.76847  -4545361.86146                  22204078.8144
        21.5004         18.2504
 95  4 12 17 18  0.0020000  0  7G 2G18G19G27G28G29G31
  23796326.4244   -2621751.99246  -1947843.61245                  23796330.1624
        14.7504          7.7504
  21304299.5884    3947641.73647   3097001.62846                  21304302.3074
        24.2504         23.0004
  21303634.6044   -1771561.77947  -1345228.81246                  21303637.4394
        24.0004         24.2504
  22633508.0574   -8633858.95946  -6650785.70446                  22633510.9634
        19.2504         14.5004
                   4808531.784 5   3746908.290 5  24346463.494    24346466.576
         8.000           6.750
  22995984.9474   11517730.08246   8946897.40045                  22995988.6504
        17.7504         11.2504
  22205079.4394   -5935777.51747  -4541249.71146                  22205083.0614
        21.5004         19.0004
 95  4 12 17 18 15.0020000  0  7G 2G18G19G27G28G29G31
  23791473.0884   -2647255.71246  -1967716.61945                  23791477.1074
        14.5004          7.2504
  21311037.6354    3983048.53347   3124591.33546                  21311040.4944
        24.5004         23.5004
  21304468.3384   -1767179.90447  -1341814.37246                  21304471.3964
        23.7504         23.0004
  22629524.5884   -8654791.60346  -6667096.85246                  22629527.5064
        19.2504         13.7504
                   4847382.470 5   3777181.562 5  24353856.619    24353859.283
         8.000           6.250
  23006241.4474   11571627.92046   8988895.69545                  23006244.8694
        17.7504          9.7504
  22206116.4084   -5930327.79347  -4537003.17546                  22206119.8774
        21.7504         18.2504
 95  4 12 17 18 30.0020000  0  7G 2G18G19G27G28G29G31
  23786631.2054   -2672696.81146  -1987540.84445                  23786636.1394
        13.7504          7.7504
  21317799.4394    4018584.68447   3152281.82846                  21317802.4984
        23.7504         23.5004
  21305311.1194   -1762750.98147  -1338363.26546                  21305314.1544
        23.5004         23.0004
  22625546.5574   -8675696.04046  -6683386.01046                  22625549.7324
        19.2504         14.5004
                   4886353.567 5   3807548.638 5  24361272.314    24361275.518
         8.000           6.500
  23016512.9634   11625606.92246   9030957.23745                  23016516.5374
        17.5004         11.2504
  22207185.4794   -5924711.03647  -4532626.47846                  22207188.7484
        22.0004         17.7504
 95  4 12 17 18 45.0020000  0  7G 2G18G19G27G28G29G31
  23781802.5414   -2698070.79946  -2007312.75545                  23781807.6744
        13.5004          7.7504
  21324587.9324    4054258.67647   3180079.73046                  21324590.9904
        23.0004         21.5004
  21306164.6044   -1758266.42047  -1334868.80146                  21306167.6624
        23.2504         21.5004
  22621575.7994   -8696561.93946  -6699645.15046                  22621578.4594
        18.5004         13.0004
                   4925452.948 5   3838015.687 5  24368712.705    24368715.904
         7.750           6.250
  23026801.4084   11679670.57046   9073084.74145                  23026804.8774
        17.2504          9.2504
  22208287.3934   -5918919.73747  -4528113.77046                  22208290.6044
        21.5004         17.7504
 95  4 12 17 19  0.0020000  0  7G 2G18G19G27G28G29G31
  23776985.8074   -2723382.75546  -2027036.35545                  23776990.9634
        13.5004          7.2504
  21331402.1894    4090066.90647   3207982.23346                  21331405.5064
        23.0004         20.2504
  21307027.8074   -1753731.38547  -1331335.01046                  21307030.6434
        23.7504         21.5004
  22617612.2054   -8717390.68646  -6715875.33446                  22617615.1234
        18.5004         13.7504
                   4964677.635 5   3868580.369 5  24376177.002    24376180.252
         8.000           6.250
  23037104.5104   11733813.42146   9115273.95045                  23037108.0844
        17.2504          9.7504
  22209421.5184   -5912960.23447  -4523470.00046                  22209424.5184
        21.7504         17.7504
 95  4 12 17 19 15.0020000  0  7G 2G18G19G27G28G29G31
  23772180.5184   -2748635.62846  -2046713.90545                  23772185.7324
        13.7504          7.2504
  21338241.2214    4126006.69647   3235987.25746                  21338244.6314
        23.0004         21.5004
  21307900.1274   -1749147.21547  -1327762.92446                  21307902.8694
        23.7504         23.0004
  22613654.9394   -8738185.72946  -6732079.25646                  22613657.8934
        18.5004         13.7504
                   5004026.405 5   3899241.748 5  24383664.877    24383668.166
         8.250           6.500
  23047422.7214   11788035.94746   9157525.25745                  23047425.9674
        17.2504         10.5004
  22210586.4164   -5906838.01747  -4518699.44046                  22210589.4514
        21.7504         18.2504
 95  4 12 17 19 30.0020000  0  7G 2G18G19G27G28G29G31
  23767387.1974   -2773824.60146  -2066341.65045                  23767391.9554
        14.2504          7.2504
  21345105.2604    4162078.21747   3264094.92446                  21345108.7524
        23.2504         23.0004
  21308782.0964   -1744510.83547  -1324150.15946                  21308785.0144
        23.5004         23.0004
  22609704.2604   -8758947.38546  -6748257.16146                  22609707.5414
        18.5004         13.7504
                   5043499.488 5   3929999.982 5  24391176.557    24391179.943
         8.250           6.500
  23057755.3774   11842336.75846   9199837.56345                  23057758.7174
        17.0004          9.2504
  22211781.8694   -5900555.40347  -4513803.88946                  22211784.8694
        21.7504         17.0004
 95  4 12 17 19 45.0020000  0  7G 2G18G19G27G28G29G31
  23762607.7524   -2798944.12846  -2085915.28645                  23762611.7604
        14.2504          8.5004
  21351994.4714    4198280.56147   3292304.53446                  21351997.4944
        23.5004         21.5004
  21309674.5024   -1739821.03747  -1320495.77746                  21309677.7014
        23.0004         23.0004
  22605759.6274   -8779675.54046  -6764408.96846                  22605762.7214
        18.2504         13.7504
                   5083098.226 5   3960856.135 5  24398711.939    24398715.283
         8.250           6.500
  23068103.8074   11896717.88146   9242212.44345                  23068107.6274
        16.5004         10.5004
  22213007.6354   -5894114.40447  -4508784.93146                  22213010.8224
        21.7504         18.2504
 95  4 12 17 20  0.0020000  0  7G 2G18G19G27G28G29G31
  23757841.0104   -2823990.86646  -2105432.21245                  23757845.3934
        14.2504          8.5004
  21358908.7914    4234614.07947   3320616.35746                  21358911.8384
        24.2504         22.2504
  21310577.5884   -1735074.56747  -1316797.23046                  21310580.8814
        23.0004         23.0004
  22601821.4324   -8800372.36946  -6780536.36146                  22601824.6434
        18.2504         13.7504
                   5122822.713 5   3991810.275 5  24406271.314    24406274.463
         8.500           6.250
  23078468.5494   11951184.66046   9284654.06445                  23078471.9004
        16.5004          9.7504
  22214263.0334   -5887516.73947  -4503643.88946                  22214266.2684
        21.2504         17.0004
 95  4 12 17 20 15.0020000  0  7G 2G18G19G27G28G29G31
  23753090.4004   -2848956.61046  -2124886.00745                  23753094.1394
        14.7504          7.7504
  21365848.4244    4271083.17347   3349033.82246                  21365851.3774
        24.5004         23.0004
  21311493.2994   -1730263.23847  -1313048.14746                  21311496.6504
        23.2504         23.5004
  22597889.1744   -8821034.31246  -6796636.56846                  22597892.4084
        18.2504         13.7504
                   5162678.034 5   4022866.345 5  24413855.697    24413858.705
         8.500           6.250
  23088851.1824   12005746.00446   9327169.38645                  23088854.7794
        16.5004         10.5004
  22215549.8694   -5880755.50747  -4498375.39646                  22215552.7174
        22.0004         19.0004
 95  4 12 17 20 30.0020000  0  7G 2G18G19G27G28G29G31
  23748353.1114   -2873849.15546  -2144282.77945                  23748357.0144
        14.2504          7.7504
  21372812.5644    4307679.18747   3377550.18446                  21372815.5884
        24.5004         23.5004
  21312419.7914   -1725395.47547  -1309255.08246                  21312422.7794
        24.0004         23.5004
  22593962.4944   -8841669.88846  -6812716.23046                  22593965.9984
        18.2504         14.5004
                   5202656.023 5   4054018.024 5  24421463.322    24421466.064
         8.500           6.250
  23099250.6744   12060396.52146   9369754.18345                  23099254.3184
        15.7504          9.2504
  22216866.4714   -5873837.38247  -4492984.64746                  22216869.4944
        22.0004         18.2504
 95  4 12 17 20 45.0020000  0  7G 2G18G19G27G28G29G31
  23743629.6744   -2898670.84546  -2163624.33245                  23743633.9634
        14.2504          7.7504
  21379800.2994    4344400.30347   3406164.03146                  21379803.3694
        24.5004         24.2504
  21313356.5644   -1720472.93747  -1305419.33846                  21313359.4474
        24.2504         23.5004
  22590040.1434   -8862282.01046  -6828777.61146                  22590043.4824
        18.2504         13.7504
                   5242754.390 5   4085263.497 5  24429093.564    24429096.643
         8.250           6.250
  23109667.0254   12115132.92646   9412405.90845                  23109670.4594
        15.7504          9.2504
  22218212.2684   -5866766.63947  -4487474.97246                  22218215.0804
        22.0004         20.2504
 95  4 12 17 21  0.0020000  0  7G 2G18G19G27G28G29G31
  23738919.9944   -2923418.59046  -2182908.27045                  23738924.0144
        14.0004          7.7504
  21386812.1194    4381247.57247   3434876.18046                  21386815.1074
        24.5004         23.0004
  21314304.2914   -1715491.54847  -1301537.73046                  21314307.2214
        24.0004         24.2504
  22586122.3384   -8882870.15746  -6844820.31646                  22586125.5374
        18.5004         15.0004
                   5282975.971 5   4116604.990 5  24436747.221    24436750.389
         8.250           6.000
  23120099.7294   12169957.75646   9455126.53845                  23120103.1864
        16.0004          9.7504
  22219587.4394   -5859539.20647  -4481843.20146                  22219590.1114
        22.2504         17.7504
 95  4 12 17 21 15.0020000  0  7G 2G18G19G27G28G29G31
  23734224.5104   -2948092.46846  -2202134.65445                  23734229.4084
        13.5004          7.2504
  21393847.4634    4418220.01047   3463685.86146                  21393850.7214
        23.7504         23.5004
  21315263.3614   -1710451.67647  -1297610.56046                  21315266.4794
        23.5004         23.5004
  22582208.3614   -8903437.81246  -6860847.05546                  22582211.6664
        18.2504         15.7504
                   5323320.668 5   4148042.405 5  24444424.549    24444427.705
         8.000           5.750
  23130549.8304   12224873.33346   9497917.87745                  23130553.3344
        16.0004          9.2504
  22220992.2914   -5852154.43947  -4476088.83246                  22220995.2444
        21.5004         18.2504
 95  4 12 17 21 30.0020000  0  7G 2G18G19G27G28G29G31
  23729545.1114   -2972686.11746  -2221298.51445                  23729550.6314
        14.0004          7.7504
  21400908.1274    4455322.41647   3492596.81946                  21400911.2564
        24.2504         24.2504
  21316235.0494   -1705345.24847  -1293631.52646                  21316238.2254
        23.5004         25.0004
  22578299.3304   -8923979.55446  -6876853.60346                  22578302.4714
        18.5004         14.5004
                   5363792.755 5   4179579.096 5  24452126.033    24452129.174
         7.750           5.750
  23141017.7294   12279882.53946   9540782.16945                  23141021.3144
        16.2504          9.2504
  22222428.2754   -5844607.85047  -4470208.37646                  22222431.2524
        21.5004         18.2504
 95  4 12 17 21 45.0020000  0  7G 2G18G19G27G28G29G31
  23724878.9944   -2997205.91446  -2240404.84245                  23724883.9394
        14.0004          8.5004
  21407992.2524    4492551.03747   3521606.13346                  21407995.2754
        23.7504         22.2504
  21317218.2994   -1700180.37747  -1289606.95146                  21317221.6154
        24.2504         24.2504
  22574394.9084   -8944498.90546  -6892842.69946                  22574398.1074
        18.7504         15.0004
                   5404387.155 5   4211211.074 5  24459851.158    24459854.447
         7.750           6.000
  23151503.1114   12334982.08146   9583716.85445                  23151506.6154
        16.2504          9.2504
  22223894.4714   -5836903.17847  -4464204.73246                  22223897.4244
        21.7504         18.2504
 95  4 12 17 22  0.0020000  0  7G 2G18G19G27G28G29G31
  23720227.1744   -3021652.56146  -2259454.16545                  23720232.3304
        14.5004          8.5004
  21415102.0184    4529910.47647   3550717.36446                  21415104.8774
        24.5004         22.2504
  21318212.7834   -1694953.84847  -1285534.33346                  21318215.7954
        24.5004         25.0004
  22570495.3384   -8964992.22446  -6908811.51546                  22570498.4904
        19.0004         15.0004
                   5445106.242 5   4242940.235 5  24467599.838    24467603.178
         7.750           6.000
  23162006.3304   12390175.54646   9626724.72545                  23162009.1434
        16.5004          9.7504
  22225391.0414   -5829038.79947  -4458076.63846                  22225394.3814
        21.2504         17.7504
 95  4 12 17 22 15.0020000  0  7G 2G18G19G27G28G29G31
  23715588.0414   -3046031.40946  -2278450.64745                  23715592.6004
        14.2504          8.5004
  21422236.0574    4567400.61847   3579930.46546                  21422238.8814
        24.5004         23.0004
  21319219.4394   -1689665.93747  -1281413.87646                  21319222.1704
        25.0004         25.0004
  22566600.3774   -8985460.66746  -6924760.94946                  22566603.5184
        19.2504         15.7504
                   5485947.869 5   4274764.864 5  24475371.846    24475375.100
         7.500           6.000
  23172525.8384   12445457.87546   9669801.85245                  23172528.6394
        16.2504          9.7504
  22226917.8464   -5821015.07347  -4451824.38546                  22226921.0804
        21.5004         19.0004
 95  4 12 17 22 30.0020000  0  7G 2G18G19G27G28G29G31
  23710960.3544   -3070350.71046  -2297400.72545                  23710964.7604
        14.5004          8.5004
  21429394.1274    4605016.55047   3609241.56946                  21429396.9164
        24.5004         23.5004
  21320235.7134   -1684324.60047  -1277251.79346                  21320238.3964
        25.0004         24.2504
  22562709.6744   -9005906.23346  -6940692.54746                  22562712.8144
        19.0004         15.7504
                   5526907.474 4   4306681.418 5  24483166.096    24483169.670
         7.250           6.000
  23183061.2364   12500819.61946   9712940.84845                  23183064.3894
        16.2504          9.2504
  22228474.4554   -5812836.63947  -4445451.57846                  22228477.6314
        21.7504         18.2504
 95  4 12 17 22 45.0020000  0  7G 2G18G19G27G28G29G31
  23706343.6824   -3094610.07446  -2316304.11445                  23706348.2874
        14.0004          7.2504
  21436576.1744    4642759.22347   3638651.44046                  21436579.1974
        24.2504         19.7504
  21321262.4164   -1678927.29847  -1273046.10446                  21321265.2994
        23.7504         22.2504
  22558824.7914   -9026322.34346  -6956601.20046                  22558827.6394
        18.7504         13.7504
                   5567987.340 4   4338691.689 5  24490983.283    24490986.604
         6.750           5.500
  23193610.8074   12556260.40746   9756141.43945                  23193614.5454
        15.2504          8.5004
  22230060.3384   -5804501.86447  -4438956.94746                  22230063.3734
        21.2504         17.0004
 95  4 12 17 23  0.0020000  0  7G 2G18G19G27G28G29G31
  23701738.7994   -3118807.28646  -2335159.06245                  23701743.7794
        14.0004          6.5004
  21443782.6504    4680629.28047   3668160.56446                  21443785.8614
        24.2504         23.5004
  21322300.4004   -1673472.53947  -1268795.64446                  21322303.4244
        24.2504         23.5004
  22554945.4244   -9046706.77246  -6972485.16446                  22554948.3544
        19.5004         15.0004
                   5609187.964 4   4370796.066 5  24498823.346    24498826.744
         6.500           5.750
  23204175.0804   12611776.84446   9799400.98745                  23204178.7254
        15.5004          9.2504
  22231676.6194   -5796007.51147  -4432337.96646                  22231679.6074
        21.5004         19.0004
 95  4 12 17 23 15.0020000  0  7G 2G18G19G27G28G29G31
  23697147.4554   -3142935.12646  -2353959.94845                  23697152.7174
        14.0004          7.7504
  21451014.3544    4718632.89447   3697773.76246                  21451017.6004
        24.2504         23.0004
  21323350.9474   -1667952.55047  -1264494.35546                  21323353.8654
        24.2504         24.2504
  22551073.9244   -9067052.13246  -6988338.68446                  22551077.0184
        19.2504         16.5004
                   5650515.344 4   4402999.211 5  24506687.588    24506691.053
         6.500           5.750
  23214755.0724   12667375.33146   9842724.46745                  23214759.4674
        15.5004          9.2504
  22233324.4714   -5787348.11247  -4425590.37646                  22233327.6114
        21.5004         18.2504
 95  4 12 17 23 30.0020000  0  7G 2G18G19G27G28G29G31
  23692567.6044   -3166999.53446  -2372711.44045                  23692572.6314
        13.2504          8.5004
  21458270.2834    4756761.79947   3727484.58746                  21458273.4944
        24.5004         24.2504
  21324412.4394   -1662375.34247  -1260148.47946                  21324415.1584
        24.7504         25.5004
  22547208.8694   -9087362.49646  -7004164.93946                  22547212.1744
        19.2504         15.7504
                   5691961.682 4   4435295.039 5  24514574.439    24514578.061
         6.500           5.750
  23225349.1504   12723046.83346   9886104.84045                  23225353.1704
        15.5004          9.2504
  22235002.0574   -5778532.73747  -4418721.25046                  22235004.9754
        21.0004         18.2504
 95  4 12 17 23 45.0020000  0  7G 2G18G19G27G28G29G31
  23688000.1584   -3191001.86446  -2391414.52945                  23688005.0574
        13.5004          7.7504
  21465549.7444    4795015.56947   3757292.71146                  21465552.8384
        24.5004         23.0004
  21325484.4554   -1656743.99447  -1255760.41546                  21325487.1744
        25.2504         24.2504
  22543350.9394   -9107636.57546  -7019962.91746                  22543354.0454
        19.5004         15.0004
                   5733525.936 4   4467682.758 5  24522484.182    24522487.678
         6.750           5.750
  23235956.8774   12778791.30946   9929542.08745                  23235961.1664
        15.5004          7.2504
  22236709.3464   -5769560.13747  -4411729.61146                  22236712.7684
        21.2504         17.0004
 95  4 12 17 24  0.0020000  0  7G 2G18G19G27G28G29G31
  23683445.9714   -3214937.63346  -2410065.76545                  23683450.8814
        14.2504          8.5004
  21472853.0644    4833394.24147   3787198.15946                  21472855.8544
        24.5004         23.5004
  21326566.8384   -1651055.77147  -1251328.03546                  21326569.4394
        25.2504         24.2504
  22539500.3224   -9127871.92246  -7035730.71846                  22539503.1354
        19.5004         15.0004
                   5775211.128 4   4500164.711 5  24530416.783    24530420.014
         6.750           5.750
  23246579.6274   12834613.22546   9973039.66745                  23246583.7524
        15.7504          9.2504
  22238447.9004   -5760424.43947  -4404610.89346                  22238451.4044
        21.2504         17.7504
 95  4 12 17 24 15.0020000  0  7G 2G18G19G27G28G29G31
  23678904.1824   -3238806.89146  -2428665.17745                  23678908.8814
        14.5004          8.5004
  21480178.4634    4871891.76047   3817196.21846                  21480181.4514
        24.2504         22.2504
  21327660.1354   -1645309.53547  -1246850.45046                  21327662.7954
        25.0004         23.0004
  22535656.7994   -9148070.53446  -7051469.88946                  22535659.8114
        19.5004         14.5004
                   5817015.601 4   4532739.619 5  24538372.033    24538374.998
         6.750           5.750
  23257216.6274   12890510.50446  10016595.96545                  23257220.5534
        15.7504          8.5004
  22240217.4634   -5751125.79847  -4397365.20546                  22240221.0614
        21.2504         17.0004
 95  4 12 17 24 30.0020000  0  7G 2G18G19G27G28G29G31
  23674376.2524   -3262600.78946  -2447205.85445                  23674381.0334
        14.5004          7.7504
  21487528.7524    4910516.21847   3847293.18646                  21487531.9634
        24.2504         22.2504
  21328765.3614   -1639499.66647  -1242323.27746                  21328768.2094
        24.2504         24.2504
  22531821.7294   -9168222.97446  -7067173.08446                  22531824.7644
        19.5004         15.0004
                   5858947.097 4   4565413.500 5  24546351.330    24546354.471
         7.000           6.000
  23267869.9164   12946493.19546  10060218.82445                  23267873.5494
        15.7504          8.5004
  22242019.7524   -5741654.83347  -4389985.23046                  22242022.8114
        21.7504         18.2504
 95  4 12 17 24 45.0020000  0  7G 2G18G19G27G28G29G31
  23669861.7834   -3286323.80946  -2465691.30645                  23669866.1194
        14.7504          8.5004
  21494901.6114    4949262.26047   3877484.90346                  21494904.7874
        24.0004         21.5004
  21329881.8224   -1633632.51747  -1237751.48046                  21329885.1274
        24.2504         22.2504
  22527993.8384   -9188336.85246  -7082846.22446                  22527996.8504
        19.0004         15.0004
                   5900998.695 4   4598180.969 5  24554353.158    24554356.732
         7.000           6.000
  23278538.6354   13002556.36746  10103904.39045                  23278542.2094
        16.0004          9.2504
  22243853.7604   -5732017.94047  -4382475.96446                  22243856.5374
        22.0004         18.2504
 95  4 12 17 25  0.0020000  0  7G 2G18G19G27G28G29G31
  23665361.4394   -3309972.17546  -2484118.58145                  23665365.7294
        14.7504          8.5004
  21502298.3384    4988131.07147   3907772.28146                  21502301.3734
        24.2504         22.2504
  21331009.8464   -1627705.28647  -1233132.85946                  21331012.8694
        24.5004         22.2504
  22524173.4004   -9208413.91946  -7098490.68746                  22524176.4004
        19.0004         14.5004
                   5943170.427 4   4631042.050 5  24562378.455    24562381.541
         7.000           6.000
  23289222.7604   13058701.20646  10147653.58545                  23289226.2054
        16.0004          9.2504
  22245719.2604   -5722213.86547  -4374836.42446                  22245722.1664
        22.2504         19.0004
 95  4 12 17 25 15.0020000  0  7G 2G18G19G27G28G29G31
  23660875.3694   -3333545.21946  -2502487.17345                  23660879.6114
        14.7504          7.7504
  21509718.6894    5027124.00347   3938156.37246                  21509721.5024
        24.7504         23.5004
  21332149.2994   -1621717.70647  -1228467.21446                  21332152.1464
        24.5004         23.5004
  22520359.7524   -9228455.75046  -7114107.69646                  22520363.0804
        18.7504         15.0004
                   5985462.189 4   4663996.653 5  24570426.150    24570429.354
         7.000           6.000
  23299922.5644   13114930.28646  10191468.43345                  23299925.9164
        15.7504          8.5004
  22247616.5574   -5712243.47747  -4367067.28146                  22247619.5104
        22.0004         19.0004
 95  4 12 17 25 30.0020000  0  7G 2G18G19G27G28G29G31
  23656404.2444   -3357039.81946  -2520794.62645                  23656408.8854
        14.2504          7.7504
  21517163.1824    5066244.99447   3968640.25046                  21517165.8774
        25.0004         23.5004
  21333300.7684   -1615666.86747  -1223752.27446                  21333303.2174
        25.0004         23.5004
  22516552.8934   -9248458.75046  -7129694.44646                  22516555.7054
        18.7504         14.5004
                   6027877.689 4   4697047.677 5  24578497.604    24578500.904
         7.000           6.000
  23310640.0574   13171251.52246  10235355.08645                  23310643.3264
        15.5004          7.7504
  22249545.9794   -5702105.02047  -4359167.18746                  22249548.9204
        22.0004         18.2504
 95  4 12 17 25 45.0020000  0  7G 2G18G19G27G28G29G31
  23651946.9004   -3380464.13246  -2539047.32945                  23651951.8114
        14.2504          8.5004
  21524630.6664    5105487.88447   3999219.11046                  21524633.3504
        24.5004         23.0004
  21334462.0104   -1609563.83747  -1218996.67346                  21334464.7754
        24.2504         22.2504
  22512751.7294   -9268433.91746  -7145259.51046                  22512754.7644
        18.5004         14.5004
                   6070408.739 4   4730188.738 5  24586590.939    24586593.830
         7.250           5.750
  23321373.6664   13227657.54846  10279307.82345                  23321377.8144
        15.0004          7.7504
  22251505.8614   -5691804.36447  -4351140.69946                  22251509.0494
        21.2504         17.7504
 95  4 12 17 26  0.0020000  0  7G 2G18G19G27G28G29G31
  23647503.4244   -3403814.52246  -2557242.43445                  23647508.2994
        13.7504          7.2504
  21532122.1894    5144855.87847   4029895.45746                  21532124.9794
        24.2504         20.2504
  21335633.9634   -1603404.15147  -1214196.92146                  21335636.7294
        24.0004         22.2504
  22508956.4394   -9288379.16346  -7160801.25746                  22508959.1704
        19.0004         15.0004
                   6113058.419 5   4763422.247 5  24594707.096    24594709.850
         7.500           5.750
  23332124.4554   13284154.93246  10323331.73145                  23332128.6624
        14.2504          9.2504
  22253497.4084   -5681337.80347  -4342984.94046                  22253500.7254
        21.0004         17.7504
 95  4 12 17 26 15.0020000  0  7G 2G18G19G27G28G29G31
  23643074.7054   -3427088.41946  -2575377.91745                  23643080.4474
        14.0004          8.5004
  21539637.8614    5184353.40947   4060672.74246                  21539641.1434
        23.2504         21.5004
  21336817.9634   -1597181.89547  -1209348.41746                  21336820.8814
        23.5004         21.5004
  22505167.5884   -9308292.01546  -7176317.75946                  22505170.5184
        19.5004         15.0004
                   6155829.397 5   4796750.264 5  24602846.018    24602849.010
         7.500           5.750
  23342893.4944   13340746.23846  10367428.83645                  23342897.6074
        14.2504          9.2504
  22255521.4324   -5670702.73547  -4334697.87546                  22255524.9714
        21.2504         17.7504
 95  4 12 17 26 30.0020000  0  7G 2G18G19G27G28G29G31
  23638659.6044   -3450289.19346  -2593456.42545                  23638664.5614
        13.5004          7.2504
  21547180.1044    5223986.42147   4091555.60346                  21547183.6314
        23.0004         20.2504
  21338013.9004   -1590897.87847  -1204451.78146                  21338016.8304
        23.2504         21.5004
  22501384.7444   -9328170.87346  -7191807.77846                  22501387.4044
        19.5004         15.0004
                   6198721.390 5   4830172.596 5  24611008.299    24611011.127
         7.750           5.750
  23353680.1114   13397429.28146  10411597.42245                  23353684.0964
        14.5004          7.7504
  22257577.3544   -5659899.24747  -4326279.57546                  22257580.5764
        21.2504         17.7504
 95  4 12 17 26 45.0020000  0  7G 2G18G19G27G28G29G31
  23634257.8384   -3473420.99346  -2611481.18045                  23634262.6314
        13.7504          7.2504
  21554746.9714    5263752.82247   4122542.40246                  21554750.5214
        22.7504         20.2504
  21339220.5644   -1584556.16747  -1199510.18846                  21339223.3894
        23.0004         21.0004
  22497607.3544   -9348019.94646  -7207274.58646                  22497609.9434
        19.2504         15.0004
                   6241729.700 5   4863685.559 5  24619192.361    24619195.275
         7.500           5.500
  23364483.1744   13454198.81146  10455833.40445                  23364487.0884
        14.5004          8.5004
  22259664.3934   -5648932.50647  -4317734.06246                  22259667.4634
        21.7504         17.7504
 95  4 12 17 27  0.0020000  0  7G 2G18G19G27G28G29G31
  23629869.2754   -3496483.20346  -2629451.71745                  23629874.2214
        14.0004          8.5004
  21562339.3614    5303648.60247   4153630.01646                  21562342.7604
        23.2504         19.7504
  21340438.2364   -1578157.00547  -1194523.83346                  21340441.2484
        23.0004         20.2504
  22493835.5804   -9367840.34346  -7222719.04046                  22493838.2644
        19.5004         13.7504
                   6284853.143 5   4897288.224 5  24627398.604    24627401.654
         7.500           5.750
  23375301.8224   13511052.26046  10500134.77245                  23375305.8184
        14.0004          7.2504
  22261781.9324   -5637804.77447  -4309063.09946                  22261785.0724
        22.0004         17.7504
 95  4 12 17 27 15.0020000  0  7G 2G18G19G27G28G29G31
  23625494.3614   -3519473.80646  -2647366.45745                  23625498.8264
        14.2504          7.2504
  21569956.1354    5343674.82647   4184819.26846                  21569959.2404
        23.5004         19.7504
  21341667.0644   -1571700.32447  -1189492.64746                  21341669.9474
        23.0004         21.0004
  22490070.3464   -9387628.57246  -7238138.42846                  22490073.3574
        19.2504         13.0004
                   6328093.675 4   4930982.133 5  24635626.916    24635630.088
         7.250           5.750
  23386137.1044   13567991.96746  10544503.34045                  23386140.4204
        13.7504          7.2504
  22263930.0024   -5626516.36347  -4300266.93146                  22263933.1894
        21.7504         17.0004
 95  4 12 17 27 30.0020000  0  7G 2G18G19G27G28G29G31
  23621134.4794   -3542385.95246  -2665220.05845                  23621139.0964
        14.5004          8.5004
  21577599.5104    5383839.80947   4216116.64746                  21577602.0764
        23.7504         20.2504
  21342908.2364   -1565177.30947  -1184409.78246                  21342910.8964
        23.0004         22.2504
  22486312.1894   -9407376.08946  -7253526.10646                  22486315.1544
        19.5004         14.5004
                   6371459.383 4   4964773.588 5  24643879.322    24643882.518
         7.250           5.750
  23396990.6274   13625026.86646  10588946.10045                  23396994.6704
        13.7504          6.5004
  22266109.8774   -5615060.76247  -4291340.48546                  22266113.1584
        21.7504         17.0004
 95  4 12 17 27 45.0020000  0  7G 2G18G19G27G28G29G31
  23616787.9084   -3565227.19546  -2683018.39745                  23616792.1154
        14.7504          8.5004
  21585267.9324    5424137.80247   4247517.67046                  21585270.3934
        24.2504         21.5004
  21344161.1044   -1558594.31147  -1179280.17246                  21344164.1274
        23.2504         23.5004
  22482560.9554   -9427089.89346  -7268887.50146                  22482564.1074
        19.7504         15.7504
                   6414943.842 4   4998657.562 5  24652154.033    24652157.322
         7.000           6.000
  23407860.1434   13682146.62946  10633454.98145                  23407863.8574
        14.0004          7.2504
  22268320.4244   -5603442.99547  -4282287.67746                  22268323.7524
        21.5004         18.2504
 95  4 12 17 28  0.0020000  0  7G 2G18G19G27G28G29G31
  23612454.1584   -3588001.29846  -2700764.44545                  23612458.3894
        15.0004          8.5004
  21592960.7754    5464563.16047   4279017.93746                  21592963.1544
        24.0004         20.2504
  21345424.7364   -1551953.35647  -1174105.40446                  21345427.8774
        23.0004         23.0004
  22478815.5494   -9446771.99746  -7284224.20646                  22478818.7714
        19.7504         15.0004
                   6458542.218 4   5032630.310 5  24660450.619    24660454.033
         7.000           6.000
  23418744.7134   13739345.14446  10678025.22445                  23418747.7834
        14.0004          6.5004
  22270560.8934   -5591668.49347  -4273112.74446                  22270564.3034
        21.0004         19.0004
 95  4 12 17 28 15.0020000  0  7G 2G18G19G27G28G29G31
  23608132.9794   -3610707.94446  -2718457.92545                  23608137.8544
        14.7504          9.7504
  21600677.4084    5505116.77147   4310618.14146                  21600679.9284
        23.0004         20.2504
  21346700.7754   -1545248.19047  -1168880.60246                  21346703.7054
        23.5004         23.5004
  22475077.2524   -9466416.54247  -7299531.63746                  22475079.8654
        20.2504         17.0004
                   6502257.588 4   5066694.211 5  24668769.182    24668772.471
         7.000           6.000
  23429644.3384   13796622.32746  10722656.76245                  23429648.0884
        14.0004          7.7504
  22272831.9474   -5579735.06747  -4263813.97046                  22272835.2294
        21.0004         17.7504
 95  4 12 17 28 30.0020000  0  7G 2G18G19G27G28G29G31
  23603824.6974   -3633346.91146  -2736098.65045                  23603829.7714
        14.5004          9.7504
  21608418.9794    5545798.84047   4342318.44746                  21608421.7794
        22.7504         20.2504
  21347988.6974   -1538480.40047  -1163606.99946                  21347991.5334
        23.7504         23.0004
  22471346.3464   -9486023.56347  -7314809.82946                  22471349.2174
        20.2504         15.0004
                   6546089.305 4   5100848.787 5  24677110.229    24677113.385
         6.750           6.000
  23440557.2294   13853971.53646  10767344.45045                  23440560.7684
        13.7504          7.7504
  22275132.5804   -5567645.46147  -4254393.50346                  22275135.9204
        21.0004         18.2504
 95  4 12 17 28 45.0020000  0  7G 2G18G19G27G28G29G31
  23599530.2134   -3655913.57746  -2753683.05145                  23599535.5804
        14.2504          8.5004
  21616184.6274    5586607.94347   4374117.74146                  21616187.7914
        22.5004         20.2504
  21349288.6894   -1531648.87147  -1158283.72846                  21349291.6194
        23.7504         23.5004
  22467623.1044   -9505589.96747  -7330056.37146                  22467625.9864
        20.7504         16.5004
                   6590039.185 4   5135095.429 5  24685473.619    24685476.678
         6.750           6.000
  23451484.7444   13911395.36146  10812090.25145                  23451489.5494
        13.7504          7.2504
  22277462.7834   -5555399.88347  -4244851.49146                  22277465.9244
        21.5004         18.2504
 95  4 12 17 29  0.0020000  0  7G 2G18G19G27G28G29G31
  23595248.9794   -3678412.83446  -2771214.92745                  23595254.4864
        14.2504          8.5004
  21623972.4634    5627533.62847   4406007.87446                  21623975.8734
        22.0004         19.7504
  21350599.0104   -1524761.76447  -1152917.15046                  21350601.8934
        23.5004         24.2504
  22463905.9944   -9525123.63847  -7345277.41746                  22463908.9714
        20.5004         16.5004
                   6634100.067 4   5169428.568 5  24693858.236    24693861.322
         6.750           5.750
  23462425.2444   13968886.61246  10856888.61145                  23462429.2054
        14.0004          7.7504
  22279821.2524   -5543006.27147  -4235194.13046                  22279824.0294
        21.7504         19.0004
 95  4 12 17 29 15.0020000  0  7G 2G18G19G27G28G29G31
  23590981.6114   -3700839.73646  -2788690.41745                  23590987.3184
        14.7504          9.2504
  21631783.6194    5668581.88847   4437993.52146                  21631787.3694
        22.5004         19.0004
  21351921.7294   -1517812.26447  -1147501.96146                  21351924.8574
        24.0004         23.5004
  22460195.9474   -9544618.95547  -7360468.56446                  22460199.0294
        20.5004         17.0004
                   6678278.787 4   5203853.513 5  24702264.877    24702268.174
         6.500           5.750
  23473379.0254   14026450.08246  10901743.22845                  23473383.0454
        13.7504          7.2504
  22282209.2684   -5530457.33847  -4225415.73046                  22282212.3504
        22.0004         18.2504
 95  4 12 17 29 30.0020000  0  7G 2G18G19G27G28G29G31
  23586727.3304   -3723195.47346  -2806110.45145                  23586732.6274
        14.7504          8.5004
  21639618.4244    5709753.98347   4470075.66646                  21639621.9754
        22.5004         20.2504
  21353256.1664   -1510799.77947  -1142037.68946                  21353259.2714
        23.7504         23.5004
  22456493.5804   -9564074.85447  -7375628.99546                  22456496.5684
        20.5004         15.7504
                   6722575.969 4   5238370.792 5  24710694.541    24710697.564
         6.500           5.750
  23484346.7214   14084087.03846  10946655.10945                  23484350.2134
        13.2504          6.0004
  22284627.5494   -5517750.44847  -4215514.25946                  22284630.3964
        22.2504         18.2504
 95  4 12 17 29 45.0020000  0  7G 2G18G19G27G28G29G31
  23582485.5884   -3745486.55046  -2823480.11645                  23582490.4514
        15.5004          9.2504
  21647475.4554    5751042.51947   4502248.53546                  21647478.7714
        22.7504         21.0004
  21354601.8144   -1503728.82147  -1136527.84746                  21354605.0024
        24.2504         25.5004
  22452797.9394   -9583494.60847  -7390761.27346                  22452801.1044
        20.5004         16.5004
                   6766985.781 4   5272975.826 5  24719145.322    24719148.592
         6.500           5.750
  23495327.0494   14141789.51446  10991618.05945                  23495330.9044
        13.2504          6.5004
  22287074.9714   -5504887.81647  -4205491.42446                  22287077.9364
        22.2504         18.2504
 95  4 12 17 30  0.0020000  0  7G 2G18G19G27G28G29G31
  23578257.0964   -3767709.55046  -2840796.72145                  23578261.6664
        15.5004          9.2504
  21655354.3074    5792445.88747   4534510.89346                  21655357.5294
        22.5004         19.7504
  21355957.5494   -1496602.30747  -1130974.72446                  21355960.8304
        24.0004         23.5004
  22449109.4714   -9602877.40047  -7405864.74246                  22449112.5884
        20.2504         14.5004
                   6811507.819 4   5307668.296 5  24727617.533    24727621.104
         6.500           5.500
  23506320.5184   14199557.78446  11036632.27545                  23506324.7014
        13.2504          6.5004
  22289552.0644   -5491868.73547  -4195346.68546                  22289554.9824
        21.5004         17.0004
 95  4 12 17 30 15.0020000  0  7G 2G18G19G27G28G29G31
  23574041.2994   -3789861.63246  -2858058.07345                  23574045.9984
        15.5004          9.2504
  21663254.9714    5833963.53647   4566862.30146                  21663258.2874
        22.2504         19.0004
  21357324.9634   -1489417.57847  -1125376.23246                  21357327.9864
        24.0004         25.0004
  22445428.4474   -9622221.62946  -7420938.16646                  22445431.3304
        19.7504         15.7504
                   6856143.544 4   5342449.370 5  24736111.229    24736115.006
         6.250           5.250
  23517326.2054   14257396.44546  11081701.33545                  23517330.6464
        13.0004          6.0004
  22292059.9324   -5478690.95847  -4185078.28546                  22292062.9904
        21.0004         17.7504
 95  4 12 17 30 30.0020000  0  7G 2G18G19G27G28G29G31
  23569839.8304   -3811941.47046  -2875263.11145                  23569843.9674
        15.7504          9.2504
  21671177.2054    5875596.98947   4599303.94446                  21671180.3464
        22.0004         19.7504
  21358702.9794   -1482176.32847  -1119733.70546                  21358706.0964
        24.0004         24.2504
  22441754.1194   -9641528.90846  -7435982.79446                  22441757.3774
        19.7504         15.7504
                   6900892.943 4   5377319.009 5  24744626.768    24744630.080
         6.250           5.500
  23528346.2914   14315306.16046  11126825.76845                  23528350.8614
        13.0004          6.5004
  22294597.9864   -5465353.07247  -4174685.12546                  22294601.1154
        21.0004         17.7504
 95  4 12 17 30 45.0020000  0  7G 2G18G19G27G28G29G31
  23565651.1274   -3833952.96546  -2892414.92545                  23565655.2174
        15.5004          9.2504
  21679121.3304    5917341.93547   4631832.46246                  21679124.4594
        22.2504         17.0004
  21360090.1114   -1474886.69747  -1114053.47646                  21360092.9474
        23.7504         22.2504
  22438085.8614   -9660807.48046  -7451005.05246                  22438089.0494
        19.7504         14.5004
                   6945749.018 4   5412271.773 5  24753162.510    24753166.045
         6.250           5.250
  23539379.2994   14373283.57446  11172002.94645                  23539383.5884
        13.2504          6.5004
  22297165.3304   -5451861.07247  -4164171.88046                  22297168.6234
        20.5004         15.7504
 95  4 12 17 31  0.0020000  0  7G 2G18G19G27G28G29G31
  23561475.1744   -3855895.41646  -2909512.91345                  23561479.6744
        15.0004          9.2504
  21687087.2994    5959202.08347   4664450.74946                  21687090.4514
        22.5004         19.0004
  21361486.9244   -1467546.58647  -1108333.90546                  21361489.8074
        24.0004         23.5004
  22434422.7294   -9680056.48447  -7466004.27346                  22434425.9284
        20.0004         15.7504
                   6990713.697 4   5447309.174 5  24761719.205    24761722.451
         6.500           5.250
  23550425.6744   14431334.42846  11217237.37445                  23550429.6114
        13.2504          6.5004
  22299763.1504   -5438210.47147  -4153535.05446                  22299766.3264
        21.2504         17.0004
